<?xml version="1.0" encoding="UTF-8" standalone="no" ?>
<gpx xmlns="http://www.topografix.com/GPX/1/1" xmlns:xsi="http://www.w3.org/2001/XMLSchema-instance" xsi:schemaLocation="http://www.topografix.com/GPX/1/1 http://www.topografix.com/GPX/1/1/gpx.xsd" version="1.1" creator="VisuGPX - https://www.visugpx.com">
  <metadata>
    <name>26 juil. 2024 09:10</name>
    <desc><![CDATA[Recorded with GPX Recorder for Android]]></desc>
  </metadata>
  <trk>
    <name><![CDATA[26 juil. 2024 09:10_1]]></name>
    <trkseg>
      <trkpt lat="44.46894" lon="6.23315">
        <ele>755</ele>
        <time>2024-07-26T07:10:54.000Z</time>
      </trkpt>
      <trkpt lat="44.46895" lon="6.23313">
        <ele>757</ele>
        <time>2024-07-26T07:11:00.000Z</time>
      </trkpt>
      <trkpt lat="44.46895" lon="6.23299">
        <ele>751</ele>
        <time>2024-07-26T07:11:15.000Z</time>
      </trkpt>
      <trkpt lat="44.46889" lon="6.23262">
        <ele>747</ele>
        <time>2024-07-26T07:11:18.000Z</time>
      </trkpt>
      <trkpt lat="44.4684" lon="6.23253">
        <ele>747</ele>
        <time>2024-07-26T07:11:25.000Z</time>
      </trkpt>
      <trkpt lat="44.46799" lon="6.23291">
        <ele>747</ele>
        <time>2024-07-26T07:11:31.000Z</time>
      </trkpt>
      <trkpt lat="44.46764" lon="6.23327">
        <ele>747</ele>
        <time>2024-07-26T07:11:37.000Z</time>
      </trkpt>
      <trkpt lat="44.46717" lon="6.23369">
        <ele>747</ele>
        <time>2024-07-26T07:11:43.000Z</time>
      </trkpt>
      <trkpt lat="44.46663" lon="6.23377">
        <ele>731</ele>
        <time>2024-07-26T07:11:49.000Z</time>
      </trkpt>
      <trkpt lat="44.46633" lon="6.23378">
        <ele>731</ele>
        <time>2024-07-26T07:11:52.000Z</time>
      </trkpt>
      <trkpt lat="44.46599" lon="6.23385">
        <ele>728</ele>
        <time>2024-07-26T07:11:55.000Z</time>
      </trkpt>
      <trkpt lat="44.4657" lon="6.23373">
        <ele>726</ele>
        <time>2024-07-26T07:11:58.000Z</time>
      </trkpt>
      <trkpt lat="44.46549" lon="6.23351">
        <ele>724</ele>
        <time>2024-07-26T07:12:01.000Z</time>
      </trkpt>
      <trkpt lat="44.46536" lon="6.2335">
        <ele>723</ele>
        <time>2024-07-26T07:12:04.000Z</time>
      </trkpt>
      <trkpt lat="44.46534" lon="6.23351">
        <ele>722</ele>
        <time>2024-07-26T07:12:07.000Z</time>
      </trkpt>
      <trkpt lat="44.46533" lon="6.23353">
        <ele>718</ele>
        <time>2024-07-26T07:12:11.000Z</time>
      </trkpt>
      <trkpt lat="44.4653" lon="6.23356">
        <ele>722</ele>
        <time>2024-07-26T07:12:26.000Z</time>
      </trkpt>
      <trkpt lat="44.46527" lon="6.23368">
        <ele>722</ele>
        <time>2024-07-26T07:12:29.000Z</time>
      </trkpt>
      <trkpt lat="44.46527" lon="6.23385">
        <ele>722</ele>
        <time>2024-07-26T07:12:32.000Z</time>
      </trkpt>
      <trkpt lat="44.46527" lon="6.234">
        <ele>722</ele>
        <time>2024-07-26T07:12:35.000Z</time>
      </trkpt>
      <trkpt lat="44.46526" lon="6.23418">
        <ele>722</ele>
        <time>2024-07-26T07:12:38.000Z</time>
      </trkpt>
      <trkpt lat="44.46525" lon="6.23436">
        <ele>722</ele>
        <time>2024-07-26T07:12:41.000Z</time>
      </trkpt>
      <trkpt lat="44.46522" lon="6.23451">
        <ele>722</ele>
        <time>2024-07-26T07:12:44.000Z</time>
      </trkpt>
      <trkpt lat="44.46516" lon="6.23465">
        <ele>722</ele>
        <time>2024-07-26T07:12:47.000Z</time>
      </trkpt>
      <trkpt lat="44.4651" lon="6.23477">
        <ele>722</ele>
        <time>2024-07-26T07:12:50.000Z</time>
      </trkpt>
      <trkpt lat="44.46501" lon="6.23487">
        <ele>722</ele>
        <time>2024-07-26T07:12:53.000Z</time>
      </trkpt>
      <trkpt lat="44.46496" lon="6.23496">
        <ele>722</ele>
        <time>2024-07-26T07:12:56.000Z</time>
      </trkpt>
      <trkpt lat="44.46487" lon="6.23505">
        <ele>722</ele>
        <time>2024-07-26T07:12:59.000Z</time>
      </trkpt>
      <trkpt lat="44.46476" lon="6.23512">
        <ele>722</ele>
        <time>2024-07-26T07:13:02.000Z</time>
      </trkpt>
      <trkpt lat="44.46463" lon="6.23519">
        <ele>722</ele>
        <time>2024-07-26T07:13:05.000Z</time>
      </trkpt>
      <trkpt lat="44.4645" lon="6.23524">
        <ele>722</ele>
        <time>2024-07-26T07:13:08.000Z</time>
      </trkpt>
      <trkpt lat="44.4644" lon="6.23531">
        <ele>722</ele>
        <time>2024-07-26T07:13:11.000Z</time>
      </trkpt>
      <trkpt lat="44.46429" lon="6.23537">
        <ele>722</ele>
        <time>2024-07-26T07:13:14.000Z</time>
      </trkpt>
      <trkpt lat="44.46417" lon="6.23543">
        <ele>722</ele>
        <time>2024-07-26T07:13:17.000Z</time>
      </trkpt>
      <trkpt lat="44.46402" lon="6.23551">
        <ele>722</ele>
        <time>2024-07-26T07:13:20.000Z</time>
      </trkpt>
      <trkpt lat="44.46385" lon="6.23561">
        <ele>722</ele>
        <time>2024-07-26T07:13:23.000Z</time>
      </trkpt>
      <trkpt lat="44.4637" lon="6.23568">
        <ele>722</ele>
        <time>2024-07-26T07:13:26.000Z</time>
      </trkpt>
      <trkpt lat="44.46353" lon="6.23578">
        <ele>722</ele>
        <time>2024-07-26T07:13:29.000Z</time>
      </trkpt>
      <trkpt lat="44.46338" lon="6.23586">
        <ele>722</ele>
        <time>2024-07-26T07:13:32.000Z</time>
      </trkpt>
      <trkpt lat="44.46323" lon="6.23594">
        <ele>722</ele>
        <time>2024-07-26T07:13:35.000Z</time>
      </trkpt>
      <trkpt lat="44.46309" lon="6.23601">
        <ele>722</ele>
        <time>2024-07-26T07:13:38.000Z</time>
      </trkpt>
      <trkpt lat="44.46296" lon="6.23609">
        <ele>722</ele>
        <time>2024-07-26T07:13:41.000Z</time>
      </trkpt>
      <trkpt lat="44.46283" lon="6.23616">
        <ele>722</ele>
        <time>2024-07-26T07:13:44.000Z</time>
      </trkpt>
      <trkpt lat="44.46271" lon="6.23621">
        <ele>722</ele>
        <time>2024-07-26T07:13:47.000Z</time>
      </trkpt>
      <trkpt lat="44.46259" lon="6.23627">
        <ele>720</ele>
        <time>2024-07-26T07:13:50.000Z</time>
      </trkpt>
      <trkpt lat="44.4625" lon="6.23632">
        <ele>719</ele>
        <time>2024-07-26T07:13:53.000Z</time>
      </trkpt>
      <trkpt lat="44.46245" lon="6.23636">
        <ele>719</ele>
        <time>2024-07-26T07:13:56.000Z</time>
      </trkpt>
      <trkpt lat="44.46239" lon="6.2364">
        <ele>716</ele>
        <time>2024-07-26T07:13:59.000Z</time>
      </trkpt>
      <trkpt lat="44.46232" lon="6.2365">
        <ele>714</ele>
        <time>2024-07-26T07:14:02.000Z</time>
      </trkpt>
      <trkpt lat="44.46222" lon="6.23655">
        <ele>716</ele>
        <time>2024-07-26T07:14:05.000Z</time>
      </trkpt>
      <trkpt lat="44.46216" lon="6.23659">
        <ele>714</ele>
        <time>2024-07-26T07:14:08.000Z</time>
      </trkpt>
      <trkpt lat="44.46216" lon="6.23669">
        <ele>710</ele>
        <time>2024-07-26T07:14:11.000Z</time>
      </trkpt>
      <trkpt lat="44.46215" lon="6.23704">
        <ele>710</ele>
        <time>2024-07-26T07:14:19.000Z</time>
      </trkpt>
      <trkpt lat="44.46217" lon="6.23733">
        <ele>712</ele>
        <time>2024-07-26T07:14:24.000Z</time>
      </trkpt>
      <trkpt lat="44.46229" lon="6.23767">
        <ele>705</ele>
        <time>2024-07-26T07:14:31.000Z</time>
      </trkpt>
      <trkpt lat="44.46244" lon="6.23795">
        <ele>706</ele>
        <time>2024-07-26T07:14:37.000Z</time>
      </trkpt>
      <trkpt lat="44.46253" lon="6.23824">
        <ele>708</ele>
        <time>2024-07-26T07:14:43.000Z</time>
      </trkpt>
      <trkpt lat="44.46261" lon="6.23854">
        <ele>711</ele>
        <time>2024-07-26T07:14:49.000Z</time>
      </trkpt>
      <trkpt lat="44.46262" lon="6.23894">
        <ele>717</ele>
        <time>2024-07-26T07:14:55.000Z</time>
      </trkpt>
      <trkpt lat="44.46256" lon="6.2393">
        <ele>716</ele>
        <time>2024-07-26T07:15:01.000Z</time>
      </trkpt>
      <trkpt lat="44.46253" lon="6.23956">
        <ele>712</ele>
        <time>2024-07-26T07:15:07.000Z</time>
      </trkpt>
      <trkpt lat="44.46248" lon="6.23977">
        <ele>718</ele>
        <time>2024-07-26T07:15:13.000Z</time>
      </trkpt>
      <trkpt lat="44.46235" lon="6.23994">
        <ele>718</ele>
        <time>2024-07-26T07:15:19.000Z</time>
      </trkpt>
      <trkpt lat="44.46217" lon="6.24015">
        <ele>712</ele>
        <time>2024-07-26T07:15:25.000Z</time>
      </trkpt>
      <trkpt lat="44.46195" lon="6.24033">
        <ele>708</ele>
        <time>2024-07-26T07:15:31.000Z</time>
      </trkpt>
      <trkpt lat="44.4617" lon="6.24046">
        <ele>713</ele>
        <time>2024-07-26T07:15:37.000Z</time>
      </trkpt>
      <trkpt lat="44.4615" lon="6.24065">
        <ele>716</ele>
        <time>2024-07-26T07:15:43.000Z</time>
      </trkpt>
      <trkpt lat="44.46134" lon="6.24087">
        <ele>715</ele>
        <time>2024-07-26T07:15:49.000Z</time>
      </trkpt>
      <trkpt lat="44.46118" lon="6.24113">
        <ele>711</ele>
        <time>2024-07-26T07:15:55.000Z</time>
      </trkpt>
      <trkpt lat="44.46105" lon="6.24133">
        <ele>707</ele>
        <time>2024-07-26T07:16:01.000Z</time>
      </trkpt>
      <trkpt lat="44.46092" lon="6.24151">
        <ele>712</ele>
        <time>2024-07-26T07:16:07.000Z</time>
      </trkpt>
      <trkpt lat="44.46084" lon="6.24164">
        <ele>715</ele>
        <time>2024-07-26T07:16:13.000Z</time>
      </trkpt>
      <trkpt lat="44.46089" lon="6.24141">
        <ele>715</ele>
        <time>2024-07-26T07:16:25.000Z</time>
      </trkpt>
      <trkpt lat="44.46087" lon="6.24131">
        <ele>716</ele>
        <time>2024-07-26T07:16:31.000Z</time>
      </trkpt>
      <trkpt lat="44.46088" lon="6.24112">
        <ele>716</ele>
        <time>2024-07-26T07:16:37.000Z</time>
      </trkpt>
      <trkpt lat="44.46081" lon="6.24092">
        <ele>718</ele>
        <time>2024-07-26T07:16:43.000Z</time>
      </trkpt>
      <trkpt lat="44.46074" lon="6.24074">
        <ele>716</ele>
        <time>2024-07-26T07:16:49.000Z</time>
      </trkpt>
      <trkpt lat="44.46062" lon="6.24064">
        <ele>718</ele>
        <time>2024-07-26T07:16:55.000Z</time>
      </trkpt>
      <trkpt lat="44.46052" lon="6.24052">
        <ele>720</ele>
        <time>2024-07-26T07:17:01.000Z</time>
      </trkpt>
      <trkpt lat="44.4604" lon="6.24042">
        <ele>719</ele>
        <time>2024-07-26T07:17:07.000Z</time>
      </trkpt>
      <trkpt lat="44.46031" lon="6.24031">
        <ele>716</ele>
        <time>2024-07-26T07:17:13.000Z</time>
      </trkpt>
      <trkpt lat="44.46027" lon="6.24018">
        <ele>718</ele>
        <time>2024-07-26T07:17:19.000Z</time>
      </trkpt>
      <trkpt lat="44.46015" lon="6.24004">
        <ele>717</ele>
        <time>2024-07-26T07:17:25.000Z</time>
      </trkpt>
      <trkpt lat="44.4601" lon="6.23992">
        <ele>717</ele>
        <time>2024-07-26T07:17:31.000Z</time>
      </trkpt>
      <trkpt lat="44.46001" lon="6.2398">
        <ele>719</ele>
        <time>2024-07-26T07:17:37.000Z</time>
      </trkpt>
      <trkpt lat="44.4599" lon="6.2397">
        <ele>720</ele>
        <time>2024-07-26T07:17:43.000Z</time>
      </trkpt>
      <trkpt lat="44.45979" lon="6.23962">
        <ele>722</ele>
        <time>2024-07-26T07:17:49.000Z</time>
      </trkpt>
      <trkpt lat="44.45965" lon="6.2396">
        <ele>718</ele>
        <time>2024-07-26T07:17:55.000Z</time>
      </trkpt>
      <trkpt lat="44.45951" lon="6.23955">
        <ele>717</ele>
        <time>2024-07-26T07:18:01.000Z</time>
      </trkpt>
      <trkpt lat="44.45943" lon="6.2394">
        <ele>712</ele>
        <time>2024-07-26T07:18:07.000Z</time>
      </trkpt>
      <trkpt lat="44.4593" lon="6.23925">
        <ele>709</ele>
        <time>2024-07-26T07:18:13.000Z</time>
      </trkpt>
      <trkpt lat="44.45919" lon="6.2391">
        <ele>711</ele>
        <time>2024-07-26T07:18:19.000Z</time>
      </trkpt>
      <trkpt lat="44.45907" lon="6.2389">
        <ele>710</ele>
        <time>2024-07-26T07:18:25.000Z</time>
      </trkpt>
      <trkpt lat="44.45892" lon="6.23879">
        <ele>713</ele>
        <time>2024-07-26T07:18:31.000Z</time>
      </trkpt>
      <trkpt lat="44.45882" lon="6.23897">
        <ele>704</ele>
        <time>2024-07-26T07:18:37.000Z</time>
      </trkpt>
      <trkpt lat="44.45886" lon="6.23925">
        <ele>709</ele>
        <time>2024-07-26T07:18:43.000Z</time>
      </trkpt>
      <trkpt lat="44.45898" lon="6.23954">
        <ele>713</ele>
        <time>2024-07-26T07:18:49.000Z</time>
      </trkpt>
      <trkpt lat="44.45911" lon="6.23977">
        <ele>712</ele>
        <time>2024-07-26T07:18:55.000Z</time>
      </trkpt>
      <trkpt lat="44.45916" lon="6.24003">
        <ele>711</ele>
        <time>2024-07-26T07:19:01.000Z</time>
      </trkpt>
      <trkpt lat="44.45916" lon="6.24042">
        <ele>707</ele>
        <time>2024-07-26T07:19:08.000Z</time>
      </trkpt>
      <trkpt lat="44.4591" lon="6.24068">
        <ele>702</ele>
        <time>2024-07-26T07:19:13.000Z</time>
      </trkpt>
      <trkpt lat="44.45912" lon="6.24092">
        <ele>699</ele>
        <time>2024-07-26T07:19:19.000Z</time>
      </trkpt>
      <trkpt lat="44.45925" lon="6.24146">
        <ele>705</ele>
        <time>2024-07-26T07:19:25.000Z</time>
      </trkpt>
      <trkpt lat="44.45938" lon="6.24183">
        <ele>707</ele>
        <time>2024-07-26T07:19:31.000Z</time>
      </trkpt>
      <trkpt lat="44.45951" lon="6.24215">
        <ele>708</ele>
        <time>2024-07-26T07:19:37.000Z</time>
      </trkpt>
      <trkpt lat="44.45961" lon="6.24242">
        <ele>710</ele>
        <time>2024-07-26T07:19:43.000Z</time>
      </trkpt>
      <trkpt lat="44.45982" lon="6.24267">
        <ele>710</ele>
        <time>2024-07-26T07:19:46.000Z</time>
      </trkpt>
      <trkpt lat="44.45991" lon="6.24287">
        <ele>713</ele>
        <time>2024-07-26T07:19:49.000Z</time>
      </trkpt>
      <trkpt lat="44.46005" lon="6.24302">
        <ele>717</ele>
        <time>2024-07-26T07:19:52.000Z</time>
      </trkpt>
      <trkpt lat="44.46024" lon="6.24338">
        <ele>716</ele>
        <time>2024-07-26T07:20:00.000Z</time>
      </trkpt>
      <trkpt lat="44.46041" lon="6.24366">
        <ele>718</ele>
        <time>2024-07-26T07:20:07.000Z</time>
      </trkpt>
      <trkpt lat="44.4605" lon="6.24382">
        <ele>718</ele>
        <time>2024-07-26T07:20:13.000Z</time>
      </trkpt>
      <trkpt lat="44.46055" lon="6.24392">
        <ele>719</ele>
        <time>2024-07-26T07:20:19.000Z</time>
      </trkpt>
      <trkpt lat="44.46059" lon="6.24412">
        <ele>715</ele>
        <time>2024-07-26T07:20:25.000Z</time>
      </trkpt>
      <trkpt lat="44.46048" lon="6.2442">
        <ele>716</ele>
        <time>2024-07-26T07:20:31.000Z</time>
      </trkpt>
      <trkpt lat="44.46034" lon="6.24409">
        <ele>705</ele>
        <time>2024-07-26T07:20:37.000Z</time>
      </trkpt>
      <trkpt lat="44.46021" lon="6.24401">
        <ele>705</ele>
        <time>2024-07-26T07:20:43.000Z</time>
      </trkpt>
      <trkpt lat="44.4601" lon="6.24388">
        <ele>710</ele>
        <time>2024-07-26T07:20:49.000Z</time>
      </trkpt>
      <trkpt lat="44.46002" lon="6.24381">
        <ele>705</ele>
        <time>2024-07-26T07:20:55.000Z</time>
      </trkpt>
      <trkpt lat="44.45994" lon="6.24384">
        <ele>707</ele>
        <time>2024-07-26T07:21:01.000Z</time>
      </trkpt>
      <trkpt lat="44.45988" lon="6.24394">
        <ele>719</ele>
        <time>2024-07-26T07:21:07.000Z</time>
      </trkpt>
      <trkpt lat="44.45984" lon="6.24411">
        <ele>718</ele>
        <time>2024-07-26T07:21:13.000Z</time>
      </trkpt>
      <trkpt lat="44.45982" lon="6.24439">
        <ele>716</ele>
        <time>2024-07-26T07:21:19.000Z</time>
      </trkpt>
      <trkpt lat="44.45983" lon="6.24464">
        <ele>715</ele>
        <time>2024-07-26T07:21:25.000Z</time>
      </trkpt>
      <trkpt lat="44.45987" lon="6.24481">
        <ele>711</ele>
        <time>2024-07-26T07:21:31.000Z</time>
      </trkpt>
      <trkpt lat="44.45988" lon="6.24497">
        <ele>708</ele>
        <time>2024-07-26T07:21:37.000Z</time>
      </trkpt>
      <trkpt lat="44.45988" lon="6.24513">
        <ele>706</ele>
        <time>2024-07-26T07:21:43.000Z</time>
      </trkpt>
      <trkpt lat="44.45994" lon="6.24526">
        <ele>704</ele>
        <time>2024-07-26T07:21:49.000Z</time>
      </trkpt>
      <trkpt lat="44.46005" lon="6.24566">
        <ele>716</ele>
        <time>2024-07-26T07:21:55.000Z</time>
      </trkpt>
      <trkpt lat="44.46007" lon="6.24583">
        <ele>716</ele>
        <time>2024-07-26T07:22:01.000Z</time>
      </trkpt>
      <trkpt lat="44.45996" lon="6.24588">
        <ele>716</ele>
        <time>2024-07-26T07:22:07.000Z</time>
      </trkpt>
      <trkpt lat="44.45977" lon="6.24571">
        <ele>699</ele>
        <time>2024-07-26T07:22:13.000Z</time>
      </trkpt>
      <trkpt lat="44.45966" lon="6.24567">
        <ele>702</ele>
        <time>2024-07-26T07:22:19.000Z</time>
      </trkpt>
      <trkpt lat="44.45962" lon="6.24585">
        <ele>705</ele>
        <time>2024-07-26T07:22:25.000Z</time>
      </trkpt>
      <trkpt lat="44.45964" lon="6.24604">
        <ele>711</ele>
        <time>2024-07-26T07:22:31.000Z</time>
      </trkpt>
      <trkpt lat="44.45972" lon="6.24622">
        <ele>710</ele>
        <time>2024-07-26T07:22:37.000Z</time>
      </trkpt>
      <trkpt lat="44.45977" lon="6.24654">
        <ele>702</ele>
        <time>2024-07-26T07:22:44.000Z</time>
      </trkpt>
      <trkpt lat="44.45983" lon="6.24674">
        <ele>718</ele>
        <time>2024-07-26T07:22:50.000Z</time>
      </trkpt>
      <trkpt lat="44.45987" lon="6.24694">
        <ele>717</ele>
        <time>2024-07-26T07:22:56.000Z</time>
      </trkpt>
      <trkpt lat="44.45995" lon="6.24715">
        <ele>717</ele>
        <time>2024-07-26T07:23:02.000Z</time>
      </trkpt>
      <trkpt lat="44.46003" lon="6.24739">
        <ele>717</ele>
        <time>2024-07-26T07:23:08.000Z</time>
      </trkpt>
      <trkpt lat="44.46013" lon="6.24801">
        <ele>695</ele>
        <time>2024-07-26T07:23:14.000Z</time>
      </trkpt>
      <trkpt lat="44.4602" lon="6.24826">
        <ele>697</ele>
        <time>2024-07-26T07:23:19.000Z</time>
      </trkpt>
      <trkpt lat="44.46031" lon="6.24851">
        <ele>700</ele>
        <time>2024-07-26T07:23:25.000Z</time>
      </trkpt>
      <trkpt lat="44.46037" lon="6.24872">
        <ele>716</ele>
        <time>2024-07-26T07:23:31.000Z</time>
      </trkpt>
      <trkpt lat="44.4604" lon="6.24889">
        <ele>716</ele>
        <time>2024-07-26T07:23:37.000Z</time>
      </trkpt>
      <trkpt lat="44.46062" lon="6.24922">
        <ele>718</ele>
        <time>2024-07-26T07:23:43.000Z</time>
      </trkpt>
      <trkpt lat="44.4607" lon="6.24946">
        <ele>716</ele>
        <time>2024-07-26T07:23:49.000Z</time>
      </trkpt>
      <trkpt lat="44.46076" lon="6.24965">
        <ele>716</ele>
        <time>2024-07-26T07:23:55.000Z</time>
      </trkpt>
      <trkpt lat="44.4608" lon="6.24987">
        <ele>715</ele>
        <time>2024-07-26T07:24:01.000Z</time>
      </trkpt>
      <trkpt lat="44.46082" lon="6.25004">
        <ele>708</ele>
        <time>2024-07-26T07:24:07.000Z</time>
      </trkpt>
      <trkpt lat="44.46087" lon="6.25015">
        <ele>702</ele>
        <time>2024-07-26T07:24:13.000Z</time>
      </trkpt>
      <trkpt lat="44.46098" lon="6.2503">
        <ele>694</ele>
        <time>2024-07-26T07:24:19.000Z</time>
      </trkpt>
      <trkpt lat="44.46097" lon="6.25054">
        <ele>719</ele>
        <time>2024-07-26T07:24:26.000Z</time>
      </trkpt>
      <trkpt lat="44.46102" lon="6.25071">
        <ele>696</ele>
        <time>2024-07-26T07:24:31.000Z</time>
      </trkpt>
      <trkpt lat="44.46107" lon="6.25097">
        <ele>719</ele>
        <time>2024-07-26T07:24:38.000Z</time>
      </trkpt>
      <trkpt lat="44.46112" lon="6.25134">
        <ele>718</ele>
        <time>2024-07-26T07:24:44.000Z</time>
      </trkpt>
      <trkpt lat="44.4612" lon="6.25164">
        <ele>705</ele>
        <time>2024-07-26T07:24:49.000Z</time>
      </trkpt>
      <trkpt lat="44.4613" lon="6.25196">
        <ele>707</ele>
        <time>2024-07-26T07:24:55.000Z</time>
      </trkpt>
      <trkpt lat="44.46129" lon="6.25209">
        <ele>711</ele>
        <time>2024-07-26T07:25:01.000Z</time>
      </trkpt>
      <trkpt lat="44.46128" lon="6.25225">
        <ele>710</ele>
        <time>2024-07-26T07:25:07.000Z</time>
      </trkpt>
      <trkpt lat="44.4612" lon="6.25248">
        <ele>716</ele>
        <time>2024-07-26T07:25:14.000Z</time>
      </trkpt>
      <trkpt lat="44.46121" lon="6.25268">
        <ele>713</ele>
        <time>2024-07-26T07:25:19.000Z</time>
      </trkpt>
      <trkpt lat="44.46122" lon="6.25285">
        <ele>712</ele>
        <time>2024-07-26T07:25:25.000Z</time>
      </trkpt>
      <trkpt lat="44.46126" lon="6.25308">
        <ele>718</ele>
        <time>2024-07-26T07:25:32.000Z</time>
      </trkpt>
      <trkpt lat="44.46133" lon="6.25331">
        <ele>715</ele>
        <time>2024-07-26T07:25:38.000Z</time>
      </trkpt>
      <trkpt lat="44.46155" lon="6.25358">
        <ele>712</ele>
        <time>2024-07-26T07:25:43.000Z</time>
      </trkpt>
      <trkpt lat="44.46166" lon="6.25381">
        <ele>715</ele>
        <time>2024-07-26T07:25:50.000Z</time>
      </trkpt>
      <trkpt lat="44.46175" lon="6.25396">
        <ele>712</ele>
        <time>2024-07-26T07:25:55.000Z</time>
      </trkpt>
      <trkpt lat="44.46183" lon="6.25412">
        <ele>710</ele>
        <time>2024-07-26T07:26:01.000Z</time>
      </trkpt>
      <trkpt lat="44.4619" lon="6.25426">
        <ele>709</ele>
        <time>2024-07-26T07:26:07.000Z</time>
      </trkpt>
      <trkpt lat="44.46195" lon="6.25444">
        <ele>712</ele>
        <time>2024-07-26T07:26:13.000Z</time>
      </trkpt>
      <trkpt lat="44.46202" lon="6.25466">
        <ele>709</ele>
        <time>2024-07-26T07:26:19.000Z</time>
      </trkpt>
      <trkpt lat="44.46204" lon="6.25486">
        <ele>709</ele>
        <time>2024-07-26T07:26:25.000Z</time>
      </trkpt>
      <trkpt lat="44.46208" lon="6.25502">
        <ele>704</ele>
        <time>2024-07-26T07:26:32.000Z</time>
      </trkpt>
      <trkpt lat="44.46218" lon="6.25518">
        <ele>717</ele>
        <time>2024-07-26T07:26:38.000Z</time>
      </trkpt>
      <trkpt lat="44.46226" lon="6.25537">
        <ele>716</ele>
        <time>2024-07-26T07:26:43.000Z</time>
      </trkpt>
      <trkpt lat="44.46228" lon="6.25547">
        <ele>715</ele>
        <time>2024-07-26T07:26:49.000Z</time>
      </trkpt>
      <trkpt lat="44.46235" lon="6.25569">
        <ele>713</ele>
        <time>2024-07-26T07:26:57.000Z</time>
      </trkpt>
      <trkpt lat="44.46239" lon="6.25574">
        <ele>714</ele>
        <time>2024-07-26T07:27:00.000Z</time>
      </trkpt>
      <trkpt lat="44.46251" lon="6.25606">
        <ele>716</ele>
        <time>2024-07-26T07:27:07.000Z</time>
      </trkpt>
      <trkpt lat="44.46263" lon="6.25622">
        <ele>716</ele>
        <time>2024-07-26T07:27:13.000Z</time>
      </trkpt>
      <trkpt lat="44.46263" lon="6.25638">
        <ele>716</ele>
        <time>2024-07-26T07:27:19.000Z</time>
      </trkpt>
      <trkpt lat="44.46266" lon="6.25652">
        <ele>712</ele>
        <time>2024-07-26T07:27:25.000Z</time>
      </trkpt>
      <trkpt lat="44.4627" lon="6.25673">
        <ele>716</ele>
        <time>2024-07-26T07:27:31.000Z</time>
      </trkpt>
      <trkpt lat="44.46279" lon="6.25701">
        <ele>710</ele>
        <time>2024-07-26T07:27:37.000Z</time>
      </trkpt>
      <trkpt lat="44.46296" lon="6.25736">
        <ele>716</ele>
        <time>2024-07-26T07:27:48.000Z</time>
      </trkpt>
      <trkpt lat="44.46318" lon="6.25778">
        <ele>700</ele>
        <time>2024-07-26T07:27:55.000Z</time>
      </trkpt>
      <trkpt lat="44.46332" lon="6.25806">
        <ele>722</ele>
        <time>2024-07-26T07:28:02.000Z</time>
      </trkpt>
      <trkpt lat="44.46339" lon="6.25824">
        <ele>706</ele>
        <time>2024-07-26T07:28:07.000Z</time>
      </trkpt>
      <trkpt lat="44.46344" lon="6.25842">
        <ele>707</ele>
        <time>2024-07-26T07:28:13.000Z</time>
      </trkpt>
      <trkpt lat="44.46348" lon="6.25862">
        <ele>726</ele>
        <time>2024-07-26T07:28:20.000Z</time>
      </trkpt>
      <trkpt lat="44.46352" lon="6.25875">
        <ele>705</ele>
        <time>2024-07-26T07:28:25.000Z</time>
      </trkpt>
      <trkpt lat="44.46352" lon="6.25886">
        <ele>723</ele>
        <time>2024-07-26T07:28:32.000Z</time>
      </trkpt>
      <trkpt lat="44.46359" lon="6.25923">
        <ele>714</ele>
        <time>2024-07-26T07:28:37.000Z</time>
      </trkpt>
      <trkpt lat="44.46365" lon="6.25938">
        <ele>708</ele>
        <time>2024-07-26T07:28:43.000Z</time>
      </trkpt>
      <trkpt lat="44.46359" lon="6.25951">
        <ele>704</ele>
        <time>2024-07-26T07:28:49.000Z</time>
      </trkpt>
      <trkpt lat="44.46359" lon="6.25972">
        <ele>702</ele>
        <time>2024-07-26T07:28:55.000Z</time>
      </trkpt>
      <trkpt lat="44.46373" lon="6.25986">
        <ele>703</ele>
        <time>2024-07-26T07:29:01.000Z</time>
      </trkpt>
      <trkpt lat="44.4638" lon="6.26024">
        <ele>714</ele>
        <time>2024-07-26T07:29:07.000Z</time>
      </trkpt>
      <trkpt lat="44.46387" lon="6.26028">
        <ele>718</ele>
        <time>2024-07-26T07:29:13.000Z</time>
      </trkpt>
      <trkpt lat="44.46397" lon="6.26034">
        <ele>721</ele>
        <time>2024-07-26T07:29:19.000Z</time>
      </trkpt>
      <trkpt lat="44.46403" lon="6.26051">
        <ele>728</ele>
        <time>2024-07-26T07:29:25.000Z</time>
      </trkpt>
      <trkpt lat="44.46402" lon="6.26064">
        <ele>725</ele>
        <time>2024-07-26T07:29:31.000Z</time>
      </trkpt>
      <trkpt lat="44.46398" lon="6.26076">
        <ele>729</ele>
        <time>2024-07-26T07:29:37.000Z</time>
      </trkpt>
      <trkpt lat="44.46397" lon="6.2609">
        <ele>730</ele>
        <time>2024-07-26T07:29:43.000Z</time>
      </trkpt>
      <trkpt lat="44.46397" lon="6.26102">
        <ele>730</ele>
        <time>2024-07-26T07:29:49.000Z</time>
      </trkpt>
      <trkpt lat="44.46402" lon="6.26118">
        <ele>731</ele>
        <time>2024-07-26T07:29:55.000Z</time>
      </trkpt>
      <trkpt lat="44.46408" lon="6.26134">
        <ele>738</ele>
        <time>2024-07-26T07:30:01.000Z</time>
      </trkpt>
      <trkpt lat="44.46412" lon="6.26152">
        <ele>734</ele>
        <time>2024-07-26T07:30:07.000Z</time>
      </trkpt>
      <trkpt lat="44.46411" lon="6.26164">
        <ele>735</ele>
        <time>2024-07-26T07:30:13.000Z</time>
      </trkpt>
      <trkpt lat="44.46405" lon="6.26169">
        <ele>737</ele>
        <time>2024-07-26T07:30:19.000Z</time>
      </trkpt>
      <trkpt lat="44.46401" lon="6.26174">
        <ele>737</ele>
        <time>2024-07-26T07:30:25.000Z</time>
      </trkpt>
      <trkpt lat="44.46403" lon="6.26182">
        <ele>740</ele>
        <time>2024-07-26T07:30:31.000Z</time>
      </trkpt>
      <trkpt lat="44.46404" lon="6.26202">
        <ele>756</ele>
        <time>2024-07-26T07:30:38.000Z</time>
      </trkpt>
      <trkpt lat="44.46407" lon="6.26217">
        <ele>752</ele>
        <time>2024-07-26T07:30:43.000Z</time>
      </trkpt>
      <trkpt lat="44.46409" lon="6.26232">
        <ele>752</ele>
        <time>2024-07-26T07:30:49.000Z</time>
      </trkpt>
      <trkpt lat="44.46409" lon="6.26248">
        <ele>750</ele>
        <time>2024-07-26T07:30:55.000Z</time>
      </trkpt>
      <trkpt lat="44.46405" lon="6.26257">
        <ele>750</ele>
        <time>2024-07-26T07:31:01.000Z</time>
      </trkpt>
      <trkpt lat="44.46394" lon="6.26258">
        <ele>749</ele>
        <time>2024-07-26T07:31:07.000Z</time>
      </trkpt>
      <trkpt lat="44.46388" lon="6.2626">
        <ele>751</ele>
        <time>2024-07-26T07:31:13.000Z</time>
      </trkpt>
      <trkpt lat="44.46385" lon="6.26257">
        <ele>758</ele>
        <time>2024-07-26T07:31:19.000Z</time>
      </trkpt>
      <trkpt lat="44.46382" lon="6.26255">
        <ele>768</ele>
        <time>2024-07-26T07:31:25.000Z</time>
      </trkpt>
      <trkpt lat="44.46376" lon="6.26254">
        <ele>770</ele>
        <time>2024-07-26T07:31:31.000Z</time>
      </trkpt>
      <trkpt lat="44.46373" lon="6.26249">
        <ele>768</ele>
        <time>2024-07-26T07:31:37.000Z</time>
      </trkpt>
      <trkpt lat="44.46371" lon="6.26245">
        <ele>762</ele>
        <time>2024-07-26T07:31:43.000Z</time>
      </trkpt>
      <trkpt lat="44.46367" lon="6.26238">
        <ele>757</ele>
        <time>2024-07-26T07:31:49.000Z</time>
      </trkpt>
      <trkpt lat="44.4636" lon="6.26227">
        <ele>750</ele>
        <time>2024-07-26T07:31:55.000Z</time>
      </trkpt>
      <trkpt lat="44.46352" lon="6.26217">
        <ele>754</ele>
        <time>2024-07-26T07:32:01.000Z</time>
      </trkpt>
      <trkpt lat="44.46347" lon="6.26205">
        <ele>761</ele>
        <time>2024-07-26T07:32:07.000Z</time>
      </trkpt>
      <trkpt lat="44.46343" lon="6.26194">
        <ele>755</ele>
        <time>2024-07-26T07:32:13.000Z</time>
      </trkpt>
      <trkpt lat="44.46338" lon="6.26186">
        <ele>756</ele>
        <time>2024-07-26T07:32:19.000Z</time>
      </trkpt>
      <trkpt lat="44.46333" lon="6.26172">
        <ele>760</ele>
        <time>2024-07-26T07:32:25.000Z</time>
      </trkpt>
      <trkpt lat="44.46324" lon="6.26169">
        <ele>766</ele>
        <time>2024-07-26T07:32:31.000Z</time>
      </trkpt>
      <trkpt lat="44.46318" lon="6.26175">
        <ele>772</ele>
        <time>2024-07-26T07:32:37.000Z</time>
      </trkpt>
      <trkpt lat="44.46313" lon="6.26182">
        <ele>775</ele>
        <time>2024-07-26T07:32:43.000Z</time>
      </trkpt>
      <trkpt lat="44.46309" lon="6.2619">
        <ele>775</ele>
        <time>2024-07-26T07:32:49.000Z</time>
      </trkpt>
      <trkpt lat="44.46306" lon="6.26198">
        <ele>775</ele>
        <time>2024-07-26T07:32:55.000Z</time>
      </trkpt>
      <trkpt lat="44.46304" lon="6.26211">
        <ele>774</ele>
        <time>2024-07-26T07:33:01.000Z</time>
      </trkpt>
      <trkpt lat="44.46302" lon="6.26224">
        <ele>776</ele>
        <time>2024-07-26T07:33:07.000Z</time>
      </trkpt>
      <trkpt lat="44.463" lon="6.26237">
        <ele>777</ele>
        <time>2024-07-26T07:33:13.000Z</time>
      </trkpt>
      <trkpt lat="44.46302" lon="6.26251">
        <ele>777</ele>
        <time>2024-07-26T07:33:19.000Z</time>
      </trkpt>
      <trkpt lat="44.46307" lon="6.26262">
        <ele>777</ele>
        <time>2024-07-26T07:33:25.000Z</time>
      </trkpt>
      <trkpt lat="44.46308" lon="6.26273">
        <ele>779</ele>
        <time>2024-07-26T07:33:31.000Z</time>
      </trkpt>
      <trkpt lat="44.46308" lon="6.26282">
        <ele>777</ele>
        <time>2024-07-26T07:33:37.000Z</time>
      </trkpt>
      <trkpt lat="44.46305" lon="6.26292">
        <ele>776</ele>
        <time>2024-07-26T07:33:43.000Z</time>
      </trkpt>
      <trkpt lat="44.46299" lon="6.26302">
        <ele>775</ele>
        <time>2024-07-26T07:33:49.000Z</time>
      </trkpt>
      <trkpt lat="44.46298" lon="6.26313">
        <ele>777</ele>
        <time>2024-07-26T07:33:55.000Z</time>
      </trkpt>
      <trkpt lat="44.46297" lon="6.26324">
        <ele>784</ele>
        <time>2024-07-26T07:34:01.000Z</time>
      </trkpt>
      <trkpt lat="44.46291" lon="6.26335">
        <ele>786</ele>
        <time>2024-07-26T07:34:07.000Z</time>
      </trkpt>
      <trkpt lat="44.4629" lon="6.26346">
        <ele>781</ele>
        <time>2024-07-26T07:34:13.000Z</time>
      </trkpt>
      <trkpt lat="44.46291" lon="6.26362">
        <ele>778</ele>
        <time>2024-07-26T07:34:19.000Z</time>
      </trkpt>
      <trkpt lat="44.46297" lon="6.26376">
        <ele>790</ele>
        <time>2024-07-26T07:34:25.000Z</time>
      </trkpt>
      <trkpt lat="44.463" lon="6.26388">
        <ele>787</ele>
        <time>2024-07-26T07:34:31.000Z</time>
      </trkpt>
      <trkpt lat="44.46301" lon="6.26402">
        <ele>792</ele>
        <time>2024-07-26T07:34:37.000Z</time>
      </trkpt>
      <trkpt lat="44.46303" lon="6.26415">
        <ele>805</ele>
        <time>2024-07-26T07:34:44.000Z</time>
      </trkpt>
      <trkpt lat="44.46304" lon="6.26425">
        <ele>810</ele>
        <time>2024-07-26T07:34:50.000Z</time>
      </trkpt>
      <trkpt lat="44.46307" lon="6.26448">
        <ele>805</ele>
        <time>2024-07-26T07:34:56.000Z</time>
      </trkpt>
      <trkpt lat="44.46315" lon="6.26459">
        <ele>801</ele>
        <time>2024-07-26T07:35:01.000Z</time>
      </trkpt>
      <trkpt lat="44.46323" lon="6.26466">
        <ele>805</ele>
        <time>2024-07-26T07:35:07.000Z</time>
      </trkpt>
      <trkpt lat="44.46318" lon="6.26476">
        <ele>799</ele>
        <time>2024-07-26T07:35:13.000Z</time>
      </trkpt>
      <trkpt lat="44.46312" lon="6.26486">
        <ele>809</ele>
        <time>2024-07-26T07:35:19.000Z</time>
      </trkpt>
      <trkpt lat="44.46307" lon="6.26499">
        <ele>805</ele>
        <time>2024-07-26T07:35:25.000Z</time>
      </trkpt>
      <trkpt lat="44.46304" lon="6.26512">
        <ele>808</ele>
        <time>2024-07-26T07:35:31.000Z</time>
      </trkpt>
      <trkpt lat="44.46303" lon="6.26523">
        <ele>808</ele>
        <time>2024-07-26T07:35:37.000Z</time>
      </trkpt>
      <trkpt lat="44.46305" lon="6.26542">
        <ele>816</ele>
        <time>2024-07-26T07:35:44.000Z</time>
      </trkpt>
      <trkpt lat="44.46306" lon="6.26558">
        <ele>811</ele>
        <time>2024-07-26T07:35:49.000Z</time>
      </trkpt>
      <trkpt lat="44.46307" lon="6.2657">
        <ele>808</ele>
        <time>2024-07-26T07:35:55.000Z</time>
      </trkpt>
      <trkpt lat="44.46312" lon="6.26586">
        <ele>816</ele>
        <time>2024-07-26T07:36:01.000Z</time>
      </trkpt>
      <trkpt lat="44.46318" lon="6.26602">
        <ele>820</ele>
        <time>2024-07-26T07:36:07.000Z</time>
      </trkpt>
      <trkpt lat="44.46323" lon="6.26621">
        <ele>817</ele>
        <time>2024-07-26T07:36:13.000Z</time>
      </trkpt>
      <trkpt lat="44.46324" lon="6.26639">
        <ele>812</ele>
        <time>2024-07-26T07:36:19.000Z</time>
      </trkpt>
      <trkpt lat="44.46323" lon="6.26656">
        <ele>812</ele>
        <time>2024-07-26T07:36:25.000Z</time>
      </trkpt>
      <trkpt lat="44.46323" lon="6.26672">
        <ele>820</ele>
        <time>2024-07-26T07:36:31.000Z</time>
      </trkpt>
      <trkpt lat="44.46328" lon="6.26682">
        <ele>820</ele>
        <time>2024-07-26T07:36:37.000Z</time>
      </trkpt>
      <trkpt lat="44.46338" lon="6.26695">
        <ele>817</ele>
        <time>2024-07-26T07:36:43.000Z</time>
      </trkpt>
      <trkpt lat="44.46342" lon="6.26707">
        <ele>822</ele>
        <time>2024-07-26T07:36:49.000Z</time>
      </trkpt>
      <trkpt lat="44.4635" lon="6.2672">
        <ele>824</ele>
        <time>2024-07-26T07:36:55.000Z</time>
      </trkpt>
      <trkpt lat="44.46356" lon="6.26736">
        <ele>827</ele>
        <time>2024-07-26T07:37:01.000Z</time>
      </trkpt>
      <trkpt lat="44.46363" lon="6.26751">
        <ele>825</ele>
        <time>2024-07-26T07:37:07.000Z</time>
      </trkpt>
      <trkpt lat="44.46369" lon="6.26765">
        <ele>829</ele>
        <time>2024-07-26T07:37:13.000Z</time>
      </trkpt>
      <trkpt lat="44.46371" lon="6.26781">
        <ele>836</ele>
        <time>2024-07-26T07:37:19.000Z</time>
      </trkpt>
      <trkpt lat="44.46371" lon="6.26791">
        <ele>839</ele>
        <time>2024-07-26T07:37:25.000Z</time>
      </trkpt>
      <trkpt lat="44.46369" lon="6.268">
        <ele>837</ele>
        <time>2024-07-26T07:37:31.000Z</time>
      </trkpt>
      <trkpt lat="44.46367" lon="6.26815">
        <ele>833</ele>
        <time>2024-07-26T07:37:38.000Z</time>
      </trkpt>
      <trkpt lat="44.46373" lon="6.26827">
        <ele>937</ele>
        <time>2024-07-26T07:37:43.000Z</time>
      </trkpt>
      <trkpt lat="44.46378" lon="6.2684">
        <ele>839</ele>
        <time>2024-07-26T07:37:49.000Z</time>
      </trkpt>
      <trkpt lat="44.46379" lon="6.26855">
        <ele>937</ele>
        <time>2024-07-26T07:37:55.000Z</time>
      </trkpt>
      <trkpt lat="44.46377" lon="6.26866">
        <ele>937</ele>
        <time>2024-07-26T07:38:01.000Z</time>
      </trkpt>
      <trkpt lat="44.4638" lon="6.26879">
        <ele>933</ele>
        <time>2024-07-26T07:38:07.000Z</time>
      </trkpt>
      <trkpt lat="44.46381" lon="6.2689">
        <ele>841</ele>
        <time>2024-07-26T07:38:13.000Z</time>
      </trkpt>
      <trkpt lat="44.46377" lon="6.26899">
        <ele>933</ele>
        <time>2024-07-26T07:38:19.000Z</time>
      </trkpt>
      <trkpt lat="44.46371" lon="6.26907">
        <ele>933</ele>
        <time>2024-07-26T07:38:25.000Z</time>
      </trkpt>
      <trkpt lat="44.46362" lon="6.26913">
        <ele>933</ele>
        <time>2024-07-26T07:38:31.000Z</time>
      </trkpt>
      <trkpt lat="44.46355" lon="6.2692">
        <ele>933</ele>
        <time>2024-07-26T07:38:37.000Z</time>
      </trkpt>
      <trkpt lat="44.46346" lon="6.26929">
        <ele>933</ele>
        <time>2024-07-26T07:38:43.000Z</time>
      </trkpt>
      <trkpt lat="44.46337" lon="6.26931">
        <ele>933</ele>
        <time>2024-07-26T07:38:49.000Z</time>
      </trkpt>
      <trkpt lat="44.46322" lon="6.26926">
        <ele>933</ele>
        <time>2024-07-26T07:38:55.000Z</time>
      </trkpt>
      <trkpt lat="44.46309" lon="6.26925">
        <ele>933</ele>
        <time>2024-07-26T07:39:01.000Z</time>
      </trkpt>
      <trkpt lat="44.46297" lon="6.26922">
        <ele>933</ele>
        <time>2024-07-26T07:39:07.000Z</time>
      </trkpt>
      <trkpt lat="44.46286" lon="6.26922">
        <ele>933</ele>
        <time>2024-07-26T07:39:13.000Z</time>
      </trkpt>
      <trkpt lat="44.46275" lon="6.26924">
        <ele>933</ele>
        <time>2024-07-26T07:39:19.000Z</time>
      </trkpt>
      <trkpt lat="44.46262" lon="6.26929">
        <ele>933</ele>
        <time>2024-07-26T07:39:25.000Z</time>
      </trkpt>
      <trkpt lat="44.4625" lon="6.26941">
        <ele>933</ele>
        <time>2024-07-26T07:39:31.000Z</time>
      </trkpt>
      <trkpt lat="44.46238" lon="6.26958">
        <ele>933</ele>
        <time>2024-07-26T07:39:37.000Z</time>
      </trkpt>
      <trkpt lat="44.46229" lon="6.26977">
        <ele>933</ele>
        <time>2024-07-26T07:39:43.000Z</time>
      </trkpt>
      <trkpt lat="44.46223" lon="6.26997">
        <ele>933</ele>
        <time>2024-07-26T07:39:49.000Z</time>
      </trkpt>
      <trkpt lat="44.46219" lon="6.27021">
        <ele>933</ele>
        <time>2024-07-26T07:39:55.000Z</time>
      </trkpt>
      <trkpt lat="44.46216" lon="6.2705">
        <ele>933</ele>
        <time>2024-07-26T07:40:01.000Z</time>
      </trkpt>
      <trkpt lat="44.46216" lon="6.2707">
        <ele>874</ele>
        <time>2024-07-26T07:40:07.000Z</time>
      </trkpt>
      <trkpt lat="44.46216" lon="6.27088">
        <ele>876</ele>
        <time>2024-07-26T07:40:13.000Z</time>
      </trkpt>
      <trkpt lat="44.46216" lon="6.27109">
        <ele>878</ele>
        <time>2024-07-26T07:40:19.000Z</time>
      </trkpt>
      <trkpt lat="44.46217" lon="6.2713">
        <ele>880</ele>
        <time>2024-07-26T07:40:25.000Z</time>
      </trkpt>
      <trkpt lat="44.46219" lon="6.27152">
        <ele>881</ele>
        <time>2024-07-26T07:40:31.000Z</time>
      </trkpt>
      <trkpt lat="44.46221" lon="6.27171">
        <ele>885</ele>
        <time>2024-07-26T07:40:37.000Z</time>
      </trkpt>
      <trkpt lat="44.46222" lon="6.27187">
        <ele>862</ele>
        <time>2024-07-26T07:40:43.000Z</time>
      </trkpt>
      <trkpt lat="44.4622" lon="6.27205">
        <ele>863</ele>
        <time>2024-07-26T07:40:49.000Z</time>
      </trkpt>
      <trkpt lat="44.46219" lon="6.27223">
        <ele>862</ele>
        <time>2024-07-26T07:40:55.000Z</time>
      </trkpt>
      <trkpt lat="44.46213" lon="6.27239">
        <ele>863</ele>
        <time>2024-07-26T07:41:01.000Z</time>
      </trkpt>
      <trkpt lat="44.46209" lon="6.27256">
        <ele>864</ele>
        <time>2024-07-26T07:41:07.000Z</time>
      </trkpt>
      <trkpt lat="44.46203" lon="6.27271">
        <ele>865</ele>
        <time>2024-07-26T07:41:13.000Z</time>
      </trkpt>
      <trkpt lat="44.46194" lon="6.27283">
        <ele>867</ele>
        <time>2024-07-26T07:41:19.000Z</time>
      </trkpt>
      <trkpt lat="44.46186" lon="6.27295">
        <ele>867</ele>
        <time>2024-07-26T07:41:25.000Z</time>
      </trkpt>
      <trkpt lat="44.46178" lon="6.2731">
        <ele>865</ele>
        <time>2024-07-26T07:41:31.000Z</time>
      </trkpt>
      <trkpt lat="44.46174" lon="6.27327">
        <ele>868</ele>
        <time>2024-07-26T07:41:37.000Z</time>
      </trkpt>
      <trkpt lat="44.4617" lon="6.27345">
        <ele>866</ele>
        <time>2024-07-26T07:41:43.000Z</time>
      </trkpt>
      <trkpt lat="44.46166" lon="6.27358">
        <ele>869</ele>
        <time>2024-07-26T07:41:49.000Z</time>
      </trkpt>
      <trkpt lat="44.46164" lon="6.27374">
        <ele>868</ele>
        <time>2024-07-26T07:41:55.000Z</time>
      </trkpt>
      <trkpt lat="44.46167" lon="6.27399">
        <ele>867</ele>
        <time>2024-07-26T07:42:01.000Z</time>
      </trkpt>
      <trkpt lat="44.4617" lon="6.27429">
        <ele>876</ele>
        <time>2024-07-26T07:42:07.000Z</time>
      </trkpt>
      <trkpt lat="44.46174" lon="6.27462">
        <ele>882</ele>
        <time>2024-07-26T07:42:13.000Z</time>
      </trkpt>
      <trkpt lat="44.46177" lon="6.2749">
        <ele>884</ele>
        <time>2024-07-26T07:42:19.000Z</time>
      </trkpt>
      <trkpt lat="44.46181" lon="6.2752">
        <ele>882</ele>
        <time>2024-07-26T07:42:26.000Z</time>
      </trkpt>
      <trkpt lat="44.46184" lon="6.2754">
        <ele>886</ele>
        <time>2024-07-26T07:42:31.000Z</time>
      </trkpt>
      <trkpt lat="44.46188" lon="6.27565">
        <ele>887</ele>
        <time>2024-07-26T07:42:37.000Z</time>
      </trkpt>
      <trkpt lat="44.46191" lon="6.27591">
        <ele>888</ele>
        <time>2024-07-26T07:42:43.000Z</time>
      </trkpt>
      <trkpt lat="44.46194" lon="6.27618">
        <ele>886</ele>
        <time>2024-07-26T07:42:49.000Z</time>
      </trkpt>
      <trkpt lat="44.46197" lon="6.27642">
        <ele>887</ele>
        <time>2024-07-26T07:42:55.000Z</time>
      </trkpt>
      <trkpt lat="44.46201" lon="6.27667">
        <ele>887</ele>
        <time>2024-07-26T07:43:01.000Z</time>
      </trkpt>
      <trkpt lat="44.46203" lon="6.27689">
        <ele>873</ele>
        <time>2024-07-26T07:43:07.000Z</time>
      </trkpt>
      <trkpt lat="44.46208" lon="6.27716">
        <ele>887</ele>
        <time>2024-07-26T07:43:13.000Z</time>
      </trkpt>
      <trkpt lat="44.46213" lon="6.27743">
        <ele>891</ele>
        <time>2024-07-26T07:43:19.000Z</time>
      </trkpt>
      <trkpt lat="44.46216" lon="6.27765">
        <ele>890</ele>
        <time>2024-07-26T07:43:25.000Z</time>
      </trkpt>
      <trkpt lat="44.46218" lon="6.27786">
        <ele>892</ele>
        <time>2024-07-26T07:43:31.000Z</time>
      </trkpt>
      <trkpt lat="44.46219" lon="6.27808">
        <ele>895</ele>
        <time>2024-07-26T07:43:37.000Z</time>
      </trkpt>
      <trkpt lat="44.46223" lon="6.27828">
        <ele>892</ele>
        <time>2024-07-26T07:43:43.000Z</time>
      </trkpt>
      <trkpt lat="44.46229" lon="6.27849">
        <ele>894</ele>
        <time>2024-07-26T07:43:49.000Z</time>
      </trkpt>
      <trkpt lat="44.46236" lon="6.27868">
        <ele>894</ele>
        <time>2024-07-26T07:43:55.000Z</time>
      </trkpt>
      <trkpt lat="44.46242" lon="6.27888">
        <ele>893</ele>
        <time>2024-07-26T07:44:01.000Z</time>
      </trkpt>
      <trkpt lat="44.46247" lon="6.2791">
        <ele>899</ele>
        <time>2024-07-26T07:44:07.000Z</time>
      </trkpt>
      <trkpt lat="44.46255" lon="6.2793">
        <ele>892</ele>
        <time>2024-07-26T07:44:13.000Z</time>
      </trkpt>
      <trkpt lat="44.46262" lon="6.27949">
        <ele>892</ele>
        <time>2024-07-26T07:44:19.000Z</time>
      </trkpt>
      <trkpt lat="44.46268" lon="6.27968">
        <ele>892</ele>
        <time>2024-07-26T07:44:25.000Z</time>
      </trkpt>
      <trkpt lat="44.46273" lon="6.27986">
        <ele>896</ele>
        <time>2024-07-26T07:44:31.000Z</time>
      </trkpt>
      <trkpt lat="44.4628" lon="6.28001">
        <ele>894</ele>
        <time>2024-07-26T07:44:37.000Z</time>
      </trkpt>
      <trkpt lat="44.46288" lon="6.28019">
        <ele>896</ele>
        <time>2024-07-26T07:44:43.000Z</time>
      </trkpt>
      <trkpt lat="44.46297" lon="6.28044">
        <ele>898</ele>
        <time>2024-07-26T07:44:49.000Z</time>
      </trkpt>
      <trkpt lat="44.46305" lon="6.28068">
        <ele>898</ele>
        <time>2024-07-26T07:44:55.000Z</time>
      </trkpt>
      <trkpt lat="44.46312" lon="6.28092">
        <ele>901</ele>
        <time>2024-07-26T07:45:01.000Z</time>
      </trkpt>
      <trkpt lat="44.46318" lon="6.28114">
        <ele>899</ele>
        <time>2024-07-26T07:45:07.000Z</time>
      </trkpt>
      <trkpt lat="44.46325" lon="6.28134">
        <ele>899</ele>
        <time>2024-07-26T07:45:13.000Z</time>
      </trkpt>
      <trkpt lat="44.46332" lon="6.28153">
        <ele>902</ele>
        <time>2024-07-26T07:45:19.000Z</time>
      </trkpt>
      <trkpt lat="44.46339" lon="6.28171">
        <ele>904</ele>
        <time>2024-07-26T07:45:25.000Z</time>
      </trkpt>
      <trkpt lat="44.46342" lon="6.2819">
        <ele>905</ele>
        <time>2024-07-26T07:45:31.000Z</time>
      </trkpt>
      <trkpt lat="44.46343" lon="6.28213">
        <ele>901</ele>
        <time>2024-07-26T07:45:37.000Z</time>
      </trkpt>
      <trkpt lat="44.46351" lon="6.28235">
        <ele>905</ele>
        <time>2024-07-26T07:45:44.000Z</time>
      </trkpt>
      <trkpt lat="44.46358" lon="6.28248">
        <ele>903</ele>
        <time>2024-07-26T07:45:50.000Z</time>
      </trkpt>
      <trkpt lat="44.46364" lon="6.28263">
        <ele>908</ele>
        <time>2024-07-26T07:45:55.000Z</time>
      </trkpt>
      <trkpt lat="44.46369" lon="6.28282">
        <ele>909</ele>
        <time>2024-07-26T07:46:01.000Z</time>
      </trkpt>
      <trkpt lat="44.46376" lon="6.283">
        <ele>907</ele>
        <time>2024-07-26T07:46:07.000Z</time>
      </trkpt>
      <trkpt lat="44.46382" lon="6.28317">
        <ele>909</ele>
        <time>2024-07-26T07:46:13.000Z</time>
      </trkpt>
      <trkpt lat="44.46386" lon="6.28337">
        <ele>920</ele>
        <time>2024-07-26T07:46:19.000Z</time>
      </trkpt>
      <trkpt lat="44.46391" lon="6.28354">
        <ele>921</ele>
        <time>2024-07-26T07:46:25.000Z</time>
      </trkpt>
      <trkpt lat="44.46396" lon="6.28357">
        <ele>918</ele>
        <time>2024-07-26T07:46:31.000Z</time>
      </trkpt>
      <trkpt lat="44.46397" lon="6.28353">
        <ele>915</ele>
        <time>2024-07-26T07:46:37.000Z</time>
      </trkpt>
      <trkpt lat="44.46404" lon="6.2834">
        <ele>914</ele>
        <time>2024-07-26T07:46:43.000Z</time>
      </trkpt>
      <trkpt lat="44.46406" lon="6.28323">
        <ele>912</ele>
        <time>2024-07-26T07:46:49.000Z</time>
      </trkpt>
      <trkpt lat="44.46407" lon="6.28308">
        <ele>914</ele>
        <time>2024-07-26T07:46:55.000Z</time>
      </trkpt>
      <trkpt lat="44.4641" lon="6.28289">
        <ele>912</ele>
        <time>2024-07-26T07:47:01.000Z</time>
      </trkpt>
      <trkpt lat="44.46414" lon="6.28268">
        <ele>912</ele>
        <time>2024-07-26T07:47:07.000Z</time>
      </trkpt>
      <trkpt lat="44.46415" lon="6.28241">
        <ele>916</ele>
        <time>2024-07-26T07:47:13.000Z</time>
      </trkpt>
      <trkpt lat="44.46416" lon="6.28216">
        <ele>911</ele>
        <time>2024-07-26T07:47:19.000Z</time>
      </trkpt>
      <trkpt lat="44.46426" lon="6.28195">
        <ele>917</ele>
        <time>2024-07-26T07:47:25.000Z</time>
      </trkpt>
      <trkpt lat="44.4644" lon="6.28173">
        <ele>919</ele>
        <time>2024-07-26T07:47:31.000Z</time>
      </trkpt>
      <trkpt lat="44.46449" lon="6.2814">
        <ele>921</ele>
        <time>2024-07-26T07:47:37.000Z</time>
      </trkpt>
      <trkpt lat="44.46452" lon="6.28115">
        <ele>925</ele>
        <time>2024-07-26T07:47:43.000Z</time>
      </trkpt>
      <trkpt lat="44.46458" lon="6.28096">
        <ele>919</ele>
        <time>2024-07-26T07:47:49.000Z</time>
      </trkpt>
      <trkpt lat="44.46466" lon="6.28081">
        <ele>917</ele>
        <time>2024-07-26T07:47:55.000Z</time>
      </trkpt>
      <trkpt lat="44.46478" lon="6.28066">
        <ele>915</ele>
        <time>2024-07-26T07:48:01.000Z</time>
      </trkpt>
      <trkpt lat="44.46492" lon="6.28053">
        <ele>917</ele>
        <time>2024-07-26T07:48:07.000Z</time>
      </trkpt>
      <trkpt lat="44.46506" lon="6.28043">
        <ele>914</ele>
        <time>2024-07-26T07:48:13.000Z</time>
      </trkpt>
      <trkpt lat="44.46521" lon="6.28035">
        <ele>911</ele>
        <time>2024-07-26T07:48:19.000Z</time>
      </trkpt>
      <trkpt lat="44.46531" lon="6.28031">
        <ele>909</ele>
        <time>2024-07-26T07:48:25.000Z</time>
      </trkpt>
      <trkpt lat="44.46539" lon="6.28025">
        <ele>909</ele>
        <time>2024-07-26T07:48:31.000Z</time>
      </trkpt>
      <trkpt lat="44.46549" lon="6.28017">
        <ele>918</ele>
        <time>2024-07-26T07:48:37.000Z</time>
      </trkpt>
      <trkpt lat="44.46562" lon="6.28014">
        <ele>919</ele>
        <time>2024-07-26T07:48:43.000Z</time>
      </trkpt>
      <trkpt lat="44.46575" lon="6.28013">
        <ele>921</ele>
        <time>2024-07-26T07:48:49.000Z</time>
      </trkpt>
      <trkpt lat="44.46589" lon="6.28028">
        <ele>931</ele>
        <time>2024-07-26T07:48:56.000Z</time>
      </trkpt>
      <trkpt lat="44.46598" lon="6.28038">
        <ele>912</ele>
        <time>2024-07-26T07:49:01.000Z</time>
      </trkpt>
      <trkpt lat="44.46613" lon="6.28044">
        <ele>906</ele>
        <time>2024-07-26T07:49:07.000Z</time>
      </trkpt>
      <trkpt lat="44.46626" lon="6.28049">
        <ele>905</ele>
        <time>2024-07-26T07:49:13.000Z</time>
      </trkpt>
      <trkpt lat="44.46634" lon="6.28035">
        <ele>939</ele>
        <time>2024-07-26T07:49:20.000Z</time>
      </trkpt>
      <trkpt lat="44.46642" lon="6.28027">
        <ele>924</ele>
        <time>2024-07-26T07:49:25.000Z</time>
      </trkpt>
      <trkpt lat="44.4665" lon="6.28023">
        <ele>923</ele>
        <time>2024-07-26T07:49:31.000Z</time>
      </trkpt>
      <trkpt lat="44.46657" lon="6.28025">
        <ele>920</ele>
        <time>2024-07-26T07:49:37.000Z</time>
      </trkpt>
      <trkpt lat="44.46665" lon="6.28028">
        <ele>925</ele>
        <time>2024-07-26T07:49:43.000Z</time>
      </trkpt>
      <trkpt lat="44.46664" lon="6.28007">
        <ele>933</ele>
        <time>2024-07-26T07:49:49.000Z</time>
      </trkpt>
      <trkpt lat="44.46676" lon="6.27999">
        <ele>938</ele>
        <time>2024-07-26T07:49:55.000Z</time>
      </trkpt>
      <trkpt lat="44.46684" lon="6.28005">
        <ele>939</ele>
        <time>2024-07-26T07:50:01.000Z</time>
      </trkpt>
      <trkpt lat="44.46677" lon="6.28009">
        <ele>948</ele>
        <time>2024-07-26T07:50:07.000Z</time>
      </trkpt>
      <trkpt lat="44.46667" lon="6.2801">
        <ele>948</ele>
        <time>2024-07-26T07:50:13.000Z</time>
      </trkpt>
      <trkpt lat="44.46654" lon="6.28019">
        <ele>948</ele>
        <time>2024-07-26T07:50:19.000Z</time>
      </trkpt>
      <trkpt lat="44.46644" lon="6.28028">
        <ele>951</ele>
        <time>2024-07-26T07:50:25.000Z</time>
      </trkpt>
      <trkpt lat="44.46635" lon="6.2804">
        <ele>955</ele>
        <time>2024-07-26T07:50:31.000Z</time>
      </trkpt>
      <trkpt lat="44.46626" lon="6.28053">
        <ele>955</ele>
        <time>2024-07-26T07:50:37.000Z</time>
      </trkpt>
      <trkpt lat="44.46618" lon="6.28066">
        <ele>960</ele>
        <time>2024-07-26T07:50:43.000Z</time>
      </trkpt>
      <trkpt lat="44.46614" lon="6.28081">
        <ele>958</ele>
        <time>2024-07-26T07:50:49.000Z</time>
      </trkpt>
      <trkpt lat="44.46614" lon="6.28097">
        <ele>961</ele>
        <time>2024-07-26T07:50:55.000Z</time>
      </trkpt>
      <trkpt lat="44.46615" lon="6.28114">
        <ele>960</ele>
        <time>2024-07-26T07:51:01.000Z</time>
      </trkpt>
      <trkpt lat="44.46615" lon="6.2813">
        <ele>964</ele>
        <time>2024-07-26T07:51:07.000Z</time>
      </trkpt>
      <trkpt lat="44.46615" lon="6.28147">
        <ele>967</ele>
        <time>2024-07-26T07:51:13.000Z</time>
      </trkpt>
      <trkpt lat="44.46613" lon="6.28163">
        <ele>975</ele>
        <time>2024-07-26T07:51:19.000Z</time>
      </trkpt>
      <trkpt lat="44.4661" lon="6.28174">
        <ele>975</ele>
        <time>2024-07-26T07:51:25.000Z</time>
      </trkpt>
      <trkpt lat="44.46606" lon="6.28184">
        <ele>976</ele>
        <time>2024-07-26T07:51:31.000Z</time>
      </trkpt>
      <trkpt lat="44.46598" lon="6.28197">
        <ele>972</ele>
        <time>2024-07-26T07:51:37.000Z</time>
      </trkpt>
      <trkpt lat="44.46586" lon="6.28212">
        <ele>972</ele>
        <time>2024-07-26T07:51:43.000Z</time>
      </trkpt>
      <trkpt lat="44.46572" lon="6.28225">
        <ele>970</ele>
        <time>2024-07-26T07:51:49.000Z</time>
      </trkpt>
      <trkpt lat="44.46559" lon="6.28235">
        <ele>969</ele>
        <time>2024-07-26T07:51:55.000Z</time>
      </trkpt>
      <trkpt lat="44.46547" lon="6.28245">
        <ele>962</ele>
        <time>2024-07-26T07:52:01.000Z</time>
      </trkpt>
      <trkpt lat="44.46535" lon="6.28258">
        <ele>963</ele>
        <time>2024-07-26T07:52:07.000Z</time>
      </trkpt>
      <trkpt lat="44.46525" lon="6.28273">
        <ele>964</ele>
        <time>2024-07-26T07:52:13.000Z</time>
      </trkpt>
      <trkpt lat="44.46521" lon="6.28295">
        <ele>966</ele>
        <time>2024-07-26T07:52:19.000Z</time>
      </trkpt>
      <trkpt lat="44.46518" lon="6.28321">
        <ele>970</ele>
        <time>2024-07-26T07:52:25.000Z</time>
      </trkpt>
      <trkpt lat="44.46511" lon="6.28345">
        <ele>971</ele>
        <time>2024-07-26T07:52:31.000Z</time>
      </trkpt>
      <trkpt lat="44.46507" lon="6.2837">
        <ele>974</ele>
        <time>2024-07-26T07:52:37.000Z</time>
      </trkpt>
      <trkpt lat="44.46514" lon="6.28393">
        <ele>975</ele>
        <time>2024-07-26T07:52:43.000Z</time>
      </trkpt>
      <trkpt lat="44.46519" lon="6.2841">
        <ele>968</ele>
        <time>2024-07-26T07:52:49.000Z</time>
      </trkpt>
      <trkpt lat="44.4652" lon="6.2843">
        <ele>968</ele>
        <time>2024-07-26T07:52:55.000Z</time>
      </trkpt>
      <trkpt lat="44.46523" lon="6.28455">
        <ele>979</ele>
        <time>2024-07-26T07:53:01.000Z</time>
      </trkpt>
      <trkpt lat="44.46535" lon="6.28476">
        <ele>976</ele>
        <time>2024-07-26T07:53:07.000Z</time>
      </trkpt>
      <trkpt lat="44.46548" lon="6.28488">
        <ele>973</ele>
        <time>2024-07-26T07:53:13.000Z</time>
      </trkpt>
      <trkpt lat="44.46565" lon="6.28504">
        <ele>966</ele>
        <time>2024-07-26T07:53:19.000Z</time>
      </trkpt>
      <trkpt lat="44.46568" lon="6.28526">
        <ele>968</ele>
        <time>2024-07-26T07:53:25.000Z</time>
      </trkpt>
      <trkpt lat="44.4657" lon="6.28547">
        <ele>968</ele>
        <time>2024-07-26T07:53:31.000Z</time>
      </trkpt>
      <trkpt lat="44.46577" lon="6.28565">
        <ele>973</ele>
        <time>2024-07-26T07:53:37.000Z</time>
      </trkpt>
      <trkpt lat="44.46585" lon="6.28576">
        <ele>973</ele>
        <time>2024-07-26T07:53:43.000Z</time>
      </trkpt>
      <trkpt lat="44.46596" lon="6.28586">
        <ele>975</ele>
        <time>2024-07-26T07:53:49.000Z</time>
      </trkpt>
      <trkpt lat="44.46603" lon="6.28602">
        <ele>978</ele>
        <time>2024-07-26T07:53:55.000Z</time>
      </trkpt>
      <trkpt lat="44.46612" lon="6.28618">
        <ele>978</ele>
        <time>2024-07-26T07:54:01.000Z</time>
      </trkpt>
      <trkpt lat="44.46622" lon="6.28633">
        <ele>979</ele>
        <time>2024-07-26T07:54:07.000Z</time>
      </trkpt>
      <trkpt lat="44.46628" lon="6.28646">
        <ele>979</ele>
        <time>2024-07-26T07:54:13.000Z</time>
      </trkpt>
      <trkpt lat="44.46639" lon="6.28635">
        <ele>979</ele>
        <time>2024-07-26T07:54:19.000Z</time>
      </trkpt>
      <trkpt lat="44.46651" lon="6.28628">
        <ele>983</ele>
        <time>2024-07-26T07:54:25.000Z</time>
      </trkpt>
      <trkpt lat="44.46654" lon="6.28635">
        <ele>979</ele>
        <time>2024-07-26T07:54:31.000Z</time>
      </trkpt>
      <trkpt lat="44.46668" lon="6.28642">
        <ele>973</ele>
        <time>2024-07-26T07:54:37.000Z</time>
      </trkpt>
      <trkpt lat="44.4668" lon="6.28651">
        <ele>964</ele>
        <time>2024-07-26T07:54:43.000Z</time>
      </trkpt>
      <trkpt lat="44.4669" lon="6.2866">
        <ele>962</ele>
        <time>2024-07-26T07:54:49.000Z</time>
      </trkpt>
      <trkpt lat="44.467" lon="6.28664">
        <ele>964</ele>
        <time>2024-07-26T07:54:55.000Z</time>
      </trkpt>
      <trkpt lat="44.46708" lon="6.28673">
        <ele>967</ele>
        <time>2024-07-26T07:55:01.000Z</time>
      </trkpt>
      <trkpt lat="44.46716" lon="6.28679">
        <ele>964</ele>
        <time>2024-07-26T07:55:07.000Z</time>
      </trkpt>
      <trkpt lat="44.4672" lon="6.28685">
        <ele>965</ele>
        <time>2024-07-26T07:55:13.000Z</time>
      </trkpt>
      <trkpt lat="44.46724" lon="6.28692">
        <ele>964</ele>
        <time>2024-07-26T07:55:19.000Z</time>
      </trkpt>
      <trkpt lat="44.46749" lon="6.28682">
        <ele>961</ele>
        <time>2024-07-26T07:55:25.000Z</time>
      </trkpt>
      <trkpt lat="44.46759" lon="6.28674">
        <ele>963</ele>
        <time>2024-07-26T07:55:31.000Z</time>
      </trkpt>
      <trkpt lat="44.4677" lon="6.28667">
        <ele>961</ele>
        <time>2024-07-26T07:55:37.000Z</time>
      </trkpt>
      <trkpt lat="44.4678" lon="6.28659">
        <ele>969</ele>
        <time>2024-07-26T07:55:43.000Z</time>
      </trkpt>
      <trkpt lat="44.4679" lon="6.28662">
        <ele>968</ele>
        <time>2024-07-26T07:55:49.000Z</time>
      </trkpt>
      <trkpt lat="44.46796" lon="6.28678">
        <ele>965</ele>
        <time>2024-07-26T07:55:55.000Z</time>
      </trkpt>
      <trkpt lat="44.46803" lon="6.28694">
        <ele>961</ele>
        <time>2024-07-26T07:56:02.000Z</time>
      </trkpt>
      <trkpt lat="44.46809" lon="6.28709">
        <ele>963</ele>
        <time>2024-07-26T07:56:08.000Z</time>
      </trkpt>
      <trkpt lat="44.46815" lon="6.28724">
        <ele>960</ele>
        <time>2024-07-26T07:56:13.000Z</time>
      </trkpt>
      <trkpt lat="44.46827" lon="6.28734">
        <ele>966</ele>
        <time>2024-07-26T07:56:19.000Z</time>
      </trkpt>
      <trkpt lat="44.46834" lon="6.28735">
        <ele>964</ele>
        <time>2024-07-26T07:56:25.000Z</time>
      </trkpt>
      <trkpt lat="44.46841" lon="6.28735">
        <ele>969</ele>
        <time>2024-07-26T07:56:31.000Z</time>
      </trkpt>
      <trkpt lat="44.46848" lon="6.28742">
        <ele>971</ele>
        <time>2024-07-26T07:56:37.000Z</time>
      </trkpt>
      <trkpt lat="44.46855" lon="6.2875">
        <ele>972</ele>
        <time>2024-07-26T07:56:43.000Z</time>
      </trkpt>
      <trkpt lat="44.46865" lon="6.28754">
        <ele>978</ele>
        <time>2024-07-26T07:56:49.000Z</time>
      </trkpt>
      <trkpt lat="44.46868" lon="6.28753">
        <ele>980</ele>
        <time>2024-07-26T07:56:55.000Z</time>
      </trkpt>
      <trkpt lat="44.46866" lon="6.28752">
        <ele>981</ele>
        <time>2024-07-26T07:57:07.000Z</time>
      </trkpt>
      <trkpt lat="44.46869" lon="6.28752">
        <ele>979</ele>
        <time>2024-07-26T07:57:19.000Z</time>
      </trkpt>
      <trkpt lat="44.46871" lon="6.28751">
        <ele>979</ele>
        <time>2024-07-26T07:57:25.000Z</time>
      </trkpt>
      <trkpt lat="44.46875" lon="6.2875">
        <ele>982</ele>
        <time>2024-07-26T07:57:31.000Z</time>
      </trkpt>
      <trkpt lat="44.46873" lon="6.28749">
        <ele>984</ele>
        <time>2024-07-26T07:57:37.000Z</time>
      </trkpt>
      <trkpt lat="44.46871" lon="6.28748">
        <ele>979</ele>
        <time>2024-07-26T07:57:49.000Z</time>
      </trkpt>
      <trkpt lat="44.46867" lon="6.28749">
        <ele>937</ele>
        <time>2024-07-26T07:58:13.000Z</time>
      </trkpt>
      <trkpt lat="44.46862" lon="6.28748">
        <ele>937</ele>
        <time>2024-07-26T07:58:19.000Z</time>
      </trkpt>
      <trkpt lat="44.4686" lon="6.28746">
        <ele>979</ele>
        <time>2024-07-26T07:58:26.000Z</time>
      </trkpt>
      <trkpt lat="44.46862" lon="6.28748">
        <ele>979</ele>
        <time>2024-07-26T07:58:44.000Z</time>
      </trkpt>
      <trkpt lat="44.46863" lon="6.2875">
        <ele>934</ele>
        <time>2024-07-26T07:59:01.000Z</time>
      </trkpt>
      <trkpt lat="44.4687" lon="6.2875">
        <ele>934</ele>
        <time>2024-07-26T07:59:13.000Z</time>
      </trkpt>
      <trkpt lat="44.46882" lon="6.28752">
        <ele>934</ele>
        <time>2024-07-26T07:59:19.000Z</time>
      </trkpt>
      <trkpt lat="44.46892" lon="6.28755">
        <ele>934</ele>
        <time>2024-07-26T07:59:25.000Z</time>
      </trkpt>
      <trkpt lat="44.46903" lon="6.28757">
        <ele>934</ele>
        <time>2024-07-26T07:59:31.000Z</time>
      </trkpt>
      <trkpt lat="44.46914" lon="6.28755">
        <ele>990</ele>
        <time>2024-07-26T07:59:37.000Z</time>
      </trkpt>
      <trkpt lat="44.46924" lon="6.28752">
        <ele>988</ele>
        <time>2024-07-26T07:59:43.000Z</time>
      </trkpt>
      <trkpt lat="44.46932" lon="6.28757">
        <ele>990</ele>
        <time>2024-07-26T07:59:49.000Z</time>
      </trkpt>
      <trkpt lat="44.46937" lon="6.28771">
        <ele>988</ele>
        <time>2024-07-26T07:59:55.000Z</time>
      </trkpt>
      <trkpt lat="44.46952" lon="6.28762">
        <ele>934</ele>
        <time>2024-07-26T08:00:01.000Z</time>
      </trkpt>
      <trkpt lat="44.46977" lon="6.28741">
        <ele>934</ele>
        <time>2024-07-26T08:00:07.000Z</time>
      </trkpt>
      <trkpt lat="44.46989" lon="6.28746">
        <ele>934</ele>
        <time>2024-07-26T08:00:13.000Z</time>
      </trkpt>
      <trkpt lat="44.46992" lon="6.28754">
        <ele>994</ele>
        <time>2024-07-26T08:00:19.000Z</time>
      </trkpt>
      <trkpt lat="44.46997" lon="6.28768">
        <ele>988</ele>
        <time>2024-07-26T08:00:25.000Z</time>
      </trkpt>
      <trkpt lat="44.47015" lon="6.28779">
        <ele>977</ele>
        <time>2024-07-26T08:00:31.000Z</time>
      </trkpt>
      <trkpt lat="44.47024" lon="6.28798">
        <ele>968</ele>
        <time>2024-07-26T08:00:37.000Z</time>
      </trkpt>
      <trkpt lat="44.47033" lon="6.28823">
        <ele>968</ele>
        <time>2024-07-26T08:00:43.000Z</time>
      </trkpt>
      <trkpt lat="44.47065" lon="6.28825">
        <ele>957</ele>
        <time>2024-07-26T08:00:49.000Z</time>
      </trkpt>
      <trkpt lat="44.471" lon="6.28816">
        <ele>955</ele>
        <time>2024-07-26T08:00:55.000Z</time>
      </trkpt>
      <trkpt lat="44.47117" lon="6.28789">
        <ele>952</ele>
        <time>2024-07-26T08:01:01.000Z</time>
      </trkpt>
      <trkpt lat="44.47113" lon="6.28833">
        <ele>963</ele>
        <time>2024-07-26T08:01:07.000Z</time>
      </trkpt>
      <trkpt lat="44.47113" lon="6.2885">
        <ele>960</ele>
        <time>2024-07-26T08:01:13.000Z</time>
      </trkpt>
      <trkpt lat="44.47112" lon="6.28857">
        <ele>959</ele>
        <time>2024-07-26T08:01:19.000Z</time>
      </trkpt>
      <trkpt lat="44.47103" lon="6.28857">
        <ele>955</ele>
        <time>2024-07-26T08:01:25.000Z</time>
      </trkpt>
      <trkpt lat="44.47103" lon="6.28864">
        <ele>954</ele>
        <time>2024-07-26T08:01:31.000Z</time>
      </trkpt>
      <trkpt lat="44.47109" lon="6.28872">
        <ele>951</ele>
        <time>2024-07-26T08:01:37.000Z</time>
      </trkpt>
      <trkpt lat="44.47116" lon="6.28878">
        <ele>952</ele>
        <time>2024-07-26T08:01:43.000Z</time>
      </trkpt>
      <trkpt lat="44.47113" lon="6.28889">
        <ele>954</ele>
        <time>2024-07-26T08:01:49.000Z</time>
      </trkpt>
      <trkpt lat="44.47108" lon="6.28904">
        <ele>958</ele>
        <time>2024-07-26T08:01:55.000Z</time>
      </trkpt>
      <trkpt lat="44.4711" lon="6.28914">
        <ele>957</ele>
        <time>2024-07-26T08:02:02.000Z</time>
      </trkpt>
      <trkpt lat="44.47114" lon="6.28912">
        <ele>955</ele>
        <time>2024-07-26T08:02:07.000Z</time>
      </trkpt>
      <trkpt lat="44.47107" lon="6.28915">
        <ele>964</ele>
        <time>2024-07-26T08:02:19.000Z</time>
      </trkpt>
      <trkpt lat="44.47097" lon="6.28924">
        <ele>965</ele>
        <time>2024-07-26T08:02:25.000Z</time>
      </trkpt>
      <trkpt lat="44.4709" lon="6.28936">
        <ele>966</ele>
        <time>2024-07-26T08:02:31.000Z</time>
      </trkpt>
      <trkpt lat="44.47082" lon="6.28951">
        <ele>967</ele>
        <time>2024-07-26T08:02:37.000Z</time>
      </trkpt>
      <trkpt lat="44.47077" lon="6.28965">
        <ele>972</ele>
        <time>2024-07-26T08:02:43.000Z</time>
      </trkpt>
      <trkpt lat="44.47072" lon="6.28971">
        <ele>973</ele>
        <time>2024-07-26T08:02:49.000Z</time>
      </trkpt>
      <trkpt lat="44.47064" lon="6.28985">
        <ele>973</ele>
        <time>2024-07-26T08:02:55.000Z</time>
      </trkpt>
      <trkpt lat="44.47062" lon="6.28998">
        <ele>969</ele>
        <time>2024-07-26T08:03:01.000Z</time>
      </trkpt>
      <trkpt lat="44.47059" lon="6.29005">
        <ele>971</ele>
        <time>2024-07-26T08:03:07.000Z</time>
      </trkpt>
      <trkpt lat="44.47059" lon="6.29008">
        <ele>969</ele>
        <time>2024-07-26T08:03:13.000Z</time>
      </trkpt>
      <trkpt lat="44.47057" lon="6.29015">
        <ele>972</ele>
        <time>2024-07-26T08:03:19.000Z</time>
      </trkpt>
      <trkpt lat="44.47058" lon="6.29019">
        <ele>971</ele>
        <time>2024-07-26T08:03:25.000Z</time>
      </trkpt>
      <trkpt lat="44.47058" lon="6.29023">
        <ele>971</ele>
        <time>2024-07-26T08:03:31.000Z</time>
      </trkpt>
      <trkpt lat="44.47059" lon="6.29026">
        <ele>973</ele>
        <time>2024-07-26T08:03:43.000Z</time>
      </trkpt>
      <trkpt lat="44.47057" lon="6.29029">
        <ele>973</ele>
        <time>2024-07-26T08:04:43.000Z</time>
      </trkpt>
      <trkpt lat="44.47056" lon="6.29038">
        <ele>971</ele>
        <time>2024-07-26T08:04:49.000Z</time>
      </trkpt>
      <trkpt lat="44.47055" lon="6.29055">
        <ele>967</ele>
        <time>2024-07-26T08:04:55.000Z</time>
      </trkpt>
      <trkpt lat="44.47046" lon="6.29087">
        <ele>963</ele>
        <time>2024-07-26T08:05:01.000Z</time>
      </trkpt>
      <trkpt lat="44.47018" lon="6.29094">
        <ele>972</ele>
        <time>2024-07-26T08:05:07.000Z</time>
      </trkpt>
      <trkpt lat="44.47019" lon="6.29105">
        <ele>971</ele>
        <time>2024-07-26T08:05:13.000Z</time>
      </trkpt>
      <trkpt lat="44.47023" lon="6.29124">
        <ele>962</ele>
        <time>2024-07-26T08:05:19.000Z</time>
      </trkpt>
      <trkpt lat="44.4701" lon="6.29146">
        <ele>955</ele>
        <time>2024-07-26T08:05:25.000Z</time>
      </trkpt>
      <trkpt lat="44.46993" lon="6.29157">
        <ele>949</ele>
        <time>2024-07-26T08:05:31.000Z</time>
      </trkpt>
      <trkpt lat="44.46971" lon="6.29176">
        <ele>960</ele>
        <time>2024-07-26T08:05:37.000Z</time>
      </trkpt>
      <trkpt lat="44.4695" lon="6.29188">
        <ele>963</ele>
        <time>2024-07-26T08:05:43.000Z</time>
      </trkpt>
      <trkpt lat="44.46937" lon="6.29203">
        <ele>944</ele>
        <time>2024-07-26T08:05:49.000Z</time>
      </trkpt>
      <trkpt lat="44.46929" lon="6.29223">
        <ele>945</ele>
        <time>2024-07-26T08:05:55.000Z</time>
      </trkpt>
      <trkpt lat="44.4692" lon="6.29245">
        <ele>946</ele>
        <time>2024-07-26T08:06:01.000Z</time>
      </trkpt>
      <trkpt lat="44.46912" lon="6.29265">
        <ele>942</ele>
        <time>2024-07-26T08:06:07.000Z</time>
      </trkpt>
      <trkpt lat="44.46901" lon="6.29282">
        <ele>950</ele>
        <time>2024-07-26T08:06:13.000Z</time>
      </trkpt>
      <trkpt lat="44.46891" lon="6.29293">
        <ele>946</ele>
        <time>2024-07-26T08:06:19.000Z</time>
      </trkpt>
      <trkpt lat="44.46879" lon="6.29302">
        <ele>932</ele>
        <time>2024-07-26T08:06:25.000Z</time>
      </trkpt>
      <trkpt lat="44.46861" lon="6.29345">
        <ele>918</ele>
        <time>2024-07-26T08:06:32.000Z</time>
      </trkpt>
      <trkpt lat="44.46849" lon="6.29386">
        <ele>934</ele>
        <time>2024-07-26T08:06:38.000Z</time>
      </trkpt>
      <trkpt lat="44.46828" lon="6.29424">
        <ele>934</ele>
        <time>2024-07-26T08:06:44.000Z</time>
      </trkpt>
      <trkpt lat="44.46803" lon="6.29458">
        <ele>899</ele>
        <time>2024-07-26T08:06:50.000Z</time>
      </trkpt>
      <trkpt lat="44.46786" lon="6.29469">
        <ele>905</ele>
        <time>2024-07-26T08:06:55.000Z</time>
      </trkpt>
      <trkpt lat="44.46771" lon="6.29476">
        <ele>917</ele>
        <time>2024-07-26T08:07:01.000Z</time>
      </trkpt>
      <trkpt lat="44.46753" lon="6.29489">
        <ele>918</ele>
        <time>2024-07-26T08:07:07.000Z</time>
      </trkpt>
      <trkpt lat="44.46738" lon="6.29488">
        <ele>919</ele>
        <time>2024-07-26T08:07:13.000Z</time>
      </trkpt>
      <trkpt lat="44.46721" lon="6.29492">
        <ele>913</ele>
        <time>2024-07-26T08:07:19.000Z</time>
      </trkpt>
      <trkpt lat="44.46709" lon="6.29494">
        <ele>910</ele>
        <time>2024-07-26T08:07:25.000Z</time>
      </trkpt>
      <trkpt lat="44.46696" lon="6.29492">
        <ele>906</ele>
        <time>2024-07-26T08:07:31.000Z</time>
      </trkpt>
      <trkpt lat="44.46682" lon="6.29484">
        <ele>900</ele>
        <time>2024-07-26T08:07:37.000Z</time>
      </trkpt>
      <trkpt lat="44.46668" lon="6.29483">
        <ele>901</ele>
        <time>2024-07-26T08:07:43.000Z</time>
      </trkpt>
      <trkpt lat="44.46657" lon="6.29493">
        <ele>892</ele>
        <time>2024-07-26T08:07:49.000Z</time>
      </trkpt>
      <trkpt lat="44.46663" lon="6.29501">
        <ele>902</ele>
        <time>2024-07-26T08:07:52.000Z</time>
      </trkpt>
      <trkpt lat="44.46652" lon="6.29533">
        <ele>897</ele>
        <time>2024-07-26T08:07:55.000Z</time>
      </trkpt>
      <trkpt lat="44.4664" lon="6.29553">
        <ele>902</ele>
        <time>2024-07-26T08:07:58.000Z</time>
      </trkpt>
      <trkpt lat="44.46634" lon="6.29555">
        <ele>903</ele>
        <time>2024-07-26T08:08:01.000Z</time>
      </trkpt>
      <trkpt lat="44.46627" lon="6.29567">
        <ele>900</ele>
        <time>2024-07-26T08:08:08.000Z</time>
      </trkpt>
      <trkpt lat="44.4662" lon="6.29561">
        <ele>897</ele>
        <time>2024-07-26T08:08:15.000Z</time>
      </trkpt>
      <trkpt lat="44.46614" lon="6.29557">
        <ele>895</ele>
        <time>2024-07-26T08:08:20.000Z</time>
      </trkpt>
      <trkpt lat="44.46609" lon="6.29555">
        <ele>895</ele>
        <time>2024-07-26T08:08:25.000Z</time>
      </trkpt>
      <trkpt lat="44.46591" lon="6.2957">
        <ele>898</ele>
        <time>2024-07-26T08:08:32.000Z</time>
      </trkpt>
      <trkpt lat="44.46577" lon="6.29591">
        <ele>904</ele>
        <time>2024-07-26T08:08:39.000Z</time>
      </trkpt>
      <trkpt lat="44.46558" lon="6.29592">
        <ele>907</ele>
        <time>2024-07-26T08:08:45.000Z</time>
      </trkpt>
      <trkpt lat="44.46546" lon="6.29593">
        <ele>907</ele>
        <time>2024-07-26T08:08:50.000Z</time>
      </trkpt>
      <trkpt lat="44.46528" lon="6.29591">
        <ele>900</ele>
        <time>2024-07-26T08:08:57.000Z</time>
      </trkpt>
      <trkpt lat="44.46521" lon="6.29588">
        <ele>901</ele>
        <time>2024-07-26T08:09:02.000Z</time>
      </trkpt>
      <trkpt lat="44.46511" lon="6.2959">
        <ele>896</ele>
        <time>2024-07-26T08:09:09.000Z</time>
      </trkpt>
      <trkpt lat="44.46499" lon="6.29602">
        <ele>899</ele>
        <time>2024-07-26T08:09:15.000Z</time>
      </trkpt>
      <trkpt lat="44.4649" lon="6.29616">
        <ele>898</ele>
        <time>2024-07-26T08:09:20.000Z</time>
      </trkpt>
      <trkpt lat="44.46474" lon="6.29632">
        <ele>890</ele>
        <time>2024-07-26T08:09:27.000Z</time>
      </trkpt>
      <trkpt lat="44.46469" lon="6.29637">
        <ele>893</ele>
        <time>2024-07-26T08:09:32.000Z</time>
      </trkpt>
      <trkpt lat="44.46458" lon="6.29641">
        <ele>891</ele>
        <time>2024-07-26T08:09:39.000Z</time>
      </trkpt>
      <trkpt lat="44.46447" lon="6.29634">
        <ele>893</ele>
        <time>2024-07-26T08:09:44.000Z</time>
      </trkpt>
      <trkpt lat="44.46435" lon="6.29628">
        <ele>889</ele>
        <time>2024-07-26T08:09:50.000Z</time>
      </trkpt>
      <trkpt lat="44.46411" lon="6.29623">
        <ele>897</ele>
        <time>2024-07-26T08:09:57.000Z</time>
      </trkpt>
      <trkpt lat="44.46391" lon="6.29621">
        <ele>896</ele>
        <time>2024-07-26T08:10:03.000Z</time>
      </trkpt>
      <trkpt lat="44.46375" lon="6.2962">
        <ele>898</ele>
        <time>2024-07-26T08:10:09.000Z</time>
      </trkpt>
      <trkpt lat="44.46362" lon="6.29621">
        <ele>900</ele>
        <time>2024-07-26T08:10:15.000Z</time>
      </trkpt>
      <trkpt lat="44.46351" lon="6.29625">
        <ele>905</ele>
        <time>2024-07-26T08:10:21.000Z</time>
      </trkpt>
      <trkpt lat="44.46338" lon="6.29623">
        <ele>912</ele>
        <time>2024-07-26T08:10:27.000Z</time>
      </trkpt>
      <trkpt lat="44.46324" lon="6.29618">
        <ele>914</ele>
        <time>2024-07-26T08:10:33.000Z</time>
      </trkpt>
      <trkpt lat="44.46306" lon="6.29621">
        <ele>913</ele>
        <time>2024-07-26T08:10:39.000Z</time>
      </trkpt>
      <trkpt lat="44.46291" lon="6.29626">
        <ele>912</ele>
        <time>2024-07-26T08:10:45.000Z</time>
      </trkpt>
      <trkpt lat="44.46278" lon="6.29631">
        <ele>914</ele>
        <time>2024-07-26T08:10:51.000Z</time>
      </trkpt>
      <trkpt lat="44.46266" lon="6.29638">
        <ele>914</ele>
        <time>2024-07-26T08:10:57.000Z</time>
      </trkpt>
      <trkpt lat="44.46255" lon="6.29646">
        <ele>911</ele>
        <time>2024-07-26T08:11:03.000Z</time>
      </trkpt>
      <trkpt lat="44.46246" lon="6.29652">
        <ele>913</ele>
        <time>2024-07-26T08:11:09.000Z</time>
      </trkpt>
      <trkpt lat="44.46236" lon="6.29663">
        <ele>910</ele>
        <time>2024-07-26T08:11:15.000Z</time>
      </trkpt>
      <trkpt lat="44.46227" lon="6.2967">
        <ele>918</ele>
        <time>2024-07-26T08:11:20.000Z</time>
      </trkpt>
      <trkpt lat="44.46214" lon="6.2968">
        <ele>910</ele>
        <time>2024-07-26T08:11:27.000Z</time>
      </trkpt>
      <trkpt lat="44.46203" lon="6.29686">
        <ele>917</ele>
        <time>2024-07-26T08:11:32.000Z</time>
      </trkpt>
      <trkpt lat="44.46186" lon="6.29695">
        <ele>921</ele>
        <time>2024-07-26T08:11:39.000Z</time>
      </trkpt>
      <trkpt lat="44.46174" lon="6.29694">
        <ele>923</ele>
        <time>2024-07-26T08:11:44.000Z</time>
      </trkpt>
      <trkpt lat="44.4616" lon="6.29691">
        <ele>924</ele>
        <time>2024-07-26T08:11:50.000Z</time>
      </trkpt>
      <trkpt lat="44.46147" lon="6.29688">
        <ele>922</ele>
        <time>2024-07-26T08:11:57.000Z</time>
      </trkpt>
      <trkpt lat="44.46137" lon="6.29686">
        <ele>924</ele>
        <time>2024-07-26T08:12:02.000Z</time>
      </trkpt>
      <trkpt lat="44.46123" lon="6.29684">
        <ele>929</ele>
        <time>2024-07-26T08:12:09.000Z</time>
      </trkpt>
      <trkpt lat="44.46111" lon="6.29681">
        <ele>931</ele>
        <time>2024-07-26T08:12:15.000Z</time>
      </trkpt>
      <trkpt lat="44.46102" lon="6.29678">
        <ele>932</ele>
        <time>2024-07-26T08:12:20.000Z</time>
      </trkpt>
      <trkpt lat="44.46096" lon="6.29675">
        <ele>932</ele>
        <time>2024-07-26T08:12:25.000Z</time>
      </trkpt>
      <trkpt lat="44.4608" lon="6.2967">
        <ele>933</ele>
        <time>2024-07-26T08:12:32.000Z</time>
      </trkpt>
      <trkpt lat="44.46066" lon="6.29668">
        <ele>934</ele>
        <time>2024-07-26T08:12:39.000Z</time>
      </trkpt>
      <trkpt lat="44.46055" lon="6.29667">
        <ele>933</ele>
        <time>2024-07-26T08:12:45.000Z</time>
      </trkpt>
      <trkpt lat="44.46046" lon="6.29665">
        <ele>936</ele>
        <time>2024-07-26T08:12:50.000Z</time>
      </trkpt>
      <trkpt lat="44.4604" lon="6.29662">
        <ele>936</ele>
        <time>2024-07-26T08:12:55.000Z</time>
      </trkpt>
      <trkpt lat="44.46022" lon="6.29665">
        <ele>941</ele>
        <time>2024-07-26T08:13:01.000Z</time>
      </trkpt>
      <trkpt lat="44.46006" lon="6.29675">
        <ele>939</ele>
        <time>2024-07-26T08:13:09.000Z</time>
      </trkpt>
      <trkpt lat="44.4599" lon="6.29681">
        <ele>943</ele>
        <time>2024-07-26T08:13:17.000Z</time>
      </trkpt>
      <trkpt lat="44.45974" lon="6.29691">
        <ele>943</ele>
        <time>2024-07-26T08:13:25.000Z</time>
      </trkpt>
      <trkpt lat="44.45962" lon="6.29698">
        <ele>943</ele>
        <time>2024-07-26T08:13:30.000Z</time>
      </trkpt>
      <trkpt lat="44.45957" lon="6.29701">
        <ele>941</ele>
        <time>2024-07-26T08:13:33.000Z</time>
      </trkpt>
      <trkpt lat="44.45946" lon="6.29707">
        <ele>942</ele>
        <time>2024-07-26T08:13:39.000Z</time>
      </trkpt>
      <trkpt lat="44.45935" lon="6.29714">
        <ele>944</ele>
        <time>2024-07-26T08:13:45.000Z</time>
      </trkpt>
      <trkpt lat="44.45923" lon="6.29723">
        <ele>946</ele>
        <time>2024-07-26T08:13:51.000Z</time>
      </trkpt>
      <trkpt lat="44.45911" lon="6.29729">
        <ele>947</ele>
        <time>2024-07-26T08:13:57.000Z</time>
      </trkpt>
      <trkpt lat="44.45898" lon="6.29734">
        <ele>950</ele>
        <time>2024-07-26T08:14:03.000Z</time>
      </trkpt>
      <trkpt lat="44.45884" lon="6.29737">
        <ele>955</ele>
        <time>2024-07-26T08:14:09.000Z</time>
      </trkpt>
      <trkpt lat="44.4587" lon="6.29738">
        <ele>954</ele>
        <time>2024-07-26T08:14:15.000Z</time>
      </trkpt>
      <trkpt lat="44.45856" lon="6.2974">
        <ele>956</ele>
        <time>2024-07-26T08:14:21.000Z</time>
      </trkpt>
      <trkpt lat="44.45841" lon="6.29744">
        <ele>951</ele>
        <time>2024-07-26T08:14:27.000Z</time>
      </trkpt>
      <trkpt lat="44.45828" lon="6.29751">
        <ele>953</ele>
        <time>2024-07-26T08:14:33.000Z</time>
      </trkpt>
      <trkpt lat="44.45815" lon="6.29756">
        <ele>952</ele>
        <time>2024-07-26T08:14:39.000Z</time>
      </trkpt>
      <trkpt lat="44.45802" lon="6.29755">
        <ele>953</ele>
        <time>2024-07-26T08:14:45.000Z</time>
      </trkpt>
      <trkpt lat="44.45789" lon="6.29744">
        <ele>955</ele>
        <time>2024-07-26T08:14:51.000Z</time>
      </trkpt>
      <trkpt lat="44.45778" lon="6.29732">
        <ele>957</ele>
        <time>2024-07-26T08:14:57.000Z</time>
      </trkpt>
      <trkpt lat="44.45769" lon="6.29721">
        <ele>960</ele>
        <time>2024-07-26T08:15:03.000Z</time>
      </trkpt>
      <trkpt lat="44.45761" lon="6.2971">
        <ele>958</ele>
        <time>2024-07-26T08:15:09.000Z</time>
      </trkpt>
      <trkpt lat="44.45752" lon="6.297">
        <ele>960</ele>
        <time>2024-07-26T08:15:15.000Z</time>
      </trkpt>
      <trkpt lat="44.45742" lon="6.29689">
        <ele>961</ele>
        <time>2024-07-26T08:15:21.000Z</time>
      </trkpt>
      <trkpt lat="44.45731" lon="6.29679">
        <ele>961</ele>
        <time>2024-07-26T08:15:27.000Z</time>
      </trkpt>
      <trkpt lat="44.45722" lon="6.29669">
        <ele>963</ele>
        <time>2024-07-26T08:15:33.000Z</time>
      </trkpt>
      <trkpt lat="44.45713" lon="6.29656">
        <ele>964</ele>
        <time>2024-07-26T08:15:39.000Z</time>
      </trkpt>
      <trkpt lat="44.45704" lon="6.29642">
        <ele>983</ele>
        <time>2024-07-26T08:15:45.000Z</time>
      </trkpt>
      <trkpt lat="44.45697" lon="6.29627">
        <ele>983</ele>
        <time>2024-07-26T08:15:51.000Z</time>
      </trkpt>
      <trkpt lat="44.45693" lon="6.29609">
        <ele>983</ele>
        <time>2024-07-26T08:15:57.000Z</time>
      </trkpt>
      <trkpt lat="44.45686" lon="6.29594">
        <ele>967</ele>
        <time>2024-07-26T08:16:03.000Z</time>
      </trkpt>
      <trkpt lat="44.45677" lon="6.29584">
        <ele>979</ele>
        <time>2024-07-26T08:16:09.000Z</time>
      </trkpt>
      <trkpt lat="44.45669" lon="6.29572">
        <ele>970</ele>
        <time>2024-07-26T08:16:15.000Z</time>
      </trkpt>
      <trkpt lat="44.45662" lon="6.29559">
        <ele>983</ele>
        <time>2024-07-26T08:16:21.000Z</time>
      </trkpt>
      <trkpt lat="44.45658" lon="6.29545">
        <ele>972</ele>
        <time>2024-07-26T08:16:27.000Z</time>
      </trkpt>
      <trkpt lat="44.45652" lon="6.29531">
        <ele>983</ele>
        <time>2024-07-26T08:16:33.000Z</time>
      </trkpt>
      <trkpt lat="44.45646" lon="6.29517">
        <ele>983</ele>
        <time>2024-07-26T08:16:39.000Z</time>
      </trkpt>
      <trkpt lat="44.45639" lon="6.29503">
        <ele>983</ele>
        <time>2024-07-26T08:16:45.000Z</time>
      </trkpt>
      <trkpt lat="44.45632" lon="6.29486">
        <ele>983</ele>
        <time>2024-07-26T08:16:51.000Z</time>
      </trkpt>
      <trkpt lat="44.45626" lon="6.29468">
        <ele>983</ele>
        <time>2024-07-26T08:16:57.000Z</time>
      </trkpt>
      <trkpt lat="44.4562" lon="6.29456">
        <ele>983</ele>
        <time>2024-07-26T08:17:03.000Z</time>
      </trkpt>
      <trkpt lat="44.45622" lon="6.2946">
        <ele>978</ele>
        <time>2024-07-26T08:17:09.000Z</time>
      </trkpt>
      <trkpt lat="44.45619" lon="6.29466">
        <ele>983</ele>
        <time>2024-07-26T08:17:16.000Z</time>
      </trkpt>
      <trkpt lat="44.45616" lon="6.29469">
        <ele>983</ele>
        <time>2024-07-26T08:17:45.000Z</time>
      </trkpt>
      <trkpt lat="44.45616" lon="6.29466">
        <ele>983</ele>
        <time>2024-07-26T08:17:51.000Z</time>
      </trkpt>
      <trkpt lat="44.45617" lon="6.29463">
        <ele>983</ele>
        <time>2024-07-26T08:18:15.000Z</time>
      </trkpt>
      <trkpt lat="44.45615" lon="6.29459">
        <ele>983</ele>
        <time>2024-07-26T08:18:21.000Z</time>
      </trkpt>
      <trkpt lat="44.45622" lon="6.29469">
        <ele>983</ele>
        <time>2024-07-26T08:18:28.000Z</time>
      </trkpt>
      <trkpt lat="44.4562" lon="6.29465">
        <ele>983</ele>
        <time>2024-07-26T08:18:33.000Z</time>
      </trkpt>
      <trkpt lat="44.45619" lon="6.29461">
        <ele>983</ele>
        <time>2024-07-26T08:18:39.000Z</time>
      </trkpt>
      <trkpt lat="44.45616" lon="6.2946">
        <ele>983</ele>
        <time>2024-07-26T08:18:57.000Z</time>
      </trkpt>
      <trkpt lat="44.45616" lon="6.29453">
        <ele>983</ele>
        <time>2024-07-26T08:19:03.000Z</time>
      </trkpt>
      <trkpt lat="44.45614" lon="6.29443">
        <ele>983</ele>
        <time>2024-07-26T08:19:09.000Z</time>
      </trkpt>
      <trkpt lat="44.45612" lon="6.29444">
        <ele>983</ele>
        <time>2024-07-26T08:19:15.000Z</time>
      </trkpt>
      <trkpt lat="44.45616" lon="6.29446">
        <ele>983</ele>
        <time>2024-07-26T08:19:27.000Z</time>
      </trkpt>
      <trkpt lat="44.45627" lon="6.29436">
        <ele>983</ele>
        <time>2024-07-26T08:19:33.000Z</time>
      </trkpt>
      <trkpt lat="44.45642" lon="6.29428">
        <ele>983</ele>
        <time>2024-07-26T08:19:39.000Z</time>
      </trkpt>
      <trkpt lat="44.45645" lon="6.29424">
        <ele>985</ele>
        <time>2024-07-26T08:19:45.000Z</time>
      </trkpt>
      <trkpt lat="44.45656" lon="6.29411">
        <ele>985</ele>
        <time>2024-07-26T08:19:51.000Z</time>
      </trkpt>
      <trkpt lat="44.45674" lon="6.29396">
        <ele>982</ele>
        <time>2024-07-26T08:19:57.000Z</time>
      </trkpt>
      <trkpt lat="44.45682" lon="6.29376">
        <ele>982</ele>
        <time>2024-07-26T08:20:03.000Z</time>
      </trkpt>
      <trkpt lat="44.45686" lon="6.29358">
        <ele>979</ele>
        <time>2024-07-26T08:20:09.000Z</time>
      </trkpt>
      <trkpt lat="44.45688" lon="6.29337">
        <ele>983</ele>
        <time>2024-07-26T08:20:15.000Z</time>
      </trkpt>
      <trkpt lat="44.45681" lon="6.29318">
        <ele>977</ele>
        <time>2024-07-26T08:20:21.000Z</time>
      </trkpt>
      <trkpt lat="44.45674" lon="6.29307">
        <ele>984</ele>
        <time>2024-07-26T08:20:28.000Z</time>
      </trkpt>
      <trkpt lat="44.45664" lon="6.29295">
        <ele>984</ele>
        <time>2024-07-26T08:20:33.000Z</time>
      </trkpt>
      <trkpt lat="44.45653" lon="6.29282">
        <ele>984</ele>
        <time>2024-07-26T08:20:39.000Z</time>
      </trkpt>
      <trkpt lat="44.45642" lon="6.29269">
        <ele>984</ele>
        <time>2024-07-26T08:20:45.000Z</time>
      </trkpt>
      <trkpt lat="44.45629" lon="6.29259">
        <ele>984</ele>
        <time>2024-07-26T08:20:51.000Z</time>
      </trkpt>
      <trkpt lat="44.45615" lon="6.29251">
        <ele>990</ele>
        <time>2024-07-26T08:20:57.000Z</time>
      </trkpt>
      <trkpt lat="44.45615" lon="6.29251">
        <ele>990</ele>
        <time>2024-07-26T08:20:57.000Z</time>
      </trkpt>
      <trkpt lat="44.45599" lon="6.29256">
        <ele>986</ele>
        <time>2024-07-26T08:21:03.000Z</time>
      </trkpt>
      <trkpt lat="44.45585" lon="6.29276">
        <ele>991</ele>
        <time>2024-07-26T08:21:09.000Z</time>
      </trkpt>
      <trkpt lat="44.45575" lon="6.29292">
        <ele>982</ele>
        <time>2024-07-26T08:21:15.000Z</time>
      </trkpt>
      <trkpt lat="44.45563" lon="6.29308">
        <ele>982</ele>
        <time>2024-07-26T08:21:21.000Z</time>
      </trkpt>
      <trkpt lat="44.45551" lon="6.29324">
        <ele>986</ele>
        <time>2024-07-26T08:21:27.000Z</time>
      </trkpt>
      <trkpt lat="44.45541" lon="6.29338">
        <ele>989</ele>
        <time>2024-07-26T08:21:33.000Z</time>
      </trkpt>
      <trkpt lat="44.45531" lon="6.29352">
        <ele>993</ele>
        <time>2024-07-26T08:21:39.000Z</time>
      </trkpt>
      <trkpt lat="44.4552" lon="6.29366">
        <ele>995</ele>
        <time>2024-07-26T08:21:45.000Z</time>
      </trkpt>
      <trkpt lat="44.45506" lon="6.29376">
        <ele>996</ele>
        <time>2024-07-26T08:21:51.000Z</time>
      </trkpt>
      <trkpt lat="44.45495" lon="6.29371">
        <ele>995</ele>
        <time>2024-07-26T08:21:57.000Z</time>
      </trkpt>
      <trkpt lat="44.45483" lon="6.29363">
        <ele>999</ele>
        <time>2024-07-26T08:22:03.000Z</time>
      </trkpt>
      <trkpt lat="44.45472" lon="6.29354">
        <ele>984</ele>
        <time>2024-07-26T08:22:09.000Z</time>
      </trkpt>
      <trkpt lat="44.45463" lon="6.29345">
        <ele>1003</ele>
        <time>2024-07-26T08:22:15.000Z</time>
      </trkpt>
      <trkpt lat="44.45453" lon="6.29334">
        <ele>998</ele>
        <time>2024-07-26T08:22:21.000Z</time>
      </trkpt>
      <trkpt lat="44.45442" lon="6.29325">
        <ele>1007</ele>
        <time>2024-07-26T08:22:27.000Z</time>
      </trkpt>
      <trkpt lat="44.45431" lon="6.29323">
        <ele>1005</ele>
        <time>2024-07-26T08:22:33.000Z</time>
      </trkpt>
      <trkpt lat="44.45419" lon="6.29329">
        <ele>1009</ele>
        <time>2024-07-26T08:22:39.000Z</time>
      </trkpt>
      <trkpt lat="44.45409" lon="6.29339">
        <ele>984</ele>
        <time>2024-07-26T08:22:45.000Z</time>
      </trkpt>
      <trkpt lat="44.45395" lon="6.29347">
        <ele>984</ele>
        <time>2024-07-26T08:22:51.000Z</time>
      </trkpt>
      <trkpt lat="44.45382" lon="6.29355">
        <ele>984</ele>
        <time>2024-07-26T08:22:57.000Z</time>
      </trkpt>
      <trkpt lat="44.45369" lon="6.29363">
        <ele>984</ele>
        <time>2024-07-26T08:23:03.000Z</time>
      </trkpt>
      <trkpt lat="44.4536" lon="6.29371">
        <ele>1015</ele>
        <time>2024-07-26T08:23:09.000Z</time>
      </trkpt>
      <trkpt lat="44.45346" lon="6.29381">
        <ele>1016</ele>
        <time>2024-07-26T08:23:15.000Z</time>
      </trkpt>
      <trkpt lat="44.45334" lon="6.29391">
        <ele>984</ele>
        <time>2024-07-26T08:23:21.000Z</time>
      </trkpt>
      <trkpt lat="44.45322" lon="6.29391">
        <ele>984</ele>
        <time>2024-07-26T08:23:27.000Z</time>
      </trkpt>
      <trkpt lat="44.4531" lon="6.29394">
        <ele>1018</ele>
        <time>2024-07-26T08:23:33.000Z</time>
      </trkpt>
      <trkpt lat="44.45298" lon="6.294">
        <ele>1023</ele>
        <time>2024-07-26T08:23:39.000Z</time>
      </trkpt>
      <trkpt lat="44.45284" lon="6.29402">
        <ele>1020</ele>
        <time>2024-07-26T08:23:45.000Z</time>
      </trkpt>
      <trkpt lat="44.45268" lon="6.29417">
        <ele>1019</ele>
        <time>2024-07-26T08:23:51.000Z</time>
      </trkpt>
      <trkpt lat="44.45259" lon="6.29433">
        <ele>1022</ele>
        <time>2024-07-26T08:23:57.000Z</time>
      </trkpt>
      <trkpt lat="44.45253" lon="6.29452">
        <ele>1026</ele>
        <time>2024-07-26T08:24:03.000Z</time>
      </trkpt>
      <trkpt lat="44.45247" lon="6.29471">
        <ele>984</ele>
        <time>2024-07-26T08:24:09.000Z</time>
      </trkpt>
      <trkpt lat="44.45237" lon="6.29485">
        <ele>1025</ele>
        <time>2024-07-26T08:24:15.000Z</time>
      </trkpt>
      <trkpt lat="44.45224" lon="6.29495">
        <ele>1026</ele>
        <time>2024-07-26T08:24:21.000Z</time>
      </trkpt>
      <trkpt lat="44.45211" lon="6.29501">
        <ele>1025</ele>
        <time>2024-07-26T08:24:27.000Z</time>
      </trkpt>
      <trkpt lat="44.45199" lon="6.29502">
        <ele>1030</ele>
        <time>2024-07-26T08:24:33.000Z</time>
      </trkpt>
      <trkpt lat="44.45188" lon="6.29503">
        <ele>984</ele>
        <time>2024-07-26T08:24:39.000Z</time>
      </trkpt>
      <trkpt lat="44.45177" lon="6.29504">
        <ele>984</ele>
        <time>2024-07-26T08:24:45.000Z</time>
      </trkpt>
      <trkpt lat="44.45165" lon="6.29505">
        <ele>984</ele>
        <time>2024-07-26T08:24:51.000Z</time>
      </trkpt>
      <trkpt lat="44.45151" lon="6.29513">
        <ele>984</ele>
        <time>2024-07-26T08:24:57.000Z</time>
      </trkpt>
      <trkpt lat="44.45136" lon="6.29521">
        <ele>984</ele>
        <time>2024-07-26T08:25:03.000Z</time>
      </trkpt>
      <trkpt lat="44.45124" lon="6.29527">
        <ele>984</ele>
        <time>2024-07-26T08:25:09.000Z</time>
      </trkpt>
      <trkpt lat="44.45114" lon="6.29535">
        <ele>1039</ele>
        <time>2024-07-26T08:25:15.000Z</time>
      </trkpt>
      <trkpt lat="44.45104" lon="6.29542">
        <ele>1037</ele>
        <time>2024-07-26T08:25:21.000Z</time>
      </trkpt>
      <trkpt lat="44.4509" lon="6.29549">
        <ele>1035</ele>
        <time>2024-07-26T08:25:27.000Z</time>
      </trkpt>
      <trkpt lat="44.45079" lon="6.29557">
        <ele>1038</ele>
        <time>2024-07-26T08:25:33.000Z</time>
      </trkpt>
      <trkpt lat="44.45066" lon="6.29562">
        <ele>1034</ele>
        <time>2024-07-26T08:25:39.000Z</time>
      </trkpt>
      <trkpt lat="44.45051" lon="6.29567">
        <ele>1037</ele>
        <time>2024-07-26T08:25:45.000Z</time>
      </trkpt>
      <trkpt lat="44.45039" lon="6.29576">
        <ele>1045</ele>
        <time>2024-07-26T08:25:51.000Z</time>
      </trkpt>
      <trkpt lat="44.45027" lon="6.29583">
        <ele>1045</ele>
        <time>2024-07-26T08:25:57.000Z</time>
      </trkpt>
      <trkpt lat="44.45016" lon="6.29592">
        <ele>984</ele>
        <time>2024-07-26T08:26:03.000Z</time>
      </trkpt>
      <trkpt lat="44.45012" lon="6.29606">
        <ele>984</ele>
        <time>2024-07-26T08:26:09.000Z</time>
      </trkpt>
      <trkpt lat="44.45005" lon="6.29618">
        <ele>984</ele>
        <time>2024-07-26T08:26:15.000Z</time>
      </trkpt>
      <trkpt lat="44.44996" lon="6.29626">
        <ele>984</ele>
        <time>2024-07-26T08:26:21.000Z</time>
      </trkpt>
      <trkpt lat="44.44987" lon="6.29641">
        <ele>1044</ele>
        <time>2024-07-26T08:26:27.000Z</time>
      </trkpt>
      <trkpt lat="44.44976" lon="6.29651">
        <ele>1046</ele>
        <time>2024-07-26T08:26:33.000Z</time>
      </trkpt>
      <trkpt lat="44.44959" lon="6.29657">
        <ele>984</ele>
        <time>2024-07-26T08:26:39.000Z</time>
      </trkpt>
      <trkpt lat="44.44944" lon="6.29662">
        <ele>984</ele>
        <time>2024-07-26T08:26:45.000Z</time>
      </trkpt>
      <trkpt lat="44.44933" lon="6.29671">
        <ele>984</ele>
        <time>2024-07-26T08:26:51.000Z</time>
      </trkpt>
      <trkpt lat="44.44925" lon="6.29683">
        <ele>1056</ele>
        <time>2024-07-26T08:26:57.000Z</time>
      </trkpt>
      <trkpt lat="44.44919" lon="6.29697">
        <ele>1060</ele>
        <time>2024-07-26T08:27:03.000Z</time>
      </trkpt>
      <trkpt lat="44.4491" lon="6.29711">
        <ele>1057</ele>
        <time>2024-07-26T08:27:09.000Z</time>
      </trkpt>
      <trkpt lat="44.44901" lon="6.29728">
        <ele>1062</ele>
        <time>2024-07-26T08:27:15.000Z</time>
      </trkpt>
      <trkpt lat="44.4489" lon="6.29741">
        <ele>1058</ele>
        <time>2024-07-26T08:27:21.000Z</time>
      </trkpt>
      <trkpt lat="44.44877" lon="6.29758">
        <ele>1061</ele>
        <time>2024-07-26T08:27:27.000Z</time>
      </trkpt>
      <trkpt lat="44.44866" lon="6.29776">
        <ele>1063</ele>
        <time>2024-07-26T08:27:33.000Z</time>
      </trkpt>
      <trkpt lat="44.44853" lon="6.29792">
        <ele>1066</ele>
        <time>2024-07-26T08:27:39.000Z</time>
      </trkpt>
      <trkpt lat="44.4484" lon="6.29807">
        <ele>1070</ele>
        <time>2024-07-26T08:27:45.000Z</time>
      </trkpt>
      <trkpt lat="44.44828" lon="6.29819">
        <ele>1063</ele>
        <time>2024-07-26T08:27:51.000Z</time>
      </trkpt>
      <trkpt lat="44.44815" lon="6.29829">
        <ele>1063</ele>
        <time>2024-07-26T08:27:57.000Z</time>
      </trkpt>
      <trkpt lat="44.44802" lon="6.29833">
        <ele>1065</ele>
        <time>2024-07-26T08:28:03.000Z</time>
      </trkpt>
      <trkpt lat="44.44794" lon="6.29829">
        <ele>1068</ele>
        <time>2024-07-26T08:28:09.000Z</time>
      </trkpt>
      <trkpt lat="44.44784" lon="6.29824">
        <ele>1071</ele>
        <time>2024-07-26T08:28:15.000Z</time>
      </trkpt>
      <trkpt lat="44.44772" lon="6.29825">
        <ele>1071</ele>
        <time>2024-07-26T08:28:21.000Z</time>
      </trkpt>
      <trkpt lat="44.44757" lon="6.29831">
        <ele>1071</ele>
        <time>2024-07-26T08:28:27.000Z</time>
      </trkpt>
      <trkpt lat="44.44739" lon="6.29837">
        <ele>1071</ele>
        <time>2024-07-26T08:28:33.000Z</time>
      </trkpt>
      <trkpt lat="44.44719" lon="6.29845">
        <ele>1071</ele>
        <time>2024-07-26T08:28:39.000Z</time>
      </trkpt>
      <trkpt lat="44.447" lon="6.29856">
        <ele>1072</ele>
        <time>2024-07-26T08:28:45.000Z</time>
      </trkpt>
      <trkpt lat="44.44682" lon="6.29864">
        <ele>1072</ele>
        <time>2024-07-26T08:28:51.000Z</time>
      </trkpt>
      <trkpt lat="44.44662" lon="6.2987">
        <ele>1073</ele>
        <time>2024-07-26T08:28:57.000Z</time>
      </trkpt>
      <trkpt lat="44.44652" lon="6.29877">
        <ele>1072</ele>
        <time>2024-07-26T08:29:03.000Z</time>
      </trkpt>
      <trkpt lat="44.44645" lon="6.29896">
        <ele>1072</ele>
        <time>2024-07-26T08:29:09.000Z</time>
      </trkpt>
      <trkpt lat="44.4463" lon="6.29939">
        <ele>984</ele>
        <time>2024-07-26T08:29:15.000Z</time>
      </trkpt>
      <trkpt lat="44.44616" lon="6.2996">
        <ele>984</ele>
        <time>2024-07-26T08:29:21.000Z</time>
      </trkpt>
      <trkpt lat="44.446" lon="6.29971">
        <ele>1074</ele>
        <time>2024-07-26T08:29:27.000Z</time>
      </trkpt>
      <trkpt lat="44.44585" lon="6.29978">
        <ele>1075</ele>
        <time>2024-07-26T08:29:33.000Z</time>
      </trkpt>
      <trkpt lat="44.44574" lon="6.29987">
        <ele>1076</ele>
        <time>2024-07-26T08:29:39.000Z</time>
      </trkpt>
      <trkpt lat="44.44562" lon="6.29991">
        <ele>1086</ele>
        <time>2024-07-26T08:29:45.000Z</time>
      </trkpt>
      <trkpt lat="44.44546" lon="6.29997">
        <ele>1088</ele>
        <time>2024-07-26T08:29:51.000Z</time>
      </trkpt>
      <trkpt lat="44.44533" lon="6.30003">
        <ele>1091</ele>
        <time>2024-07-26T08:29:57.000Z</time>
      </trkpt>
      <trkpt lat="44.44515" lon="6.30013">
        <ele>1092</ele>
        <time>2024-07-26T08:30:03.000Z</time>
      </trkpt>
      <trkpt lat="44.44501" lon="6.30018">
        <ele>984</ele>
        <time>2024-07-26T08:30:09.000Z</time>
      </trkpt>
      <trkpt lat="44.44486" lon="6.3002">
        <ele>984</ele>
        <time>2024-07-26T08:30:15.000Z</time>
      </trkpt>
      <trkpt lat="44.4447" lon="6.30024">
        <ele>984</ele>
        <time>2024-07-26T08:30:21.000Z</time>
      </trkpt>
      <trkpt lat="44.44454" lon="6.30035">
        <ele>984</ele>
        <time>2024-07-26T08:30:27.000Z</time>
      </trkpt>
      <trkpt lat="44.44438" lon="6.30041">
        <ele>1080</ele>
        <time>2024-07-26T08:30:33.000Z</time>
      </trkpt>
      <trkpt lat="44.44423" lon="6.30052">
        <ele>984</ele>
        <time>2024-07-26T08:30:39.000Z</time>
      </trkpt>
      <trkpt lat="44.44409" lon="6.3006">
        <ele>1084</ele>
        <time>2024-07-26T08:30:45.000Z</time>
      </trkpt>
      <trkpt lat="44.44395" lon="6.30066">
        <ele>1082</ele>
        <time>2024-07-26T08:30:51.000Z</time>
      </trkpt>
      <trkpt lat="44.4438" lon="6.30066">
        <ele>1086</ele>
        <time>2024-07-26T08:30:57.000Z</time>
      </trkpt>
      <trkpt lat="44.44367" lon="6.30062">
        <ele>1087</ele>
        <time>2024-07-26T08:31:03.000Z</time>
      </trkpt>
      <trkpt lat="44.44354" lon="6.30046">
        <ele>1089</ele>
        <time>2024-07-26T08:31:09.000Z</time>
      </trkpt>
      <trkpt lat="44.44339" lon="6.3007">
        <ele>1089</ele>
        <time>2024-07-26T08:31:15.000Z</time>
      </trkpt>
      <trkpt lat="44.44341" lon="6.30099">
        <ele>1087</ele>
        <time>2024-07-26T08:31:21.000Z</time>
      </trkpt>
      <trkpt lat="44.44337" lon="6.30124">
        <ele>1088</ele>
        <time>2024-07-26T08:31:27.000Z</time>
      </trkpt>
      <trkpt lat="44.44331" lon="6.30139">
        <ele>1088</ele>
        <time>2024-07-26T08:31:33.000Z</time>
      </trkpt>
      <trkpt lat="44.4432" lon="6.30146">
        <ele>1091</ele>
        <time>2024-07-26T08:31:39.000Z</time>
      </trkpt>
      <trkpt lat="44.44306" lon="6.30151">
        <ele>1079</ele>
        <time>2024-07-26T08:31:45.000Z</time>
      </trkpt>
      <trkpt lat="44.44289" lon="6.30158">
        <ele>1093</ele>
        <time>2024-07-26T08:31:51.000Z</time>
      </trkpt>
      <trkpt lat="44.44272" lon="6.30163">
        <ele>1079</ele>
        <time>2024-07-26T08:31:57.000Z</time>
      </trkpt>
      <trkpt lat="44.44257" lon="6.30169">
        <ele>1079</ele>
        <time>2024-07-26T08:32:03.000Z</time>
      </trkpt>
      <trkpt lat="44.44242" lon="6.30177">
        <ele>1079</ele>
        <time>2024-07-26T08:32:09.000Z</time>
      </trkpt>
      <trkpt lat="44.44227" lon="6.30185">
        <ele>1079</ele>
        <time>2024-07-26T08:32:15.000Z</time>
      </trkpt>
      <trkpt lat="44.44213" lon="6.30186">
        <ele>1099</ele>
        <time>2024-07-26T08:32:21.000Z</time>
      </trkpt>
      <trkpt lat="44.44201" lon="6.3019">
        <ele>1099</ele>
        <time>2024-07-26T08:32:27.000Z</time>
      </trkpt>
      <trkpt lat="44.44188" lon="6.302">
        <ele>1100</ele>
        <time>2024-07-26T08:32:33.000Z</time>
      </trkpt>
      <trkpt lat="44.44175" lon="6.30204">
        <ele>1102</ele>
        <time>2024-07-26T08:32:39.000Z</time>
      </trkpt>
      <trkpt lat="44.44165" lon="6.30207">
        <ele>1103</ele>
        <time>2024-07-26T08:32:45.000Z</time>
      </trkpt>
      <trkpt lat="44.44154" lon="6.30211">
        <ele>1104</ele>
        <time>2024-07-26T08:32:51.000Z</time>
      </trkpt>
      <trkpt lat="44.44142" lon="6.30221">
        <ele>1106</ele>
        <time>2024-07-26T08:32:57.000Z</time>
      </trkpt>
      <trkpt lat="44.4413" lon="6.30227">
        <ele>1106</ele>
        <time>2024-07-26T08:33:03.000Z</time>
      </trkpt>
      <trkpt lat="44.44121" lon="6.3023">
        <ele>1107</ele>
        <time>2024-07-26T08:33:09.000Z</time>
      </trkpt>
      <trkpt lat="44.4411" lon="6.30233">
        <ele>1108</ele>
        <time>2024-07-26T08:33:15.000Z</time>
      </trkpt>
      <trkpt lat="44.441" lon="6.30233">
        <ele>1111</ele>
        <time>2024-07-26T08:33:21.000Z</time>
      </trkpt>
      <trkpt lat="44.44088" lon="6.30229">
        <ele>1117</ele>
        <time>2024-07-26T08:33:27.000Z</time>
      </trkpt>
      <trkpt lat="44.44076" lon="6.30223">
        <ele>1118</ele>
        <time>2024-07-26T08:33:33.000Z</time>
      </trkpt>
      <trkpt lat="44.44066" lon="6.30218">
        <ele>1122</ele>
        <time>2024-07-26T08:33:39.000Z</time>
      </trkpt>
      <trkpt lat="44.44056" lon="6.30211">
        <ele>1123</ele>
        <time>2024-07-26T08:33:45.000Z</time>
      </trkpt>
      <trkpt lat="44.44045" lon="6.30206">
        <ele>1128</ele>
        <time>2024-07-26T08:33:51.000Z</time>
      </trkpt>
      <trkpt lat="44.44036" lon="6.30199">
        <ele>1131</ele>
        <time>2024-07-26T08:33:57.000Z</time>
      </trkpt>
      <trkpt lat="44.4403" lon="6.30191">
        <ele>1134</ele>
        <time>2024-07-26T08:34:03.000Z</time>
      </trkpt>
      <trkpt lat="44.44021" lon="6.30184">
        <ele>1135</ele>
        <time>2024-07-26T08:34:09.000Z</time>
      </trkpt>
      <trkpt lat="44.44012" lon="6.30179">
        <ele>1137</ele>
        <time>2024-07-26T08:34:15.000Z</time>
      </trkpt>
      <trkpt lat="44.44003" lon="6.30174">
        <ele>1138</ele>
        <time>2024-07-26T08:34:21.000Z</time>
      </trkpt>
      <trkpt lat="44.43993" lon="6.30172">
        <ele>1141</ele>
        <time>2024-07-26T08:34:27.000Z</time>
      </trkpt>
      <trkpt lat="44.43984" lon="6.30169">
        <ele>1142</ele>
        <time>2024-07-26T08:34:33.000Z</time>
      </trkpt>
      <trkpt lat="44.43976" lon="6.30164">
        <ele>1143</ele>
        <time>2024-07-26T08:34:39.000Z</time>
      </trkpt>
      <trkpt lat="44.43967" lon="6.30155">
        <ele>1147</ele>
        <time>2024-07-26T08:34:45.000Z</time>
      </trkpt>
      <trkpt lat="44.43956" lon="6.30151">
        <ele>1146</ele>
        <time>2024-07-26T08:34:51.000Z</time>
      </trkpt>
      <trkpt lat="44.43948" lon="6.30149">
        <ele>1149</ele>
        <time>2024-07-26T08:34:57.000Z</time>
      </trkpt>
      <trkpt lat="44.43943" lon="6.30144">
        <ele>1149</ele>
        <time>2024-07-26T08:35:03.000Z</time>
      </trkpt>
      <trkpt lat="44.4394" lon="6.30149">
        <ele>1150</ele>
        <time>2024-07-26T08:35:09.000Z</time>
      </trkpt>
      <trkpt lat="44.43939" lon="6.30152">
        <ele>1150</ele>
        <time>2024-07-26T08:35:15.000Z</time>
      </trkpt>
      <trkpt lat="44.43947" lon="6.30157">
        <ele>1151</ele>
        <time>2024-07-26T08:35:21.000Z</time>
      </trkpt>
      <trkpt lat="44.43958" lon="6.30159">
        <ele>1151</ele>
        <time>2024-07-26T08:35:27.000Z</time>
      </trkpt>
      <trkpt lat="44.43968" lon="6.30157">
        <ele>1153</ele>
        <time>2024-07-26T08:35:33.000Z</time>
      </trkpt>
      <trkpt lat="44.43976" lon="6.30151">
        <ele>1154</ele>
        <time>2024-07-26T08:35:39.000Z</time>
      </trkpt>
      <trkpt lat="44.43985" lon="6.30142">
        <ele>1156</ele>
        <time>2024-07-26T08:35:45.000Z</time>
      </trkpt>
      <trkpt lat="44.43995" lon="6.30133">
        <ele>1157</ele>
        <time>2024-07-26T08:35:51.000Z</time>
      </trkpt>
      <trkpt lat="44.44003" lon="6.30126">
        <ele>1158</ele>
        <time>2024-07-26T08:35:57.000Z</time>
      </trkpt>
      <trkpt lat="44.44011" lon="6.30116">
        <ele>1160</ele>
        <time>2024-07-26T08:36:03.000Z</time>
      </trkpt>
      <trkpt lat="44.44018" lon="6.30103">
        <ele>1160</ele>
        <time>2024-07-26T08:36:09.000Z</time>
      </trkpt>
      <trkpt lat="44.4403" lon="6.30093">
        <ele>1160</ele>
        <time>2024-07-26T08:36:15.000Z</time>
      </trkpt>
      <trkpt lat="44.44039" lon="6.30082">
        <ele>1163</ele>
        <time>2024-07-26T08:36:21.000Z</time>
      </trkpt>
      <trkpt lat="44.44047" lon="6.30075">
        <ele>1164</ele>
        <time>2024-07-26T08:36:27.000Z</time>
      </trkpt>
      <trkpt lat="44.44057" lon="6.30069">
        <ele>1164</ele>
        <time>2024-07-26T08:36:33.000Z</time>
      </trkpt>
      <trkpt lat="44.44067" lon="6.30056">
        <ele>1165</ele>
        <time>2024-07-26T08:36:39.000Z</time>
      </trkpt>
      <trkpt lat="44.4407" lon="6.3004">
        <ele>1165</ele>
        <time>2024-07-26T08:36:45.000Z</time>
      </trkpt>
      <trkpt lat="44.44066" lon="6.30028">
        <ele>1166</ele>
        <time>2024-07-26T08:36:51.000Z</time>
      </trkpt>
      <trkpt lat="44.44058" lon="6.3002">
        <ele>1170</ele>
        <time>2024-07-26T08:36:57.000Z</time>
      </trkpt>
      <trkpt lat="44.44049" lon="6.30014">
        <ele>1172</ele>
        <time>2024-07-26T08:37:03.000Z</time>
      </trkpt>
      <trkpt lat="44.4404" lon="6.30003">
        <ele>1173</ele>
        <time>2024-07-26T08:37:09.000Z</time>
      </trkpt>
      <trkpt lat="44.44034" lon="6.2999">
        <ele>1177</ele>
        <time>2024-07-26T08:37:15.000Z</time>
      </trkpt>
      <trkpt lat="44.44028" lon="6.29981">
        <ele>1179</ele>
        <time>2024-07-26T08:37:21.000Z</time>
      </trkpt>
      <trkpt lat="44.44024" lon="6.29976">
        <ele>1180</ele>
        <time>2024-07-26T08:37:26.000Z</time>
      </trkpt>
      <trkpt lat="44.4401" lon="6.29965">
        <ele>1183</ele>
        <time>2024-07-26T08:37:33.000Z</time>
      </trkpt>
      <trkpt lat="44.44004" lon="6.29956">
        <ele>1185</ele>
        <time>2024-07-26T08:37:39.000Z</time>
      </trkpt>
      <trkpt lat="44.44002" lon="6.29951">
        <ele>1185</ele>
        <time>2024-07-26T08:37:44.000Z</time>
      </trkpt>
      <trkpt lat="44.43995" lon="6.29938">
        <ele>1189</ele>
        <time>2024-07-26T08:37:51.000Z</time>
      </trkpt>
      <trkpt lat="44.43993" lon="6.29932">
        <ele>1190</ele>
        <time>2024-07-26T08:37:56.000Z</time>
      </trkpt>
      <trkpt lat="44.43984" lon="6.29916">
        <ele>1195</ele>
        <time>2024-07-26T08:38:03.000Z</time>
      </trkpt>
      <trkpt lat="44.4398" lon="6.2991">
        <ele>1195</ele>
        <time>2024-07-26T08:38:08.000Z</time>
      </trkpt>
      <trkpt lat="44.43979" lon="6.29891">
        <ele>1200</ele>
        <time>2024-07-26T08:38:15.000Z</time>
      </trkpt>
      <trkpt lat="44.43976" lon="6.29879">
        <ele>1202</ele>
        <time>2024-07-26T08:38:21.000Z</time>
      </trkpt>
      <trkpt lat="44.43973" lon="6.29871">
        <ele>1204</ele>
        <time>2024-07-26T08:38:26.000Z</time>
      </trkpt>
      <trkpt lat="44.4396" lon="6.2986">
        <ele>1209</ele>
        <time>2024-07-26T08:38:33.000Z</time>
      </trkpt>
      <trkpt lat="44.43948" lon="6.29866">
        <ele>1210</ele>
        <time>2024-07-26T08:38:39.000Z</time>
      </trkpt>
      <trkpt lat="44.43937" lon="6.29868">
        <ele>1213</ele>
        <time>2024-07-26T08:38:45.000Z</time>
      </trkpt>
      <trkpt lat="44.43928" lon="6.29863">
        <ele>1214</ele>
        <time>2024-07-26T08:38:51.000Z</time>
      </trkpt>
      <trkpt lat="44.4392" lon="6.29857">
        <ele>1217</ele>
        <time>2024-07-26T08:38:57.000Z</time>
      </trkpt>
      <trkpt lat="44.43911" lon="6.2985">
        <ele>1221</ele>
        <time>2024-07-26T08:39:03.000Z</time>
      </trkpt>
      <trkpt lat="44.43902" lon="6.29845">
        <ele>1222</ele>
        <time>2024-07-26T08:39:09.000Z</time>
      </trkpt>
      <trkpt lat="44.43893" lon="6.29842">
        <ele>1221</ele>
        <time>2024-07-26T08:39:15.000Z</time>
      </trkpt>
      <trkpt lat="44.43887" lon="6.29836">
        <ele>1223</ele>
        <time>2024-07-26T08:39:21.000Z</time>
      </trkpt>
      <trkpt lat="44.4388" lon="6.29829">
        <ele>1226</ele>
        <time>2024-07-26T08:39:27.000Z</time>
      </trkpt>
      <trkpt lat="44.4387" lon="6.29816">
        <ele>1227</ele>
        <time>2024-07-26T08:39:33.000Z</time>
      </trkpt>
      <trkpt lat="44.43863" lon="6.29809">
        <ele>1230</ele>
        <time>2024-07-26T08:39:39.000Z</time>
      </trkpt>
      <trkpt lat="44.43859" lon="6.298">
        <ele>1230</ele>
        <time>2024-07-26T08:39:45.000Z</time>
      </trkpt>
      <trkpt lat="44.43853" lon="6.29794">
        <ele>1232</ele>
        <time>2024-07-26T08:39:51.000Z</time>
      </trkpt>
      <trkpt lat="44.43845" lon="6.29793">
        <ele>1233</ele>
        <time>2024-07-26T08:39:57.000Z</time>
      </trkpt>
      <trkpt lat="44.43837" lon="6.29789">
        <ele>1236</ele>
        <time>2024-07-26T08:40:03.000Z</time>
      </trkpt>
      <trkpt lat="44.4383" lon="6.29791">
        <ele>1237</ele>
        <time>2024-07-26T08:40:09.000Z</time>
      </trkpt>
      <trkpt lat="44.43821" lon="6.29793">
        <ele>1236</ele>
        <time>2024-07-26T08:40:15.000Z</time>
      </trkpt>
      <trkpt lat="44.4381" lon="6.29795">
        <ele>1238</ele>
        <time>2024-07-26T08:40:21.000Z</time>
      </trkpt>
      <trkpt lat="44.43801" lon="6.29796">
        <ele>1240</ele>
        <time>2024-07-26T08:40:27.000Z</time>
      </trkpt>
      <trkpt lat="44.4379" lon="6.29794">
        <ele>1238</ele>
        <time>2024-07-26T08:40:33.000Z</time>
      </trkpt>
      <trkpt lat="44.43776" lon="6.29791">
        <ele>1242</ele>
        <time>2024-07-26T08:40:39.000Z</time>
      </trkpt>
      <trkpt lat="44.43767" lon="6.29791">
        <ele>1243</ele>
        <time>2024-07-26T08:40:45.000Z</time>
      </trkpt>
      <trkpt lat="44.43758" lon="6.29793">
        <ele>1246</ele>
        <time>2024-07-26T08:40:51.000Z</time>
      </trkpt>
      <trkpt lat="44.43749" lon="6.29795">
        <ele>1245</ele>
        <time>2024-07-26T08:40:57.000Z</time>
      </trkpt>
      <trkpt lat="44.43736" lon="6.29795">
        <ele>1251</ele>
        <time>2024-07-26T08:41:03.000Z</time>
      </trkpt>
      <trkpt lat="44.43725" lon="6.29791">
        <ele>1253</ele>
        <time>2024-07-26T08:41:09.000Z</time>
      </trkpt>
      <trkpt lat="44.43713" lon="6.29788">
        <ele>1255</ele>
        <time>2024-07-26T08:41:15.000Z</time>
      </trkpt>
      <trkpt lat="44.43703" lon="6.29787">
        <ele>1253</ele>
        <time>2024-07-26T08:41:21.000Z</time>
      </trkpt>
      <trkpt lat="44.43693" lon="6.29781">
        <ele>1259</ele>
        <time>2024-07-26T08:41:27.000Z</time>
      </trkpt>
      <trkpt lat="44.43686" lon="6.29775">
        <ele>1260</ele>
        <time>2024-07-26T08:41:33.000Z</time>
      </trkpt>
      <trkpt lat="44.43677" lon="6.29769">
        <ele>1263</ele>
        <time>2024-07-26T08:41:39.000Z</time>
      </trkpt>
      <trkpt lat="44.4367" lon="6.29766">
        <ele>1263</ele>
        <time>2024-07-26T08:41:45.000Z</time>
      </trkpt>
      <trkpt lat="44.43661" lon="6.29763">
        <ele>1264</ele>
        <time>2024-07-26T08:41:51.000Z</time>
      </trkpt>
      <trkpt lat="44.43649" lon="6.29761">
        <ele>1263</ele>
        <time>2024-07-26T08:41:57.000Z</time>
      </trkpt>
      <trkpt lat="44.43638" lon="6.2976">
        <ele>1252</ele>
        <time>2024-07-26T08:42:03.000Z</time>
      </trkpt>
      <trkpt lat="44.43635" lon="6.29755">
        <ele>1262</ele>
        <time>2024-07-26T08:42:09.000Z</time>
      </trkpt>
      <trkpt lat="44.43639" lon="6.2974">
        <ele>1266</ele>
        <time>2024-07-26T08:42:15.000Z</time>
      </trkpt>
      <trkpt lat="44.4364" lon="6.29725">
        <ele>1268</ele>
        <time>2024-07-26T08:42:21.000Z</time>
      </trkpt>
      <trkpt lat="44.4365" lon="6.29714">
        <ele>1270</ele>
        <time>2024-07-26T08:42:27.000Z</time>
      </trkpt>
      <trkpt lat="44.4366" lon="6.29707">
        <ele>1275</ele>
        <time>2024-07-26T08:42:33.000Z</time>
      </trkpt>
      <trkpt lat="44.43667" lon="6.29696">
        <ele>1278</ele>
        <time>2024-07-26T08:42:39.000Z</time>
      </trkpt>
      <trkpt lat="44.4367" lon="6.29685">
        <ele>1282</ele>
        <time>2024-07-26T08:42:45.000Z</time>
      </trkpt>
      <trkpt lat="44.43671" lon="6.29671">
        <ele>1280</ele>
        <time>2024-07-26T08:42:51.000Z</time>
      </trkpt>
      <trkpt lat="44.4367" lon="6.29657">
        <ele>1285</ele>
        <time>2024-07-26T08:42:57.000Z</time>
      </trkpt>
      <trkpt lat="44.43669" lon="6.29645">
        <ele>1289</ele>
        <time>2024-07-26T08:43:03.000Z</time>
      </trkpt>
      <trkpt lat="44.4367" lon="6.29632">
        <ele>1296</ele>
        <time>2024-07-26T08:43:09.000Z</time>
      </trkpt>
      <trkpt lat="44.43668" lon="6.29618">
        <ele>1298</ele>
        <time>2024-07-26T08:43:15.000Z</time>
      </trkpt>
      <trkpt lat="44.43664" lon="6.29608">
        <ele>1303</ele>
        <time>2024-07-26T08:43:21.000Z</time>
      </trkpt>
      <trkpt lat="44.43667" lon="6.29614">
        <ele>1284</ele>
        <time>2024-07-26T08:43:24.000Z</time>
      </trkpt>
      <trkpt lat="44.43663" lon="6.29609">
        <ele>1278</ele>
        <time>2024-07-26T08:43:27.000Z</time>
      </trkpt>
      <trkpt lat="44.43661" lon="6.29608">
        <ele>1281</ele>
        <time>2024-07-26T08:43:38.000Z</time>
      </trkpt>
      <trkpt lat="44.43662" lon="6.29597">
        <ele>1295</ele>
        <time>2024-07-26T08:47:15.000Z</time>
      </trkpt>
      <trkpt lat="44.43659" lon="6.2958">
        <ele>1296</ele>
        <time>2024-07-26T08:47:21.000Z</time>
      </trkpt>
      <trkpt lat="44.43656" lon="6.2957">
        <ele>1309</ele>
        <time>2024-07-26T08:47:27.000Z</time>
      </trkpt>
      <trkpt lat="44.43654" lon="6.29576">
        <ele>1312</ele>
        <time>2024-07-26T08:47:33.000Z</time>
      </trkpt>
      <trkpt lat="44.43648" lon="6.29572">
        <ele>1310</ele>
        <time>2024-07-26T08:47:39.000Z</time>
      </trkpt>
      <trkpt lat="44.43656" lon="6.29571">
        <ele>1298</ele>
        <time>2024-07-26T08:47:46.000Z</time>
      </trkpt>
      <trkpt lat="44.43659" lon="6.29564">
        <ele>1304</ele>
        <time>2024-07-26T08:47:57.000Z</time>
      </trkpt>
      <trkpt lat="44.4367" lon="6.29536">
        <ele>1304</ele>
        <time>2024-07-26T08:48:03.000Z</time>
      </trkpt>
      <trkpt lat="44.43684" lon="6.2952">
        <ele>1303</ele>
        <time>2024-07-26T08:48:09.000Z</time>
      </trkpt>
      <trkpt lat="44.43699" lon="6.29515">
        <ele>1298</ele>
        <time>2024-07-26T08:48:15.000Z</time>
      </trkpt>
      <trkpt lat="44.43716" lon="6.2951">
        <ele>1299</ele>
        <time>2024-07-26T08:48:21.000Z</time>
      </trkpt>
      <trkpt lat="44.43732" lon="6.29503">
        <ele>1298</ele>
        <time>2024-07-26T08:48:27.000Z</time>
      </trkpt>
      <trkpt lat="44.43748" lon="6.29495">
        <ele>1298</ele>
        <time>2024-07-26T08:48:33.000Z</time>
      </trkpt>
      <trkpt lat="44.43762" lon="6.2949">
        <ele>1303</ele>
        <time>2024-07-26T08:48:39.000Z</time>
      </trkpt>
      <trkpt lat="44.43775" lon="6.29488">
        <ele>1303</ele>
        <time>2024-07-26T08:48:45.000Z</time>
      </trkpt>
      <trkpt lat="44.43787" lon="6.29486">
        <ele>1305</ele>
        <time>2024-07-26T08:48:51.000Z</time>
      </trkpt>
      <trkpt lat="44.438" lon="6.29481">
        <ele>1304</ele>
        <time>2024-07-26T08:48:57.000Z</time>
      </trkpt>
      <trkpt lat="44.43813" lon="6.29476">
        <ele>1305</ele>
        <time>2024-07-26T08:49:03.000Z</time>
      </trkpt>
      <trkpt lat="44.43826" lon="6.29469">
        <ele>1311</ele>
        <time>2024-07-26T08:49:09.000Z</time>
      </trkpt>
      <trkpt lat="44.43841" lon="6.29463">
        <ele>1309</ele>
        <time>2024-07-26T08:49:15.000Z</time>
      </trkpt>
      <trkpt lat="44.43854" lon="6.29454">
        <ele>1311</ele>
        <time>2024-07-26T08:49:21.000Z</time>
      </trkpt>
      <trkpt lat="44.43864" lon="6.29448">
        <ele>1311</ele>
        <time>2024-07-26T08:49:27.000Z</time>
      </trkpt>
      <trkpt lat="44.43876" lon="6.29444">
        <ele>1313</ele>
        <time>2024-07-26T08:49:33.000Z</time>
      </trkpt>
      <trkpt lat="44.43887" lon="6.29438">
        <ele>1316</ele>
        <time>2024-07-26T08:49:39.000Z</time>
      </trkpt>
      <trkpt lat="44.43901" lon="6.29429">
        <ele>1314</ele>
        <time>2024-07-26T08:49:45.000Z</time>
      </trkpt>
      <trkpt lat="44.43912" lon="6.29421">
        <ele>1316</ele>
        <time>2024-07-26T08:49:51.000Z</time>
      </trkpt>
      <trkpt lat="44.43916" lon="6.29409">
        <ele>1316</ele>
        <time>2024-07-26T08:49:57.000Z</time>
      </trkpt>
      <trkpt lat="44.43915" lon="6.2941">
        <ele>1316</ele>
        <time>2024-07-26T08:50:09.000Z</time>
      </trkpt>
      <trkpt lat="44.43913" lon="6.29405">
        <ele>1319</ele>
        <time>2024-07-26T08:50:21.000Z</time>
      </trkpt>
      <trkpt lat="44.43915" lon="6.29407">
        <ele>1317</ele>
        <time>2024-07-26T08:50:29.000Z</time>
      </trkpt>
      <trkpt lat="44.43917" lon="6.29414">
        <ele>1320</ele>
        <time>2024-07-26T08:50:33.000Z</time>
      </trkpt>
      <trkpt lat="44.43917" lon="6.29417">
        <ele>1317</ele>
        <time>2024-07-26T08:50:36.000Z</time>
      </trkpt>
      <trkpt lat="44.43906" lon="6.29419">
        <ele>1331</ele>
        <time>2024-07-26T08:51:55.000Z</time>
      </trkpt>
      <trkpt lat="44.43886" lon="6.29426">
        <ele>1330</ele>
        <time>2024-07-26T08:51:59.000Z</time>
      </trkpt>
      <trkpt lat="44.43861" lon="6.29444">
        <ele>1328</ele>
        <time>2024-07-26T08:52:03.000Z</time>
      </trkpt>
      <trkpt lat="44.43852" lon="6.29454">
        <ele>1327</ele>
        <time>2024-07-26T08:52:06.000Z</time>
      </trkpt>
      <trkpt lat="44.43844" lon="6.29463">
        <ele>1322</ele>
        <time>2024-07-26T08:52:09.000Z</time>
      </trkpt>
      <trkpt lat="44.43835" lon="6.2947">
        <ele>1322</ele>
        <time>2024-07-26T08:52:12.000Z</time>
      </trkpt>
      <trkpt lat="44.43826" lon="6.29475">
        <ele>1322</ele>
        <time>2024-07-26T08:52:15.000Z</time>
      </trkpt>
      <trkpt lat="44.43816" lon="6.2948">
        <ele>1319</ele>
        <time>2024-07-26T08:52:18.000Z</time>
      </trkpt>
      <trkpt lat="44.43806" lon="6.29484">
        <ele>1319</ele>
        <time>2024-07-26T08:52:21.000Z</time>
      </trkpt>
      <trkpt lat="44.43793" lon="6.29487">
        <ele>1317</ele>
        <time>2024-07-26T08:52:24.000Z</time>
      </trkpt>
      <trkpt lat="44.43781" lon="6.29493">
        <ele>1317</ele>
        <time>2024-07-26T08:52:27.000Z</time>
      </trkpt>
      <trkpt lat="44.43768" lon="6.29497">
        <ele>1315</ele>
        <time>2024-07-26T08:52:30.000Z</time>
      </trkpt>
      <trkpt lat="44.43753" lon="6.29499">
        <ele>1313</ele>
        <time>2024-07-26T08:52:33.000Z</time>
      </trkpt>
      <trkpt lat="44.43734" lon="6.29505">
        <ele>1310</ele>
        <time>2024-07-26T08:52:36.000Z</time>
      </trkpt>
      <trkpt lat="44.43717" lon="6.29511">
        <ele>1309</ele>
        <time>2024-07-26T08:52:39.000Z</time>
      </trkpt>
      <trkpt lat="44.43699" lon="6.29516">
        <ele>1307</ele>
        <time>2024-07-26T08:52:42.000Z</time>
      </trkpt>
      <trkpt lat="44.43682" lon="6.29522">
        <ele>1307</ele>
        <time>2024-07-26T08:52:45.000Z</time>
      </trkpt>
      <trkpt lat="44.43667" lon="6.29531">
        <ele>1306</ele>
        <time>2024-07-26T08:52:48.000Z</time>
      </trkpt>
      <trkpt lat="44.43662" lon="6.29546">
        <ele>1306</ele>
        <time>2024-07-26T08:52:51.000Z</time>
      </trkpt>
      <trkpt lat="44.43643" lon="6.29578">
        <ele>1307</ele>
        <time>2024-07-26T08:53:06.000Z</time>
      </trkpt>
      <trkpt lat="44.43641" lon="6.29571">
        <ele>1308</ele>
        <time>2024-07-26T08:53:12.000Z</time>
      </trkpt>
      <trkpt lat="44.43643" lon="6.29561">
        <ele>1312</ele>
        <time>2024-07-26T08:53:18.000Z</time>
      </trkpt>
      <trkpt lat="44.43643" lon="6.29549">
        <ele>1312</ele>
        <time>2024-07-26T08:53:21.000Z</time>
      </trkpt>
      <trkpt lat="44.43649" lon="6.29546">
        <ele>1312</ele>
        <time>2024-07-26T08:53:25.000Z</time>
      </trkpt>
      <trkpt lat="44.43651" lon="6.29545">
        <ele>1312</ele>
        <time>2024-07-26T08:53:28.000Z</time>
      </trkpt>
      <trkpt lat="44.43653" lon="6.29546">
        <ele>1313</ele>
        <time>2024-07-26T08:53:46.000Z</time>
      </trkpt>
      <trkpt lat="44.43652" lon="6.29543">
        <ele>1317</ele>
        <time>2024-07-26T08:55:00.000Z</time>
      </trkpt>
      <trkpt lat="44.43652" lon="6.29533">
        <ele>1320</ele>
        <time>2024-07-26T08:55:06.000Z</time>
      </trkpt>
      <trkpt lat="44.43652" lon="6.2953">
        <ele>1323</ele>
        <time>2024-07-26T08:55:09.000Z</time>
      </trkpt>
      <trkpt lat="44.43646" lon="6.29509">
        <ele>1324</ele>
        <time>2024-07-26T08:55:13.000Z</time>
      </trkpt>
      <trkpt lat="44.43641" lon="6.29492">
        <ele>1325</ele>
        <time>2024-07-26T08:55:18.000Z</time>
      </trkpt>
      <trkpt lat="44.4364" lon="6.29489">
        <ele>1328</ele>
        <time>2024-07-26T08:55:21.000Z</time>
      </trkpt>
      <trkpt lat="44.43635" lon="6.29478">
        <ele>1329</ele>
        <time>2024-07-26T08:55:24.000Z</time>
      </trkpt>
      <trkpt lat="44.43633" lon="6.29475">
        <ele>1332</ele>
        <time>2024-07-26T08:55:27.000Z</time>
      </trkpt>
      <trkpt lat="44.43626" lon="6.29464">
        <ele>1333</ele>
        <time>2024-07-26T08:55:30.000Z</time>
      </trkpt>
      <trkpt lat="44.43625" lon="6.29462">
        <ele>1336</ele>
        <time>2024-07-26T08:55:33.000Z</time>
      </trkpt>
      <trkpt lat="44.43625" lon="6.29452">
        <ele>1336</ele>
        <time>2024-07-26T08:55:36.000Z</time>
      </trkpt>
      <trkpt lat="44.43625" lon="6.29449">
        <ele>1340</ele>
        <time>2024-07-26T08:55:39.000Z</time>
      </trkpt>
      <trkpt lat="44.43624" lon="6.29442">
        <ele>1340</ele>
        <time>2024-07-26T08:55:42.000Z</time>
      </trkpt>
      <trkpt lat="44.43623" lon="6.29439">
        <ele>1343</ele>
        <time>2024-07-26T08:55:45.000Z</time>
      </trkpt>
      <trkpt lat="44.43619" lon="6.29432">
        <ele>1344</ele>
        <time>2024-07-26T08:55:48.000Z</time>
      </trkpt>
      <trkpt lat="44.43617" lon="6.2943">
        <ele>1348</ele>
        <time>2024-07-26T08:55:51.000Z</time>
      </trkpt>
      <trkpt lat="44.4361" lon="6.29428">
        <ele>1347</ele>
        <time>2024-07-26T08:55:54.000Z</time>
      </trkpt>
      <trkpt lat="44.43608" lon="6.29427">
        <ele>1347</ele>
        <time>2024-07-26T08:55:57.000Z</time>
      </trkpt>
      <trkpt lat="44.43603" lon="6.29429">
        <ele>1347</ele>
        <time>2024-07-26T08:56:00.000Z</time>
      </trkpt>
      <trkpt lat="44.43599" lon="6.2943">
        <ele>1347</ele>
        <time>2024-07-26T08:56:06.000Z</time>
      </trkpt>
      <trkpt lat="44.43596" lon="6.29425">
        <ele>1348</ele>
        <time>2024-07-26T08:56:12.000Z</time>
      </trkpt>
      <trkpt lat="44.43595" lon="6.29422">
        <ele>1349</ele>
        <time>2024-07-26T08:56:15.000Z</time>
      </trkpt>
      <trkpt lat="44.43594" lon="6.29414">
        <ele>1349</ele>
        <time>2024-07-26T08:56:21.000Z</time>
      </trkpt>
      <trkpt lat="44.43593" lon="6.29405">
        <ele>1351</ele>
        <time>2024-07-26T08:56:27.000Z</time>
      </trkpt>
      <trkpt lat="44.43591" lon="6.294">
        <ele>1351</ele>
        <time>2024-07-26T08:56:33.000Z</time>
      </trkpt>
      <trkpt lat="44.43588" lon="6.29396">
        <ele>1354</ele>
        <time>2024-07-26T08:56:39.000Z</time>
      </trkpt>
      <trkpt lat="44.43584" lon="6.2939">
        <ele>1358</ele>
        <time>2024-07-26T08:56:45.000Z</time>
      </trkpt>
      <trkpt lat="44.4358" lon="6.29382">
        <ele>1359</ele>
        <time>2024-07-26T08:56:51.000Z</time>
      </trkpt>
      <trkpt lat="44.43576" lon="6.2937">
        <ele>1360</ele>
        <time>2024-07-26T08:56:57.000Z</time>
      </trkpt>
      <trkpt lat="44.43575" lon="6.2936">
        <ele>1361</ele>
        <time>2024-07-26T08:57:03.000Z</time>
      </trkpt>
      <trkpt lat="44.43576" lon="6.29346">
        <ele>1364</ele>
        <time>2024-07-26T08:57:09.000Z</time>
      </trkpt>
      <trkpt lat="44.43576" lon="6.29329">
        <ele>1367</ele>
        <time>2024-07-26T08:57:15.000Z</time>
      </trkpt>
      <trkpt lat="44.43573" lon="6.29317">
        <ele>1370</ele>
        <time>2024-07-26T08:57:21.000Z</time>
      </trkpt>
      <trkpt lat="44.43572" lon="6.29308">
        <ele>1373</ele>
        <time>2024-07-26T08:57:27.000Z</time>
      </trkpt>
      <trkpt lat="44.43575" lon="6.29298">
        <ele>1374</ele>
        <time>2024-07-26T08:57:31.000Z</time>
      </trkpt>
      <trkpt lat="44.43575" lon="6.29291">
        <ele>1377</ele>
        <time>2024-07-26T08:57:36.000Z</time>
      </trkpt>
      <trkpt lat="44.43574" lon="6.29288">
        <ele>1379</ele>
        <time>2024-07-26T08:57:39.000Z</time>
      </trkpt>
      <trkpt lat="44.43574" lon="6.29277">
        <ele>1381</ele>
        <time>2024-07-26T08:57:45.000Z</time>
      </trkpt>
      <trkpt lat="44.43579" lon="6.29263">
        <ele>1382</ele>
        <time>2024-07-26T08:57:51.000Z</time>
      </trkpt>
      <trkpt lat="44.43581" lon="6.29255">
        <ele>1385</ele>
        <time>2024-07-26T08:57:57.000Z</time>
      </trkpt>
      <trkpt lat="44.43582" lon="6.29248">
        <ele>1385</ele>
        <time>2024-07-26T08:58:03.000Z</time>
      </trkpt>
      <trkpt lat="44.43581" lon="6.29236">
        <ele>1390</ele>
        <time>2024-07-26T08:58:09.000Z</time>
      </trkpt>
      <trkpt lat="44.43577" lon="6.29228">
        <ele>1390</ele>
        <time>2024-07-26T08:58:15.000Z</time>
      </trkpt>
      <trkpt lat="44.43569" lon="6.29223">
        <ele>1393</ele>
        <time>2024-07-26T08:58:21.000Z</time>
      </trkpt>
      <trkpt lat="44.43564" lon="6.29217">
        <ele>1395</ele>
        <time>2024-07-26T08:58:27.000Z</time>
      </trkpt>
      <trkpt lat="44.43561" lon="6.29211">
        <ele>1398</ele>
        <time>2024-07-26T08:58:33.000Z</time>
      </trkpt>
      <trkpt lat="44.43553" lon="6.29208">
        <ele>1400</ele>
        <time>2024-07-26T08:58:39.000Z</time>
      </trkpt>
      <trkpt lat="44.43545" lon="6.29197">
        <ele>1400</ele>
        <time>2024-07-26T08:58:45.000Z</time>
      </trkpt>
      <trkpt lat="44.43536" lon="6.29189">
        <ele>1403</ele>
        <time>2024-07-26T08:58:51.000Z</time>
      </trkpt>
      <trkpt lat="44.43525" lon="6.29185">
        <ele>1403</ele>
        <time>2024-07-26T08:58:57.000Z</time>
      </trkpt>
      <trkpt lat="44.43514" lon="6.29179">
        <ele>1402</ele>
        <time>2024-07-26T08:59:03.000Z</time>
      </trkpt>
      <trkpt lat="44.43512" lon="6.29175">
        <ele>1403</ele>
        <time>2024-07-26T08:59:09.000Z</time>
      </trkpt>
      <trkpt lat="44.43511" lon="6.29172">
        <ele>1402</ele>
        <time>2024-07-26T08:59:15.000Z</time>
      </trkpt>
      <trkpt lat="44.4351" lon="6.29169">
        <ele>1402</ele>
        <time>2024-07-26T08:59:21.000Z</time>
      </trkpt>
      <trkpt lat="44.43508" lon="6.2917">
        <ele>1403</ele>
        <time>2024-07-26T08:59:42.000Z</time>
      </trkpt>
      <trkpt lat="44.43507" lon="6.29173">
        <ele>1402</ele>
        <time>2024-07-26T08:59:51.000Z</time>
      </trkpt>
      <trkpt lat="44.43509" lon="6.29172">
        <ele>1402</ele>
        <time>2024-07-26T09:00:06.000Z</time>
      </trkpt>
      <trkpt lat="44.4351" lon="6.29175">
        <ele>1402</ele>
        <time>2024-07-26T09:00:39.000Z</time>
      </trkpt>
      <trkpt lat="44.43511" lon="6.29178">
        <ele>1402</ele>
        <time>2024-07-26T09:00:45.000Z</time>
      </trkpt>
      <trkpt lat="44.43511" lon="6.29176">
        <ele>1402</ele>
        <time>2024-07-26T09:00:54.000Z</time>
      </trkpt>
      <trkpt lat="44.43512" lon="6.29177">
        <ele>1403</ele>
        <time>2024-07-26T09:01:18.000Z</time>
      </trkpt>
      <trkpt lat="44.43513" lon="6.2918">
        <ele>1404</ele>
        <time>2024-07-26T09:01:33.000Z</time>
      </trkpt>
      <trkpt lat="44.43511" lon="6.29185">
        <ele>1404</ele>
        <time>2024-07-26T09:01:39.000Z</time>
      </trkpt>
      <trkpt lat="44.43504" lon="6.29186">
        <ele>1405</ele>
        <time>2024-07-26T09:01:45.000Z</time>
      </trkpt>
      <trkpt lat="44.43495" lon="6.29181">
        <ele>1406</ele>
        <time>2024-07-26T09:01:51.000Z</time>
      </trkpt>
      <trkpt lat="44.43486" lon="6.29171">
        <ele>1405</ele>
        <time>2024-07-26T09:01:57.000Z</time>
      </trkpt>
      <trkpt lat="44.43476" lon="6.29162">
        <ele>1407</ele>
        <time>2024-07-26T09:02:03.000Z</time>
      </trkpt>
      <trkpt lat="44.43471" lon="6.29151">
        <ele>1407</ele>
        <time>2024-07-26T09:02:09.000Z</time>
      </trkpt>
      <trkpt lat="44.43465" lon="6.29142">
        <ele>1406</ele>
        <time>2024-07-26T09:02:15.000Z</time>
      </trkpt>
      <trkpt lat="44.43459" lon="6.29135">
        <ele>1408</ele>
        <time>2024-07-26T09:02:21.000Z</time>
      </trkpt>
      <trkpt lat="44.43453" lon="6.29127">
        <ele>1408</ele>
        <time>2024-07-26T09:02:27.000Z</time>
      </trkpt>
      <trkpt lat="44.43446" lon="6.29116">
        <ele>1409</ele>
        <time>2024-07-26T09:02:33.000Z</time>
      </trkpt>
      <trkpt lat="44.43442" lon="6.29101">
        <ele>1409</ele>
        <time>2024-07-26T09:02:39.000Z</time>
      </trkpt>
      <trkpt lat="44.43435" lon="6.29088">
        <ele>1413</ele>
        <time>2024-07-26T09:02:45.000Z</time>
      </trkpt>
      <trkpt lat="44.4343" lon="6.2908">
        <ele>1413</ele>
        <time>2024-07-26T09:02:52.000Z</time>
      </trkpt>
      <trkpt lat="44.43428" lon="6.2907">
        <ele>1417</ele>
        <time>2024-07-26T09:02:58.000Z</time>
      </trkpt>
      <trkpt lat="44.43435" lon="6.29062">
        <ele>1417</ele>
        <time>2024-07-26T09:03:04.000Z</time>
      </trkpt>
      <trkpt lat="44.43443" lon="6.29062">
        <ele>1416</ele>
        <time>2024-07-26T09:03:10.000Z</time>
      </trkpt>
      <trkpt lat="44.43471" lon="6.29073">
        <ele>1404</ele>
        <time>2024-07-26T09:03:18.000Z</time>
      </trkpt>
      <trkpt lat="44.43485" lon="6.29081">
        <ele>1407</ele>
        <time>2024-07-26T09:03:24.000Z</time>
      </trkpt>
      <trkpt lat="44.43501" lon="6.29088">
        <ele>1405</ele>
        <time>2024-07-26T09:03:30.000Z</time>
      </trkpt>
      <trkpt lat="44.43516" lon="6.29088">
        <ele>1405</ele>
        <time>2024-07-26T09:03:36.000Z</time>
      </trkpt>
      <trkpt lat="44.43533" lon="6.29076">
        <ele>1408</ele>
        <time>2024-07-26T09:03:42.000Z</time>
      </trkpt>
      <trkpt lat="44.43541" lon="6.29059">
        <ele>1414</ele>
        <time>2024-07-26T09:03:48.000Z</time>
      </trkpt>
      <trkpt lat="44.43552" lon="6.29045">
        <ele>1419</ele>
        <time>2024-07-26T09:03:54.000Z</time>
      </trkpt>
      <trkpt lat="44.43564" lon="6.29032">
        <ele>1423</ele>
        <time>2024-07-26T09:04:00.000Z</time>
      </trkpt>
      <trkpt lat="44.43569" lon="6.29013">
        <ele>1422</ele>
        <time>2024-07-26T09:04:06.000Z</time>
      </trkpt>
      <trkpt lat="44.43582" lon="6.29">
        <ele>1427</ele>
        <time>2024-07-26T09:04:12.000Z</time>
      </trkpt>
      <trkpt lat="44.43594" lon="6.28993">
        <ele>1426</ele>
        <time>2024-07-26T09:04:18.000Z</time>
      </trkpt>
      <trkpt lat="44.43605" lon="6.28985">
        <ele>1427</ele>
        <time>2024-07-26T09:04:24.000Z</time>
      </trkpt>
      <trkpt lat="44.43616" lon="6.28977">
        <ele>1426</ele>
        <time>2024-07-26T09:04:30.000Z</time>
      </trkpt>
      <trkpt lat="44.43627" lon="6.28967">
        <ele>1425</ele>
        <time>2024-07-26T09:04:36.000Z</time>
      </trkpt>
      <trkpt lat="44.43639" lon="6.28962">
        <ele>1429</ele>
        <time>2024-07-26T09:04:42.000Z</time>
      </trkpt>
      <trkpt lat="44.4365" lon="6.28962">
        <ele>1430</ele>
        <time>2024-07-26T09:04:48.000Z</time>
      </trkpt>
      <trkpt lat="44.4366" lon="6.28961">
        <ele>1434</ele>
        <time>2024-07-26T09:04:54.000Z</time>
      </trkpt>
      <trkpt lat="44.43675" lon="6.28958">
        <ele>1439</ele>
        <time>2024-07-26T09:05:00.000Z</time>
      </trkpt>
      <trkpt lat="44.43691" lon="6.28955">
        <ele>1435</ele>
        <time>2024-07-26T09:05:06.000Z</time>
      </trkpt>
      <trkpt lat="44.43707" lon="6.2895">
        <ele>1431</ele>
        <time>2024-07-26T09:05:12.000Z</time>
      </trkpt>
      <trkpt lat="44.43724" lon="6.28949">
        <ele>1433</ele>
        <time>2024-07-26T09:05:18.000Z</time>
      </trkpt>
      <trkpt lat="44.43739" lon="6.2895">
        <ele>1438</ele>
        <time>2024-07-26T09:05:24.000Z</time>
      </trkpt>
      <trkpt lat="44.43753" lon="6.28951">
        <ele>1429</ele>
        <time>2024-07-26T09:05:30.000Z</time>
      </trkpt>
      <trkpt lat="44.43763" lon="6.28951">
        <ele>1428</ele>
        <time>2024-07-26T09:05:36.000Z</time>
      </trkpt>
      <trkpt lat="44.43774" lon="6.28953">
        <ele>1427</ele>
        <time>2024-07-26T09:05:42.000Z</time>
      </trkpt>
      <trkpt lat="44.43788" lon="6.28959">
        <ele>1434</ele>
        <time>2024-07-26T09:05:48.000Z</time>
      </trkpt>
      <trkpt lat="44.43801" lon="6.2896">
        <ele>1441</ele>
        <time>2024-07-26T09:05:54.000Z</time>
      </trkpt>
      <trkpt lat="44.43814" lon="6.28959">
        <ele>1438</ele>
        <time>2024-07-26T09:06:00.000Z</time>
      </trkpt>
      <trkpt lat="44.43829" lon="6.28959">
        <ele>1441</ele>
        <time>2024-07-26T09:06:06.000Z</time>
      </trkpt>
      <trkpt lat="44.43846" lon="6.28953">
        <ele>1442</ele>
        <time>2024-07-26T09:06:12.000Z</time>
      </trkpt>
      <trkpt lat="44.43862" lon="6.28944">
        <ele>1442</ele>
        <time>2024-07-26T09:06:18.000Z</time>
      </trkpt>
      <trkpt lat="44.43878" lon="6.2893">
        <ele>1442</ele>
        <time>2024-07-26T09:06:24.000Z</time>
      </trkpt>
      <trkpt lat="44.43889" lon="6.28914">
        <ele>1441</ele>
        <time>2024-07-26T09:06:30.000Z</time>
      </trkpt>
      <trkpt lat="44.43906" lon="6.28904">
        <ele>1442</ele>
        <time>2024-07-26T09:06:36.000Z</time>
      </trkpt>
      <trkpt lat="44.43927" lon="6.28895">
        <ele>1444</ele>
        <time>2024-07-26T09:06:42.000Z</time>
      </trkpt>
      <trkpt lat="44.43943" lon="6.28885">
        <ele>1447</ele>
        <time>2024-07-26T09:06:48.000Z</time>
      </trkpt>
      <trkpt lat="44.43956" lon="6.28869">
        <ele>1450</ele>
        <time>2024-07-26T09:06:54.000Z</time>
      </trkpt>
      <trkpt lat="44.4397" lon="6.28858">
        <ele>1450</ele>
        <time>2024-07-26T09:07:00.000Z</time>
      </trkpt>
      <trkpt lat="44.43983" lon="6.28849">
        <ele>1454</ele>
        <time>2024-07-26T09:07:06.000Z</time>
      </trkpt>
      <trkpt lat="44.43995" lon="6.28839">
        <ele>1456</ele>
        <time>2024-07-26T09:07:12.000Z</time>
      </trkpt>
      <trkpt lat="44.44006" lon="6.28826">
        <ele>1454</ele>
        <time>2024-07-26T09:07:18.000Z</time>
      </trkpt>
      <trkpt lat="44.44014" lon="6.28814">
        <ele>1460</ele>
        <time>2024-07-26T09:07:24.000Z</time>
      </trkpt>
      <trkpt lat="44.44022" lon="6.28799">
        <ele>1465</ele>
        <time>2024-07-26T09:07:30.000Z</time>
      </trkpt>
      <trkpt lat="44.44027" lon="6.28786">
        <ele>1469</ele>
        <time>2024-07-26T09:07:36.000Z</time>
      </trkpt>
      <trkpt lat="44.44033" lon="6.28772">
        <ele>1470</ele>
        <time>2024-07-26T09:07:42.000Z</time>
      </trkpt>
      <trkpt lat="44.44035" lon="6.28758">
        <ele>1473</ele>
        <time>2024-07-26T09:07:48.000Z</time>
      </trkpt>
      <trkpt lat="44.44036" lon="6.28744">
        <ele>1471</ele>
        <time>2024-07-26T09:07:54.000Z</time>
      </trkpt>
      <trkpt lat="44.44041" lon="6.28732">
        <ele>1470</ele>
        <time>2024-07-26T09:08:00.000Z</time>
      </trkpt>
      <trkpt lat="44.44047" lon="6.2872">
        <ele>1472</ele>
        <time>2024-07-26T09:08:06.000Z</time>
      </trkpt>
      <trkpt lat="44.44053" lon="6.28709">
        <ele>1473</ele>
        <time>2024-07-26T09:08:12.000Z</time>
      </trkpt>
      <trkpt lat="44.4406" lon="6.28702">
        <ele>1473</ele>
        <time>2024-07-26T09:08:18.000Z</time>
      </trkpt>
      <trkpt lat="44.44068" lon="6.28689">
        <ele>1477</ele>
        <time>2024-07-26T09:08:24.000Z</time>
      </trkpt>
      <trkpt lat="44.44076" lon="6.28679">
        <ele>1479</ele>
        <time>2024-07-26T09:08:30.000Z</time>
      </trkpt>
      <trkpt lat="44.44086" lon="6.2867">
        <ele>1483</ele>
        <time>2024-07-26T09:08:36.000Z</time>
      </trkpt>
      <trkpt lat="44.44092" lon="6.28663">
        <ele>1485</ele>
        <time>2024-07-26T09:08:42.000Z</time>
      </trkpt>
      <trkpt lat="44.44095" lon="6.28654">
        <ele>1487</ele>
        <time>2024-07-26T09:08:48.000Z</time>
      </trkpt>
      <trkpt lat="44.44106" lon="6.28647">
        <ele>1482</ele>
        <time>2024-07-26T09:08:54.000Z</time>
      </trkpt>
      <trkpt lat="44.44123" lon="6.28635">
        <ele>1481</ele>
        <time>2024-07-26T09:09:00.000Z</time>
      </trkpt>
      <trkpt lat="44.44137" lon="6.28621">
        <ele>1491</ele>
        <time>2024-07-26T09:09:06.000Z</time>
      </trkpt>
      <trkpt lat="44.44146" lon="6.28606">
        <ele>1495</ele>
        <time>2024-07-26T09:09:12.000Z</time>
      </trkpt>
      <trkpt lat="44.44154" lon="6.28592">
        <ele>1503</ele>
        <time>2024-07-26T09:09:18.000Z</time>
      </trkpt>
      <trkpt lat="44.4416" lon="6.28582">
        <ele>1500</ele>
        <time>2024-07-26T09:09:24.000Z</time>
      </trkpt>
      <trkpt lat="44.44165" lon="6.28565">
        <ele>1501</ele>
        <time>2024-07-26T09:09:30.000Z</time>
      </trkpt>
      <trkpt lat="44.44172" lon="6.2855">
        <ele>1503</ele>
        <time>2024-07-26T09:09:36.000Z</time>
      </trkpt>
      <trkpt lat="44.44179" lon="6.28535">
        <ele>1505</ele>
        <time>2024-07-26T09:09:42.000Z</time>
      </trkpt>
      <trkpt lat="44.4418" lon="6.28518">
        <ele>1504</ele>
        <time>2024-07-26T09:09:48.000Z</time>
      </trkpt>
      <trkpt lat="44.44177" lon="6.28504">
        <ele>1508</ele>
        <time>2024-07-26T09:09:54.000Z</time>
      </trkpt>
      <trkpt lat="44.44175" lon="6.28491">
        <ele>1510</ele>
        <time>2024-07-26T09:10:00.000Z</time>
      </trkpt>
      <trkpt lat="44.44175" lon="6.28474">
        <ele>1512</ele>
        <time>2024-07-26T09:10:06.000Z</time>
      </trkpt>
      <trkpt lat="44.44171" lon="6.28462">
        <ele>1516</ele>
        <time>2024-07-26T09:10:12.000Z</time>
      </trkpt>
      <trkpt lat="44.44165" lon="6.28448">
        <ele>1513</ele>
        <time>2024-07-26T09:10:18.000Z</time>
      </trkpt>
      <trkpt lat="44.44159" lon="6.28433">
        <ele>1517</ele>
        <time>2024-07-26T09:10:24.000Z</time>
      </trkpt>
      <trkpt lat="44.44151" lon="6.28421">
        <ele>1515</ele>
        <time>2024-07-26T09:10:30.000Z</time>
      </trkpt>
      <trkpt lat="44.44143" lon="6.2841">
        <ele>1514</ele>
        <time>2024-07-26T09:10:36.000Z</time>
      </trkpt>
      <trkpt lat="44.44144" lon="6.28393">
        <ele>1511</ele>
        <time>2024-07-26T09:10:42.000Z</time>
      </trkpt>
      <trkpt lat="44.44143" lon="6.28378">
        <ele>1515</ele>
        <time>2024-07-26T09:10:48.000Z</time>
      </trkpt>
      <trkpt lat="44.44133" lon="6.28367">
        <ele>1520</ele>
        <time>2024-07-26T09:10:54.000Z</time>
      </trkpt>
      <trkpt lat="44.44123" lon="6.28358">
        <ele>1522</ele>
        <time>2024-07-26T09:11:00.000Z</time>
      </trkpt>
      <trkpt lat="44.44112" lon="6.28347">
        <ele>1521</ele>
        <time>2024-07-26T09:11:06.000Z</time>
      </trkpt>
      <trkpt lat="44.44103" lon="6.28338">
        <ele>1521</ele>
        <time>2024-07-26T09:11:12.000Z</time>
      </trkpt>
      <trkpt lat="44.44096" lon="6.28329">
        <ele>1521</ele>
        <time>2024-07-26T09:11:18.000Z</time>
      </trkpt>
      <trkpt lat="44.44089" lon="6.28319">
        <ele>1526</ele>
        <time>2024-07-26T09:11:24.000Z</time>
      </trkpt>
      <trkpt lat="44.44085" lon="6.28306">
        <ele>1530</ele>
        <time>2024-07-26T09:11:30.000Z</time>
      </trkpt>
      <trkpt lat="44.44083" lon="6.28291">
        <ele>1527</ele>
        <time>2024-07-26T09:11:36.000Z</time>
      </trkpt>
      <trkpt lat="44.44079" lon="6.2828">
        <ele>1527</ele>
        <time>2024-07-26T09:11:42.000Z</time>
      </trkpt>
      <trkpt lat="44.44074" lon="6.2828">
        <ele>1528</ele>
        <time>2024-07-26T09:11:48.000Z</time>
      </trkpt>
      <trkpt lat="44.44077" lon="6.28276">
        <ele>1525</ele>
        <time>2024-07-26T09:12:06.000Z</time>
      </trkpt>
      <trkpt lat="44.44083" lon="6.28264">
        <ele>1526</ele>
        <time>2024-07-26T09:12:12.000Z</time>
      </trkpt>
      <trkpt lat="44.44087" lon="6.28254">
        <ele>1531</ele>
        <time>2024-07-26T09:12:18.000Z</time>
      </trkpt>
      <trkpt lat="44.44093" lon="6.2824">
        <ele>1523</ele>
        <time>2024-07-26T09:12:24.000Z</time>
      </trkpt>
      <trkpt lat="44.44098" lon="6.28226">
        <ele>1525</ele>
        <time>2024-07-26T09:12:30.000Z</time>
      </trkpt>
      <trkpt lat="44.44107" lon="6.28217">
        <ele>1537</ele>
        <time>2024-07-26T09:12:36.000Z</time>
      </trkpt>
      <trkpt lat="44.44116" lon="6.28211">
        <ele>1542</ele>
        <time>2024-07-26T09:12:42.000Z</time>
      </trkpt>
      <trkpt lat="44.44123" lon="6.28202">
        <ele>1548</ele>
        <time>2024-07-26T09:12:48.000Z</time>
      </trkpt>
      <trkpt lat="44.4413" lon="6.28192">
        <ele>1549</ele>
        <time>2024-07-26T09:12:54.000Z</time>
      </trkpt>
      <trkpt lat="44.4414" lon="6.28189">
        <ele>1549</ele>
        <time>2024-07-26T09:13:00.000Z</time>
      </trkpt>
      <trkpt lat="44.44151" lon="6.28184">
        <ele>1551</ele>
        <time>2024-07-26T09:13:06.000Z</time>
      </trkpt>
      <trkpt lat="44.4416" lon="6.28177">
        <ele>1559</ele>
        <time>2024-07-26T09:13:12.000Z</time>
      </trkpt>
      <trkpt lat="44.44171" lon="6.28173">
        <ele>1560</ele>
        <time>2024-07-26T09:13:18.000Z</time>
      </trkpt>
      <trkpt lat="44.44175" lon="6.28168">
        <ele>1560</ele>
        <time>2024-07-26T09:13:25.000Z</time>
      </trkpt>
      <trkpt lat="44.44181" lon="6.2816">
        <ele>1564</ele>
        <time>2024-07-26T09:13:30.000Z</time>
      </trkpt>
      <trkpt lat="44.44192" lon="6.28152">
        <ele>1572</ele>
        <time>2024-07-26T09:13:36.000Z</time>
      </trkpt>
      <trkpt lat="44.44202" lon="6.28149">
        <ele>1570</ele>
        <time>2024-07-26T09:13:42.000Z</time>
      </trkpt>
      <trkpt lat="44.44212" lon="6.28148">
        <ele>1569</ele>
        <time>2024-07-26T09:13:48.000Z</time>
      </trkpt>
      <trkpt lat="44.44223" lon="6.28145">
        <ele>1572</ele>
        <time>2024-07-26T09:13:54.000Z</time>
      </trkpt>
      <trkpt lat="44.44232" lon="6.28142">
        <ele>1574</ele>
        <time>2024-07-26T09:14:00.000Z</time>
      </trkpt>
      <trkpt lat="44.44242" lon="6.28137">
        <ele>1575</ele>
        <time>2024-07-26T09:14:06.000Z</time>
      </trkpt>
      <trkpt lat="44.44251" lon="6.28136">
        <ele>1574</ele>
        <time>2024-07-26T09:14:12.000Z</time>
      </trkpt>
      <trkpt lat="44.44261" lon="6.28135">
        <ele>1574</ele>
        <time>2024-07-26T09:14:18.000Z</time>
      </trkpt>
      <trkpt lat="44.44273" lon="6.28137">
        <ele>1573</ele>
        <time>2024-07-26T09:14:24.000Z</time>
      </trkpt>
      <trkpt lat="44.44288" lon="6.28136">
        <ele>1577</ele>
        <time>2024-07-26T09:14:30.000Z</time>
      </trkpt>
      <trkpt lat="44.44298" lon="6.28137">
        <ele>1584</ele>
        <time>2024-07-26T09:14:36.000Z</time>
      </trkpt>
      <trkpt lat="44.44308" lon="6.28136">
        <ele>1585</ele>
        <time>2024-07-26T09:14:42.000Z</time>
      </trkpt>
      <trkpt lat="44.44322" lon="6.28132">
        <ele>1591</ele>
        <time>2024-07-26T09:14:48.000Z</time>
      </trkpt>
      <trkpt lat="44.44335" lon="6.28129">
        <ele>1589</ele>
        <time>2024-07-26T09:14:54.000Z</time>
      </trkpt>
      <trkpt lat="44.44349" lon="6.28126">
        <ele>1587</ele>
        <time>2024-07-26T09:15:00.000Z</time>
      </trkpt>
      <trkpt lat="44.44362" lon="6.28117">
        <ele>1585</ele>
        <time>2024-07-26T09:15:06.000Z</time>
      </trkpt>
      <trkpt lat="44.44377" lon="6.28112">
        <ele>1588</ele>
        <time>2024-07-26T09:15:12.000Z</time>
      </trkpt>
      <trkpt lat="44.44393" lon="6.28108">
        <ele>1591</ele>
        <time>2024-07-26T09:15:18.000Z</time>
      </trkpt>
      <trkpt lat="44.44391" lon="6.28085">
        <ele>1579</ele>
        <time>2024-07-26T09:15:24.000Z</time>
      </trkpt>
      <trkpt lat="44.44402" lon="6.28085">
        <ele>1583</ele>
        <time>2024-07-26T09:15:30.000Z</time>
      </trkpt>
      <trkpt lat="44.44415" lon="6.28087">
        <ele>1590</ele>
        <time>2024-07-26T09:15:36.000Z</time>
      </trkpt>
      <trkpt lat="44.44423" lon="6.2808">
        <ele>1591</ele>
        <time>2024-07-26T09:15:42.000Z</time>
      </trkpt>
      <trkpt lat="44.44431" lon="6.28071">
        <ele>1594</ele>
        <time>2024-07-26T09:15:48.000Z</time>
      </trkpt>
      <trkpt lat="44.44441" lon="6.28061">
        <ele>1598</ele>
        <time>2024-07-26T09:15:54.000Z</time>
      </trkpt>
      <trkpt lat="44.44446" lon="6.2805">
        <ele>1604</ele>
        <time>2024-07-26T09:16:00.000Z</time>
      </trkpt>
      <trkpt lat="44.4445" lon="6.28028">
        <ele>1603</ele>
        <time>2024-07-26T09:16:06.000Z</time>
      </trkpt>
      <trkpt lat="44.4445" lon="6.28009">
        <ele>1608</ele>
        <time>2024-07-26T09:16:12.000Z</time>
      </trkpt>
      <trkpt lat="44.44447" lon="6.28">
        <ele>1611</ele>
        <time>2024-07-26T09:16:18.000Z</time>
      </trkpt>
      <trkpt lat="44.44439" lon="6.27992">
        <ele>1612</ele>
        <time>2024-07-26T09:16:24.000Z</time>
      </trkpt>
      <trkpt lat="44.44435" lon="6.2798">
        <ele>1615</ele>
        <time>2024-07-26T09:16:30.000Z</time>
      </trkpt>
      <trkpt lat="44.44433" lon="6.27967">
        <ele>1616</ele>
        <time>2024-07-26T09:16:36.000Z</time>
      </trkpt>
      <trkpt lat="44.44439" lon="6.2796">
        <ele>1615</ele>
        <time>2024-07-26T09:16:42.000Z</time>
      </trkpt>
      <trkpt lat="44.44445" lon="6.27949">
        <ele>1618</ele>
        <time>2024-07-26T09:16:48.000Z</time>
      </trkpt>
      <trkpt lat="44.44453" lon="6.27935">
        <ele>1619</ele>
        <time>2024-07-26T09:16:54.000Z</time>
      </trkpt>
      <trkpt lat="44.44461" lon="6.27923">
        <ele>1623</ele>
        <time>2024-07-26T09:17:00.000Z</time>
      </trkpt>
      <trkpt lat="44.44472" lon="6.27907">
        <ele>1623</ele>
        <time>2024-07-26T09:17:06.000Z</time>
      </trkpt>
      <trkpt lat="44.44486" lon="6.27892">
        <ele>1625</ele>
        <time>2024-07-26T09:17:12.000Z</time>
      </trkpt>
      <trkpt lat="44.44503" lon="6.27877">
        <ele>1626</ele>
        <time>2024-07-26T09:17:18.000Z</time>
      </trkpt>
      <trkpt lat="44.44512" lon="6.27861">
        <ele>1630</ele>
        <time>2024-07-26T09:17:24.000Z</time>
      </trkpt>
      <trkpt lat="44.44517" lon="6.27837">
        <ele>1626</ele>
        <time>2024-07-26T09:17:30.000Z</time>
      </trkpt>
      <trkpt lat="44.44521" lon="6.27813">
        <ele>1627</ele>
        <time>2024-07-26T09:17:36.000Z</time>
      </trkpt>
      <trkpt lat="44.44526" lon="6.27793">
        <ele>1628</ele>
        <time>2024-07-26T09:17:42.000Z</time>
      </trkpt>
      <trkpt lat="44.44528" lon="6.27775">
        <ele>1630</ele>
        <time>2024-07-26T09:17:48.000Z</time>
      </trkpt>
      <trkpt lat="44.4453" lon="6.27759">
        <ele>1632</ele>
        <time>2024-07-26T09:17:54.000Z</time>
      </trkpt>
      <trkpt lat="44.44528" lon="6.27749">
        <ele>1632</ele>
        <time>2024-07-26T09:18:00.000Z</time>
      </trkpt>
      <trkpt lat="44.44526" lon="6.2774">
        <ele>1630</ele>
        <time>2024-07-26T09:18:06.000Z</time>
      </trkpt>
      <trkpt lat="44.44528" lon="6.27734">
        <ele>1633</ele>
        <time>2024-07-26T09:18:12.000Z</time>
      </trkpt>
      <trkpt lat="44.44529" lon="6.27728">
        <ele>1635</ele>
        <time>2024-07-26T09:18:18.000Z</time>
      </trkpt>
      <trkpt lat="44.4453" lon="6.27732">
        <ele>1630</ele>
        <time>2024-07-26T09:18:24.000Z</time>
      </trkpt>
      <trkpt lat="44.44531" lon="6.27728">
        <ele>687</ele>
        <time>2024-07-26T09:18:30.000Z</time>
      </trkpt>
      <trkpt lat="44.44529" lon="6.27731">
        <ele>687</ele>
        <time>2024-07-26T09:18:36.000Z</time>
      </trkpt>
      <trkpt lat="44.4453" lon="6.27734">
        <ele>687</ele>
        <time>2024-07-26T09:18:42.000Z</time>
      </trkpt>
      <trkpt lat="44.44533" lon="6.27735">
        <ele>687</ele>
        <time>2024-07-26T09:18:48.000Z</time>
      </trkpt>
      <trkpt lat="44.44535" lon="6.27735">
        <ele>687</ele>
        <time>2024-07-26T09:19:06.000Z</time>
      </trkpt>
      <trkpt lat="44.44529" lon="6.27738">
        <ele>1628</ele>
        <time>2024-07-26T09:19:24.000Z</time>
      </trkpt>
      <trkpt lat="44.44532" lon="6.27741">
        <ele>1628</ele>
        <time>2024-07-26T09:19:30.000Z</time>
      </trkpt>
      <trkpt lat="44.44535" lon="6.2774">
        <ele>1630</ele>
        <time>2024-07-26T09:19:36.000Z</time>
      </trkpt>
      <trkpt lat="44.44533" lon="6.27742">
        <ele>1632</ele>
        <time>2024-07-26T09:19:42.000Z</time>
      </trkpt>
      <trkpt lat="44.44537" lon="6.27743">
        <ele>1637</ele>
        <time>2024-07-26T09:19:54.000Z</time>
      </trkpt>
      <trkpt lat="44.44539" lon="6.27743">
        <ele>1638</ele>
        <time>2024-07-26T09:20:24.000Z</time>
      </trkpt>
      <trkpt lat="44.44538" lon="6.27741">
        <ele>1642</ele>
        <time>2024-07-26T09:20:42.000Z</time>
      </trkpt>
      <trkpt lat="44.44536" lon="6.27738">
        <ele>1639</ele>
        <time>2024-07-26T09:20:54.000Z</time>
      </trkpt>
      <trkpt lat="44.44532" lon="6.2774">
        <ele>941</ele>
        <time>2024-07-26T09:21:06.000Z</time>
      </trkpt>
      <trkpt lat="44.4453" lon="6.27739">
        <ele>941</ele>
        <time>2024-07-26T09:21:12.000Z</time>
      </trkpt>
      <trkpt lat="44.44533" lon="6.27739">
        <ele>941</ele>
        <time>2024-07-26T09:21:36.000Z</time>
      </trkpt>
      <trkpt lat="44.44535" lon="6.2774">
        <ele>1642</ele>
        <time>2024-07-26T09:21:48.000Z</time>
      </trkpt>
      <trkpt lat="44.44537" lon="6.2774">
        <ele>941</ele>
        <time>2024-07-26T09:21:54.000Z</time>
      </trkpt>
      <trkpt lat="44.44537" lon="6.27747">
        <ele>941</ele>
        <time>2024-07-26T09:22:00.000Z</time>
      </trkpt>
      <trkpt lat="44.44539" lon="6.27755">
        <ele>1639</ele>
        <time>2024-07-26T09:22:06.000Z</time>
      </trkpt>
      <trkpt lat="44.44544" lon="6.27757">
        <ele>1638</ele>
        <time>2024-07-26T09:22:12.000Z</time>
      </trkpt>
      <trkpt lat="44.44549" lon="6.27761">
        <ele>1641</ele>
        <time>2024-07-26T09:22:18.000Z</time>
      </trkpt>
      <trkpt lat="44.44551" lon="6.27761">
        <ele>1628</ele>
        <time>2024-07-26T09:22:22.000Z</time>
      </trkpt>
      <trkpt lat="44.44549" lon="6.2776">
        <ele>1640</ele>
        <time>2024-07-26T09:22:26.000Z</time>
      </trkpt>
      <trkpt lat="44.44548" lon="6.27756">
        <ele>1637</ele>
        <time>2024-07-26T09:22:42.000Z</time>
      </trkpt>
      <trkpt lat="44.44548" lon="6.27759">
        <ele>1631</ele>
        <time>2024-07-26T09:23:14.000Z</time>
      </trkpt>
      <trkpt lat="44.44546" lon="6.27759">
        <ele>1630</ele>
        <time>2024-07-26T09:23:22.000Z</time>
      </trkpt>
      <trkpt lat="44.44542" lon="6.27758">
        <ele>1635</ele>
        <time>2024-07-26T09:23:24.000Z</time>
      </trkpt>
      <trkpt lat="44.44536" lon="6.27755">
        <ele>1632</ele>
        <time>2024-07-26T09:23:28.000Z</time>
      </trkpt>
      <trkpt lat="44.44533" lon="6.27754">
        <ele>1631</ele>
        <time>2024-07-26T09:23:31.000Z</time>
      </trkpt>
      <trkpt lat="44.44531" lon="6.27756">
        <ele>1632</ele>
        <time>2024-07-26T09:23:34.000Z</time>
      </trkpt>
      <trkpt lat="44.44529" lon="6.27758">
        <ele>1631</ele>
        <time>2024-07-26T09:23:37.000Z</time>
      </trkpt>
      <trkpt lat="44.4453" lon="6.2776">
        <ele>941</ele>
        <time>2024-07-26T09:23:48.000Z</time>
      </trkpt>
      <trkpt lat="44.44532" lon="6.27761">
        <ele>1631</ele>
        <time>2024-07-26T09:24:00.000Z</time>
      </trkpt>
      <trkpt lat="44.44529" lon="6.27761">
        <ele>1631</ele>
        <time>2024-07-26T09:24:32.000Z</time>
      </trkpt>
      <trkpt lat="44.44528" lon="6.27758">
        <ele>1632</ele>
        <time>2024-07-26T09:25:11.000Z</time>
      </trkpt>
      <trkpt lat="44.4453" lon="6.2776">
        <ele>1631</ele>
        <time>2024-07-26T09:25:27.000Z</time>
      </trkpt>
      <trkpt lat="44.44528" lon="6.27761">
        <ele>1630</ele>
        <time>2024-07-26T09:25:40.000Z</time>
      </trkpt>
      <trkpt lat="44.44525" lon="6.27775">
        <ele>1631</ele>
        <time>2024-07-26T09:25:43.000Z</time>
      </trkpt>
      <trkpt lat="44.44525" lon="6.27797">
        <ele>1630</ele>
        <time>2024-07-26T09:25:46.000Z</time>
      </trkpt>
      <trkpt lat="44.44516" lon="6.27817">
        <ele>1627</ele>
        <time>2024-07-26T09:25:49.000Z</time>
      </trkpt>
      <trkpt lat="44.44506" lon="6.27841">
        <ele>1625</ele>
        <time>2024-07-26T09:25:52.000Z</time>
      </trkpt>
      <trkpt lat="44.44492" lon="6.27867">
        <ele>1622</ele>
        <time>2024-07-26T09:25:55.000Z</time>
      </trkpt>
      <trkpt lat="44.44475" lon="6.27889">
        <ele>1623</ele>
        <time>2024-07-26T09:25:58.000Z</time>
      </trkpt>
      <trkpt lat="44.44465" lon="6.27904">
        <ele>1623</ele>
        <time>2024-07-26T09:26:01.000Z</time>
      </trkpt>
      <trkpt lat="44.44457" lon="6.27919">
        <ele>1623</ele>
        <time>2024-07-26T09:26:04.000Z</time>
      </trkpt>
      <trkpt lat="44.44445" lon="6.27934">
        <ele>1622</ele>
        <time>2024-07-26T09:26:07.000Z</time>
      </trkpt>
      <trkpt lat="44.44434" lon="6.27952">
        <ele>1620</ele>
        <time>2024-07-26T09:26:10.000Z</time>
      </trkpt>
      <trkpt lat="44.44427" lon="6.27969">
        <ele>1619</ele>
        <time>2024-07-26T09:26:13.000Z</time>
      </trkpt>
      <trkpt lat="44.44426" lon="6.2799">
        <ele>1615</ele>
        <time>2024-07-26T09:26:16.000Z</time>
      </trkpt>
      <trkpt lat="44.4443" lon="6.28004">
        <ele>1614</ele>
        <time>2024-07-26T09:26:19.000Z</time>
      </trkpt>
      <trkpt lat="44.44433" lon="6.2801">
        <ele>1614</ele>
        <time>2024-07-26T09:26:22.000Z</time>
      </trkpt>
      <trkpt lat="44.4444" lon="6.28018">
        <ele>1613</ele>
        <time>2024-07-26T09:26:25.000Z</time>
      </trkpt>
      <trkpt lat="44.44448" lon="6.28028">
        <ele>1609</ele>
        <time>2024-07-26T09:26:28.000Z</time>
      </trkpt>
      <trkpt lat="44.44444" lon="6.28046">
        <ele>1608</ele>
        <time>2024-07-26T09:26:31.000Z</time>
      </trkpt>
      <trkpt lat="44.44435" lon="6.28066">
        <ele>1604</ele>
        <time>2024-07-26T09:26:34.000Z</time>
      </trkpt>
      <trkpt lat="44.44423" lon="6.28083">
        <ele>1601</ele>
        <time>2024-07-26T09:26:37.000Z</time>
      </trkpt>
      <trkpt lat="44.44413" lon="6.28101">
        <ele>1597</ele>
        <time>2024-07-26T09:26:40.000Z</time>
      </trkpt>
      <trkpt lat="44.44396" lon="6.28105">
        <ele>1595</ele>
        <time>2024-07-26T09:26:43.000Z</time>
      </trkpt>
      <trkpt lat="44.44374" lon="6.28103">
        <ele>1591</ele>
        <time>2024-07-26T09:26:46.000Z</time>
      </trkpt>
      <trkpt lat="44.44354" lon="6.28113">
        <ele>1587</ele>
        <time>2024-07-26T09:26:49.000Z</time>
      </trkpt>
      <trkpt lat="44.44327" lon="6.28121">
        <ele>1586</ele>
        <time>2024-07-26T09:26:52.000Z</time>
      </trkpt>
      <trkpt lat="44.44301" lon="6.28125">
        <ele>1584</ele>
        <time>2024-07-26T09:26:55.000Z</time>
      </trkpt>
      <trkpt lat="44.4428" lon="6.2813">
        <ele>1580</ele>
        <time>2024-07-26T09:26:58.000Z</time>
      </trkpt>
      <trkpt lat="44.44259" lon="6.28131">
        <ele>1575</ele>
        <time>2024-07-26T09:27:01.000Z</time>
      </trkpt>
      <trkpt lat="44.44233" lon="6.28138">
        <ele>1569</ele>
        <time>2024-07-26T09:27:04.000Z</time>
      </trkpt>
      <trkpt lat="44.44209" lon="6.2815">
        <ele>1565</ele>
        <time>2024-07-26T09:27:07.000Z</time>
      </trkpt>
      <trkpt lat="44.44187" lon="6.28154">
        <ele>1561</ele>
        <time>2024-07-26T09:27:10.000Z</time>
      </trkpt>
      <trkpt lat="44.44168" lon="6.28168">
        <ele>1558</ele>
        <time>2024-07-26T09:27:13.000Z</time>
      </trkpt>
      <trkpt lat="44.44152" lon="6.28179">
        <ele>1554</ele>
        <time>2024-07-26T09:27:16.000Z</time>
      </trkpt>
      <trkpt lat="44.44135" lon="6.28191">
        <ele>1550</ele>
        <time>2024-07-26T09:27:19.000Z</time>
      </trkpt>
      <trkpt lat="44.44117" lon="6.28209">
        <ele>1543</ele>
        <time>2024-07-26T09:27:22.000Z</time>
      </trkpt>
      <trkpt lat="44.441" lon="6.28231">
        <ele>1537</ele>
        <time>2024-07-26T09:27:25.000Z</time>
      </trkpt>
      <trkpt lat="44.44087" lon="6.28262">
        <ele>1531</ele>
        <time>2024-07-26T09:27:28.000Z</time>
      </trkpt>
      <trkpt lat="44.44077" lon="6.28294">
        <ele>1528</ele>
        <time>2024-07-26T09:27:31.000Z</time>
      </trkpt>
      <trkpt lat="44.44074" lon="6.28297">
        <ele>1526</ele>
        <time>2024-07-26T09:27:34.000Z</time>
      </trkpt>
      <trkpt lat="44.44073" lon="6.28294">
        <ele>1526</ele>
        <time>2024-07-26T09:27:40.000Z</time>
      </trkpt>
      <trkpt lat="44.44072" lon="6.28291">
        <ele>1526</ele>
        <time>2024-07-26T09:29:02.000Z</time>
      </trkpt>
      <trkpt lat="44.44074" lon="6.2829">
        <ele>1526</ele>
        <time>2024-07-26T09:29:08.000Z</time>
      </trkpt>
      <trkpt lat="44.44073" lon="6.28293">
        <ele>1527</ele>
        <time>2024-07-26T09:29:50.000Z</time>
      </trkpt>
      <trkpt lat="44.44069" lon="6.28301">
        <ele>1525</ele>
        <time>2024-07-26T09:29:53.000Z</time>
      </trkpt>
      <trkpt lat="44.4406" lon="6.28305">
        <ele>1525</ele>
        <time>2024-07-26T09:29:56.000Z</time>
      </trkpt>
      <trkpt lat="44.44053" lon="6.28311">
        <ele>1525</ele>
        <time>2024-07-26T09:29:59.000Z</time>
      </trkpt>
      <trkpt lat="44.44041" lon="6.28326">
        <ele>1525</ele>
        <time>2024-07-26T09:30:02.000Z</time>
      </trkpt>
      <trkpt lat="44.44034" lon="6.28339">
        <ele>1522</ele>
        <time>2024-07-26T09:30:05.000Z</time>
      </trkpt>
      <trkpt lat="44.44032" lon="6.28357">
        <ele>1521</ele>
        <time>2024-07-26T09:30:08.000Z</time>
      </trkpt>
      <trkpt lat="44.4403" lon="6.28377">
        <ele>1522</ele>
        <time>2024-07-26T09:30:11.000Z</time>
      </trkpt>
      <trkpt lat="44.44024" lon="6.28396">
        <ele>1523</ele>
        <time>2024-07-26T09:30:14.000Z</time>
      </trkpt>
      <trkpt lat="44.4402" lon="6.28415">
        <ele>1521</ele>
        <time>2024-07-26T09:30:17.000Z</time>
      </trkpt>
      <trkpt lat="44.44023" lon="6.28459">
        <ele>1518</ele>
        <time>2024-07-26T09:30:25.000Z</time>
      </trkpt>
      <trkpt lat="44.44023" lon="6.28467">
        <ele>1518</ele>
        <time>2024-07-26T09:30:28.000Z</time>
      </trkpt>
      <trkpt lat="44.43995" lon="6.28499">
        <ele>1515</ele>
        <time>2024-07-26T09:30:32.000Z</time>
      </trkpt>
      <trkpt lat="44.43979" lon="6.28549">
        <ele>1510</ele>
        <time>2024-07-26T09:30:38.000Z</time>
      </trkpt>
      <trkpt lat="44.43974" lon="6.28612">
        <ele>1516</ele>
        <time>2024-07-26T09:30:45.000Z</time>
      </trkpt>
      <trkpt lat="44.43964" lon="6.28645">
        <ele>1512</ele>
        <time>2024-07-26T09:30:50.000Z</time>
      </trkpt>
      <trkpt lat="44.43945" lon="6.28674">
        <ele>1502</ele>
        <time>2024-07-26T09:30:56.000Z</time>
      </trkpt>
      <trkpt lat="44.43926" lon="6.28716">
        <ele>1499</ele>
        <time>2024-07-26T09:31:02.000Z</time>
      </trkpt>
      <trkpt lat="44.43898" lon="6.28755">
        <ele>1494</ele>
        <time>2024-07-26T09:31:08.000Z</time>
      </trkpt>
      <trkpt lat="44.43895" lon="6.28799">
        <ele>1487</ele>
        <time>2024-07-26T09:31:14.000Z</time>
      </trkpt>
      <trkpt lat="44.43875" lon="6.28836">
        <ele>1479</ele>
        <time>2024-07-26T09:31:20.000Z</time>
      </trkpt>
      <trkpt lat="44.43847" lon="6.28871">
        <ele>1468</ele>
        <time>2024-07-26T09:31:26.000Z</time>
      </trkpt>
      <trkpt lat="44.43803" lon="6.28932">
        <ele>1462</ele>
        <time>2024-07-26T09:31:38.000Z</time>
      </trkpt>
      <trkpt lat="44.43788" lon="6.28971">
        <ele>1444</ele>
        <time>2024-07-26T09:31:44.000Z</time>
      </trkpt>
      <trkpt lat="44.43781" lon="6.28979">
        <ele>1443</ele>
        <time>2024-07-26T09:31:50.000Z</time>
      </trkpt>
      <trkpt lat="44.43787" lon="6.28981">
        <ele>1441</ele>
        <time>2024-07-26T09:32:02.000Z</time>
      </trkpt>
      <trkpt lat="44.43784" lon="6.28982">
        <ele>1448</ele>
        <time>2024-07-26T09:32:08.000Z</time>
      </trkpt>
      <trkpt lat="44.43782" lon="6.28982">
        <ele>1446</ele>
        <time>2024-07-26T09:32:14.000Z</time>
      </trkpt>
      <trkpt lat="44.43783" lon="6.2898">
        <ele>1442</ele>
        <time>2024-07-26T09:32:32.000Z</time>
      </trkpt>
      <trkpt lat="44.4379" lon="6.28982">
        <ele>1442</ele>
        <time>2024-07-26T09:32:50.000Z</time>
      </trkpt>
      <trkpt lat="44.43828" lon="6.28987">
        <ele>1438</ele>
        <time>2024-07-26T09:32:56.000Z</time>
      </trkpt>
      <trkpt lat="44.43871" lon="6.29001">
        <ele>1433</ele>
        <time>2024-07-26T09:33:02.000Z</time>
      </trkpt>
      <trkpt lat="44.43911" lon="6.28981">
        <ele>1419</ele>
        <time>2024-07-26T09:33:08.000Z</time>
      </trkpt>
      <trkpt lat="44.43959" lon="6.28971">
        <ele>1414</ele>
        <time>2024-07-26T09:33:14.000Z</time>
      </trkpt>
      <trkpt lat="44.44005" lon="6.28983">
        <ele>1429</ele>
        <time>2024-07-26T09:33:20.000Z</time>
      </trkpt>
      <trkpt lat="44.44034" lon="6.28998">
        <ele>1424</ele>
        <time>2024-07-26T09:33:26.000Z</time>
      </trkpt>
      <trkpt lat="44.44045" lon="6.29028">
        <ele>1421</ele>
        <time>2024-07-26T09:33:32.000Z</time>
      </trkpt>
      <trkpt lat="44.44039" lon="6.29057">
        <ele>1414</ele>
        <time>2024-07-26T09:33:38.000Z</time>
      </trkpt>
      <trkpt lat="44.44036" lon="6.29056">
        <ele>1417</ele>
        <time>2024-07-26T09:33:44.000Z</time>
      </trkpt>
      <trkpt lat="44.44041" lon="6.29057">
        <ele>1414</ele>
        <time>2024-07-26T09:33:50.000Z</time>
      </trkpt>
      <trkpt lat="44.44038" lon="6.29055">
        <ele>1416</ele>
        <time>2024-07-26T09:33:56.000Z</time>
      </trkpt>
      <trkpt lat="44.44036" lon="6.29056">
        <ele>1416</ele>
        <time>2024-07-26T09:34:02.000Z</time>
      </trkpt>
      <trkpt lat="44.44036" lon="6.2906">
        <ele>1416</ele>
        <time>2024-07-26T09:34:08.000Z</time>
      </trkpt>
      <trkpt lat="44.44031" lon="6.2907">
        <ele>1416</ele>
        <time>2024-07-26T09:34:14.000Z</time>
      </trkpt>
      <trkpt lat="44.4402" lon="6.29093">
        <ele>1411</ele>
        <time>2024-07-26T09:34:20.000Z</time>
      </trkpt>
      <trkpt lat="44.44039" lon="6.2912">
        <ele>1404</ele>
        <time>2024-07-26T09:34:26.000Z</time>
      </trkpt>
      <trkpt lat="44.44075" lon="6.29133">
        <ele>1400</ele>
        <time>2024-07-26T09:34:32.000Z</time>
      </trkpt>
      <trkpt lat="44.44112" lon="6.29103">
        <ele>1395</ele>
        <time>2024-07-26T09:34:38.000Z</time>
      </trkpt>
      <trkpt lat="44.4416" lon="6.29054">
        <ele>1385</ele>
        <time>2024-07-26T09:34:45.000Z</time>
      </trkpt>
      <trkpt lat="44.44199" lon="6.2903">
        <ele>1384</ele>
        <time>2024-07-26T09:34:50.000Z</time>
      </trkpt>
      <trkpt lat="44.44238" lon="6.29041">
        <ele>1381</ele>
        <time>2024-07-26T09:34:56.000Z</time>
      </trkpt>
      <trkpt lat="44.44229" lon="6.29085">
        <ele>1382</ele>
        <time>2024-07-26T09:35:02.000Z</time>
      </trkpt>
      <trkpt lat="44.44223" lon="6.29164">
        <ele>1365</ele>
        <time>2024-07-26T09:35:09.000Z</time>
      </trkpt>
      <trkpt lat="44.44227" lon="6.29208">
        <ele>1361</ele>
        <time>2024-07-26T09:35:14.000Z</time>
      </trkpt>
      <trkpt lat="44.4423" lon="6.2923">
        <ele>1356</ele>
        <time>2024-07-26T09:35:20.000Z</time>
      </trkpt>
      <trkpt lat="44.4422" lon="6.29245">
        <ele>1352</ele>
        <time>2024-07-26T09:35:26.000Z</time>
      </trkpt>
      <trkpt lat="44.44196" lon="6.29292">
        <ele>1341</ele>
        <time>2024-07-26T09:35:33.000Z</time>
      </trkpt>
      <trkpt lat="44.44185" lon="6.29336">
        <ele>1340</ele>
        <time>2024-07-26T09:35:38.000Z</time>
      </trkpt>
      <trkpt lat="44.4418" lon="6.29391">
        <ele>1330</ele>
        <time>2024-07-26T09:35:44.000Z</time>
      </trkpt>
      <trkpt lat="44.44167" lon="6.29452">
        <ele>1332</ele>
        <time>2024-07-26T09:35:51.000Z</time>
      </trkpt>
      <trkpt lat="44.44171" lon="6.29439">
        <ele>1322</ele>
        <time>2024-07-26T09:35:56.000Z</time>
      </trkpt>
      <trkpt lat="44.44191" lon="6.29429">
        <ele>1320</ele>
        <time>2024-07-26T09:36:02.000Z</time>
      </trkpt>
      <trkpt lat="44.44232" lon="6.2941">
        <ele>1313</ele>
        <time>2024-07-26T09:36:09.000Z</time>
      </trkpt>
      <trkpt lat="44.44266" lon="6.29393">
        <ele>1318</ele>
        <time>2024-07-26T09:36:14.000Z</time>
      </trkpt>
      <trkpt lat="44.44308" lon="6.29383">
        <ele>1311</ele>
        <time>2024-07-26T09:36:21.000Z</time>
      </trkpt>
      <trkpt lat="44.44326" lon="6.29378">
        <ele>1310</ele>
        <time>2024-07-26T09:36:26.000Z</time>
      </trkpt>
      <trkpt lat="44.44358" lon="6.29356">
        <ele>1304</ele>
        <time>2024-07-26T09:36:32.000Z</time>
      </trkpt>
      <trkpt lat="44.44387" lon="6.29326">
        <ele>1292</ele>
        <time>2024-07-26T09:36:39.000Z</time>
      </trkpt>
      <trkpt lat="44.44402" lon="6.29287">
        <ele>1297</ele>
        <time>2024-07-26T09:36:45.000Z</time>
      </trkpt>
      <trkpt lat="44.44429" lon="6.29283">
        <ele>1300</ele>
        <time>2024-07-26T09:36:51.000Z</time>
      </trkpt>
      <trkpt lat="44.44448" lon="6.29275">
        <ele>1302</ele>
        <time>2024-07-26T09:36:56.000Z</time>
      </trkpt>
      <trkpt lat="44.44485" lon="6.29256">
        <ele>1302</ele>
        <time>2024-07-26T09:37:02.000Z</time>
      </trkpt>
      <trkpt lat="44.4451" lon="6.29231">
        <ele>1300</ele>
        <time>2024-07-26T09:37:08.000Z</time>
      </trkpt>
      <trkpt lat="44.4453" lon="6.292">
        <ele>1295</ele>
        <time>2024-07-26T09:37:14.000Z</time>
      </trkpt>
      <trkpt lat="44.4458" lon="6.29134">
        <ele>1292</ele>
        <time>2024-07-26T09:37:26.000Z</time>
      </trkpt>
      <trkpt lat="44.44609" lon="6.29128">
        <ele>1293</ele>
        <time>2024-07-26T09:37:32.000Z</time>
      </trkpt>
      <trkpt lat="44.44621" lon="6.29128">
        <ele>1278</ele>
        <time>2024-07-26T09:37:37.000Z</time>
      </trkpt>
      <trkpt lat="44.44638" lon="6.2923">
        <ele>1279</ele>
        <time>2024-07-26T09:37:44.000Z</time>
      </trkpt>
      <trkpt lat="44.44668" lon="6.29298">
        <ele>1263</ele>
        <time>2024-07-26T09:37:51.000Z</time>
      </trkpt>
      <trkpt lat="44.44691" lon="6.2935">
        <ele>1265</ele>
        <time>2024-07-26T09:37:56.000Z</time>
      </trkpt>
      <trkpt lat="44.44705" lon="6.29291">
        <ele>1248</ele>
        <time>2024-07-26T09:38:03.000Z</time>
      </trkpt>
      <trkpt lat="44.44715" lon="6.29239">
        <ele>1238</ele>
        <time>2024-07-26T09:38:08.000Z</time>
      </trkpt>
      <trkpt lat="44.44773" lon="6.29208">
        <ele>1224</ele>
        <time>2024-07-26T09:38:15.000Z</time>
      </trkpt>
      <trkpt lat="44.44805" lon="6.29152">
        <ele>1223</ele>
        <time>2024-07-26T09:38:21.000Z</time>
      </trkpt>
      <trkpt lat="44.44801" lon="6.2914">
        <ele>1224</ele>
        <time>2024-07-26T09:38:26.000Z</time>
      </trkpt>
      <trkpt lat="44.44796" lon="6.29158">
        <ele>1220</ele>
        <time>2024-07-26T09:38:39.000Z</time>
      </trkpt>
      <trkpt lat="44.448" lon="6.29161">
        <ele>1220</ele>
        <time>2024-07-26T09:38:44.000Z</time>
      </trkpt>
      <trkpt lat="44.44804" lon="6.29163">
        <ele>1219</ele>
        <time>2024-07-26T09:38:50.000Z</time>
      </trkpt>
      <trkpt lat="44.44801" lon="6.29161">
        <ele>1219</ele>
        <time>2024-07-26T09:38:56.000Z</time>
      </trkpt>
      <trkpt lat="44.44796" lon="6.29159">
        <ele>1219</ele>
        <time>2024-07-26T09:39:03.000Z</time>
      </trkpt>
      <trkpt lat="44.44795" lon="6.29167">
        <ele>1217</ele>
        <time>2024-07-26T09:39:08.000Z</time>
      </trkpt>
      <trkpt lat="44.44796" lon="6.29179">
        <ele>1209</ele>
        <time>2024-07-26T09:39:14.000Z</time>
      </trkpt>
      <trkpt lat="44.44816" lon="6.29273">
        <ele>1191</ele>
        <time>2024-07-26T09:39:34.000Z</time>
      </trkpt>
      <trkpt lat="44.44828" lon="6.29311">
        <ele>1185</ele>
        <time>2024-07-26T09:39:39.000Z</time>
      </trkpt>
      <trkpt lat="44.4484" lon="6.29343">
        <ele>1180</ele>
        <time>2024-07-26T09:39:45.000Z</time>
      </trkpt>
      <trkpt lat="44.44851" lon="6.29354">
        <ele>1174</ele>
        <time>2024-07-26T09:39:51.000Z</time>
      </trkpt>
      <trkpt lat="44.44861" lon="6.2936">
        <ele>1168</ele>
        <time>2024-07-26T09:39:56.000Z</time>
      </trkpt>
      <trkpt lat="44.44874" lon="6.29374">
        <ele>1158</ele>
        <time>2024-07-26T09:40:02.000Z</time>
      </trkpt>
      <trkpt lat="44.44888" lon="6.29393">
        <ele>1139</ele>
        <time>2024-07-26T09:40:08.000Z</time>
      </trkpt>
      <trkpt lat="44.44906" lon="6.29401">
        <ele>1131</ele>
        <time>2024-07-26T09:40:14.000Z</time>
      </trkpt>
      <trkpt lat="44.44932" lon="6.29408">
        <ele>1124</ele>
        <time>2024-07-26T09:40:20.000Z</time>
      </trkpt>
      <trkpt lat="44.44946" lon="6.29417">
        <ele>1132</ele>
        <time>2024-07-26T09:40:26.000Z</time>
      </trkpt>
      <trkpt lat="44.44965" lon="6.29412">
        <ele>1106</ele>
        <time>2024-07-26T09:40:32.000Z</time>
      </trkpt>
      <trkpt lat="44.44985" lon="6.29401">
        <ele>1112</ele>
        <time>2024-07-26T09:40:38.000Z</time>
      </trkpt>
      <trkpt lat="44.44996" lon="6.2942">
        <ele>984</ele>
        <time>2024-07-26T09:40:44.000Z</time>
      </trkpt>
      <trkpt lat="44.4499" lon="6.29446">
        <ele>984</ele>
        <time>2024-07-26T09:40:50.000Z</time>
      </trkpt>
      <trkpt lat="44.44986" lon="6.2947">
        <ele>984</ele>
        <time>2024-07-26T09:40:56.000Z</time>
      </trkpt>
      <trkpt lat="44.44989" lon="6.29494">
        <ele>984</ele>
        <time>2024-07-26T09:41:02.000Z</time>
      </trkpt>
      <trkpt lat="44.4498" lon="6.29523">
        <ele>984</ele>
        <time>2024-07-26T09:41:08.000Z</time>
      </trkpt>
      <trkpt lat="44.44979" lon="6.29535">
        <ele>1085</ele>
        <time>2024-07-26T09:41:14.000Z</time>
      </trkpt>
      <trkpt lat="44.44989" lon="6.29552">
        <ele>1081</ele>
        <time>2024-07-26T09:41:20.000Z</time>
      </trkpt>
      <trkpt lat="44.45003" lon="6.29557">
        <ele>1069</ele>
        <time>2024-07-26T09:41:26.000Z</time>
      </trkpt>
      <trkpt lat="44.45046" lon="6.29535">
        <ele>1065</ele>
        <time>2024-07-26T09:41:31.000Z</time>
      </trkpt>
      <trkpt lat="44.45084" lon="6.29547">
        <ele>979</ele>
        <time>2024-07-26T09:41:38.000Z</time>
      </trkpt>
      <trkpt lat="44.45109" lon="6.29543">
        <ele>979</ele>
        <time>2024-07-26T09:41:44.000Z</time>
      </trkpt>
      <trkpt lat="44.45124" lon="6.29539">
        <ele>1036</ele>
        <time>2024-07-26T09:41:49.000Z</time>
      </trkpt>
      <trkpt lat="44.45133" lon="6.29539">
        <ele>1050</ele>
        <time>2024-07-26T09:42:01.000Z</time>
      </trkpt>
      <trkpt lat="44.45122" lon="6.29535">
        <ele>1049</ele>
        <time>2024-07-26T09:42:08.000Z</time>
      </trkpt>
      <trkpt lat="44.45121" lon="6.29532">
        <ele>1049</ele>
        <time>2024-07-26T09:42:19.000Z</time>
      </trkpt>
      <trkpt lat="44.45121" lon="6.29529">
        <ele>1049</ele>
        <time>2024-07-26T09:42:25.000Z</time>
      </trkpt>
      <trkpt lat="44.45162" lon="6.29549">
        <ele>1050</ele>
        <time>2024-07-26T09:43:08.000Z</time>
      </trkpt>
      <trkpt lat="44.45143" lon="6.29545">
        <ele>1049</ele>
        <time>2024-07-26T09:43:15.000Z</time>
      </trkpt>
      <trkpt lat="44.45138" lon="6.29541">
        <ele>1049</ele>
        <time>2024-07-26T09:43:20.000Z</time>
      </trkpt>
      <trkpt lat="44.45149" lon="6.29534">
        <ele>1045</ele>
        <time>2024-07-26T09:43:33.000Z</time>
      </trkpt>
      <trkpt lat="44.45179" lon="6.29523">
        <ele>1040</ele>
        <time>2024-07-26T09:43:38.000Z</time>
      </trkpt>
      <trkpt lat="44.45231" lon="6.29498">
        <ele>1024</ele>
        <time>2024-07-26T09:43:45.000Z</time>
      </trkpt>
      <trkpt lat="44.45256" lon="6.2947">
        <ele>1020</ele>
        <time>2024-07-26T09:43:50.000Z</time>
      </trkpt>
      <trkpt lat="44.45274" lon="6.29428">
        <ele>1022</ele>
        <time>2024-07-26T09:43:56.000Z</time>
      </trkpt>
      <trkpt lat="44.45301" lon="6.29411">
        <ele>1022</ele>
        <time>2024-07-26T09:44:02.000Z</time>
      </trkpt>
      <trkpt lat="44.45327" lon="6.29398">
        <ele>1011</ele>
        <time>2024-07-26T09:44:09.000Z</time>
      </trkpt>
      <trkpt lat="44.45353" lon="6.29384">
        <ele>1008</ele>
        <time>2024-07-26T09:44:14.000Z</time>
      </trkpt>
      <trkpt lat="44.45391" lon="6.29367">
        <ele>1012</ele>
        <time>2024-07-26T09:44:20.000Z</time>
      </trkpt>
      <trkpt lat="44.45427" lon="6.2934">
        <ele>1014</ele>
        <time>2024-07-26T09:44:26.000Z</time>
      </trkpt>
      <trkpt lat="44.45468" lon="6.29337">
        <ele>1003</ele>
        <time>2024-07-26T09:44:33.000Z</time>
      </trkpt>
      <trkpt lat="44.45502" lon="6.29363">
        <ele>1000</ele>
        <time>2024-07-26T09:44:38.000Z</time>
      </trkpt>
      <trkpt lat="44.45537" lon="6.29358">
        <ele>984</ele>
        <time>2024-07-26T09:44:44.000Z</time>
      </trkpt>
      <trkpt lat="44.45437" lon="6.2932">
        <ele>954.20370502467</ele>
        <time>2024-07-26T09:45:23.291Z</time>
      </trkpt>
      <trkpt lat="44.454" lon="6.29283">
        <ele>960.25831763136</ele>
        <time>2024-07-26T09:45:40.269Z</time>
      </trkpt>
      <trkpt lat="44.45379" lon="6.2926">
        <ele>965.83371052656</ele>
        <time>2024-07-26T09:45:50.435Z</time>
      </trkpt>
      <trkpt lat="44.45379" lon="6.29228">
        <ele>967.06992909368</ele>
        <time>2024-07-26T09:45:59.124Z</time>
      </trkpt>
      <trkpt lat="44.45395" lon="6.29169">
        <ele>964.86208955743</ele>
        <time>2024-07-26T09:46:16.102Z</time>
      </trkpt>
      <trkpt lat="44.45397" lon="6.29159">
        <ele>964.61928131545</ele>
        <time>2024-07-26T09:46:18.939Z</time>
      </trkpt>
      <trkpt lat="44.45409" lon="6.29151">
        <ele>962.80525766825</ele>
        <time>2024-07-26T09:46:23.630Z</time>
      </trkpt>
      <trkpt lat="44.45433" lon="6.29099">
        <ele>958.62332677869</ele>
        <time>2024-07-26T09:46:40.608Z</time>
      </trkpt>
      <trkpt lat="44.45458" lon="6.29046">
        <ele>956.72604164494</ele>
        <time>2024-07-26T09:46:57.586Z</time>
      </trkpt>
      <trkpt lat="44.45465" lon="6.29033">
        <ele>956.4526962206</ele>
        <time>2024-07-26T09:47:01.991Z</time>
      </trkpt>
      <trkpt lat="44.45473" lon="6.29026">
        <ele>956.19872630853</ele>
        <time>2024-07-26T09:47:05.734Z</time>
      </trkpt>
      <trkpt lat="44.45481" lon="6.29036">
        <ele>954.91502341101</ele>
        <time>2024-07-26T09:47:09.640Z</time>
      </trkpt>
      <trkpt lat="44.4549" lon="6.29038">
        <ele>954.09349575293</ele>
        <time>2024-07-26T09:47:13.096Z</time>
      </trkpt>
      <trkpt lat="44.45495" lon="6.29026">
        <ele>954.9942485051</ele>
        <time>2024-07-26T09:47:16.746Z</time>
      </trkpt>
      <trkpt lat="44.45499" lon="6.29012">
        <ele>956.32020892906</ele>
        <time>2024-07-26T09:47:20.748Z</time>
      </trkpt>
      <trkpt lat="44.45505" lon="6.28995">
        <ele>959.23391724597</ele>
        <time>2024-07-26T09:47:25.924Z</time>
      </trkpt>
      <trkpt lat="44.45507" lon="6.28977">
        <ele>962.47357248161</ele>
        <time>2024-07-26T09:47:30.769Z</time>
      </trkpt>
      <trkpt lat="44.45512" lon="6.28962">
        <ele>965.94262201429</ele>
        <time>2024-07-26T09:47:35.259Z</time>
      </trkpt>
      <trkpt lat="44.45514" lon="6.28953">
        <ele>967.9772762089</ele>
        <time>2024-07-26T09:47:37.846Z</time>
      </trkpt>
      <trkpt lat="44.45521" lon="6.28944">
        <ele>969.98821605716</ele>
        <time>2024-07-26T09:47:41.190Z</time>
      </trkpt>
      <trkpt lat="44.45517" lon="6.28918">
        <ele>975.78581239544</ele>
        <time>2024-07-26T09:47:48.405Z</time>
      </trkpt>
      <trkpt lat="44.45519" lon="6.28902">
        <ele>979.82184140319</ele>
        <time>2024-07-26T09:47:52.642Z</time>
      </trkpt>
      <trkpt lat="44.45521" lon="6.28885">
        <ele>985.18055783636</ele>
        <time>2024-07-26T09:47:57.487Z</time>
      </trkpt>
      <trkpt lat="44.45519" lon="6.2887">
        <ele>989.84240604816</ele>
        <time>2024-07-26T09:48:01.566Z</time>
      </trkpt>
      <trkpt lat="44.45511" lon="6.28861">
        <ele>992.40565065653</ele>
        <time>2024-07-26T09:48:05.174Z</time>
      </trkpt>
      <trkpt lat="44.45512" lon="6.28841">
        <ele>999.39324819343</ele>
        <time>2024-07-26T09:48:10.777Z</time>
      </trkpt>
      <trkpt lat="44.45519" lon="6.28821">
        <ele>1005.0439538217</ele>
        <time>2024-07-26T09:48:16.724Z</time>
      </trkpt>
      <trkpt lat="44.45529" lon="6.2881">
        <ele>1007.5309730475</ele>
        <time>2024-07-26T09:48:21.389Z</time>
      </trkpt>
      <trkpt lat="44.45533" lon="6.28798">
        <ele>1009.3584535548</ele>
        <time>2024-07-26T09:48:25.040Z</time>
      </trkpt>
      <trkpt lat="44.45539" lon="6.28785">
        <ele>1011.2459884841</ele>
        <time>2024-07-26T09:48:29.181Z</time>
      </trkpt>
      <trkpt lat="44.45544" lon="6.2877">
        <ele>1012.8840692074</ele>
        <time>2024-07-26T09:48:33.719Z</time>
      </trkpt>
      <trkpt lat="44.45548" lon="6.28747">
        <ele>1014.950236956</ele>
        <time>2024-07-26T09:48:40.057Z</time>
      </trkpt>
      <trkpt lat="44.45551" lon="6.28737">
        <ele>1015.3059040867</ele>
        <time>2024-07-26T09:48:43.089Z</time>
      </trkpt>
      <trkpt lat="44.45551" lon="6.28725">
        <ele>1015.799847555</ele>
        <time>2024-07-26T09:48:46.121Z</time>
      </trkpt>
      <trkpt lat="44.45552" lon="6.28719">
        <ele>1016.1194975759</ele>
        <time>2024-07-26T09:48:48.076Z</time>
      </trkpt>
      <trkpt lat="44.45552" lon="6.28706">
        <ele>1015.4739043734</ele>
        <time>2024-07-26T09:48:51.341Z</time>
      </trkpt>
      <trkpt lat="44.45554" lon="6.28696">
        <ele>1014.5431033599</ele>
        <time>2024-07-26T09:48:54.185Z</time>
      </trkpt>
      <trkpt lat="44.45556" lon="6.28687">
        <ele>1013.5418693387</ele>
        <time>2024-07-26T09:48:56.697Z</time>
      </trkpt>
      <trkpt lat="44.45561" lon="6.28678">
        <ele>1011.8228508543</ele>
        <time>2024-07-26T09:48:59.940Z</time>
      </trkpt>
      <trkpt lat="44.45565" lon="6.28671">
        <ele>1010.4526713606</ele>
        <time>2024-07-26T09:49:02.255Z</time>
      </trkpt>
      <trkpt lat="44.45569" lon="6.28667">
        <ele>1009.5398259905</ele>
        <time>2024-07-26T09:49:04.077Z</time>
      </trkpt>
      <trkpt lat="44.45575" lon="6.28668">
        <ele>1009.1123130186</ele>
        <time>2024-07-26T09:49:06.305Z</time>
      </trkpt>
      <trkpt lat="44.45582" lon="6.28667">
        <ele>1007.9659318812</ele>
        <time>2024-07-26T09:49:08.997Z</time>
      </trkpt>
      <trkpt lat="44.45588" lon="6.28663">
        <ele>1006.6792602943</ele>
        <time>2024-07-26T09:49:11.398Z</time>
      </trkpt>
      <trkpt lat="44.45593" lon="6.28658">
        <ele>1005.5575759879</ele>
        <time>2024-07-26T09:49:13.799Z</time>
      </trkpt>
      <trkpt lat="44.45597" lon="6.28658">
        <ele>1005.0323047063</ele>
        <time>2024-07-26T09:49:15.086Z</time>
      </trkpt>
      <trkpt lat="44.45603" lon="6.28653">
        <ele>1003.8580778201</ele>
        <time>2024-07-26T09:49:17.862Z</time>
      </trkpt>
      <trkpt lat="44.45608" lon="6.28643">
        <ele>1002.3763450318</ele>
        <time>2024-07-26T09:49:21.034Z</time>
      </trkpt>
      <trkpt lat="44.45614" lon="6.2864">
        <ele>1001.0641141096</ele>
        <time>2024-07-26T09:49:23.654Z</time>
      </trkpt>
      <trkpt lat="44.45624" lon="6.28635">
        <ele>999.43276457674</ele>
        <time>2024-07-26T09:49:27.531Z</time>
      </trkpt>
      <trkpt lat="44.45632" lon="6.28628">
        <ele>997.74943515418</ele>
        <time>2024-07-26T09:49:30.992Z</time>
      </trkpt>
      <trkpt lat="44.45639" lon="6.28623">
        <ele>996.16142769034</ele>
        <time>2024-07-26T09:49:33.885Z</time>
      </trkpt>
      <trkpt lat="44.45643" lon="6.28618">
        <ele>995.04769158023</ele>
        <time>2024-07-26T09:49:36.035Z</time>
      </trkpt>
      <trkpt lat="44.4565" lon="6.28616">
        <ele>993.86590049744</ele>
        <time>2024-07-26T09:49:38.872Z</time>
      </trkpt>
      <trkpt lat="44.45655" lon="6.28618">
        <ele>993.37593711207</ele>
        <time>2024-07-26T09:49:40.770Z</time>
      </trkpt>
      <trkpt lat="44.45663" lon="6.28614">
        <ele>992.38338260325</ele>
        <time>2024-07-26T09:49:43.720Z</time>
      </trkpt>
      <trkpt lat="44.45669" lon="6.28606">
        <ele>991.04441807889</ele>
        <time>2024-07-26T09:49:46.858Z</time>
      </trkpt>
      <trkpt lat="44.45673" lon="6.286">
        <ele>989.98995663925</ele>
        <time>2024-07-26T09:49:49.250Z</time>
      </trkpt>
      <trkpt lat="44.45679" lon="6.286">
        <ele>989.24150140901</ele>
        <time>2024-07-26T09:49:51.465Z</time>
      </trkpt>
      <trkpt lat="44.45685" lon="6.28595">
        <ele>987.97311333308</ele>
        <time>2024-07-26T09:49:54.072Z</time>
      </trkpt>
      <trkpt lat="44.45689" lon="6.28588">
        <ele>986.56627312088</ele>
        <time>2024-07-26T09:49:56.499Z</time>
      </trkpt>
      <trkpt lat="44.45692" lon="6.28584">
        <ele>985.51520319959</ele>
        <time>2024-07-26T09:49:58.068Z</time>
      </trkpt>
      <trkpt lat="44.45695" lon="6.28586">
        <ele>985.21930081211</ele>
        <time>2024-07-26T09:49:59.632Z</time>
      </trkpt>
      <trkpt lat="44.45699" lon="6.28587">
        <ele>984.36720940094</ele>
        <time>2024-07-26T09:50:01.165Z</time>
      </trkpt>
      <trkpt lat="44.45704" lon="6.28585">
        <ele>982.79478427686</ele>
        <time>2024-07-26T09:50:03.120Z</time>
      </trkpt>
      <trkpt lat="44.45706" lon="6.2858">
        <ele>981.62226691914</ele>
        <time>2024-07-26T09:50:04.529Z</time>
      </trkpt>
      <trkpt lat="44.45704" lon="6.28573">
        <ele>980.86199962159</ele>
        <time>2024-07-26T09:50:06.521Z</time>
      </trkpt>
      <trkpt lat="44.45704" lon="6.28568">
        <ele>979.95005842103</ele>
        <time>2024-07-26T09:50:07.920Z</time>
      </trkpt>
      <trkpt lat="44.457" lon="6.28556">
        <ele>978.81561719198</ele>
        <time>2024-07-26T09:50:11.520Z</time>
      </trkpt>
      <trkpt lat="44.457" lon="6.2855">
        <ele>977.60563821585</ele>
        <time>2024-07-26T09:50:13.273Z</time>
      </trkpt>
      <trkpt lat="44.45698" lon="6.28543">
        <ele>976.98831960813</ele>
        <time>2024-07-26T09:50:15.359Z</time>
      </trkpt>
      <trkpt lat="44.45693" lon="6.28533">
        <ele>976.13772181682</ele>
        <time>2024-07-26T09:50:18.561Z</time>
      </trkpt>
      <trkpt lat="44.45692" lon="6.28525">
        <ele>974.9931966658</ele>
        <time>2024-07-26T09:50:20.627Z</time>
      </trkpt>
      <trkpt lat="44.45689" lon="6.28521">
        <ele>974.64025939379</ele>
        <time>2024-07-26T09:50:22.276Z</time>
      </trkpt>
      <trkpt lat="44.45686" lon="6.28512">
        <ele>973.31511360845</ele>
        <time>2024-07-26T09:50:24.857Z</time>
      </trkpt>
      <trkpt lat="44.45684" lon="6.28505">
        <ele>972.38739278098</ele>
        <time>2024-07-26T09:50:26.943Z</time>
      </trkpt>
      <trkpt lat="44.45686" lon="6.28497">
        <ele>970.89390618929</ele>
        <time>2024-07-26T09:50:29.121Z</time>
      </trkpt>
      <trkpt lat="44.45687" lon="6.28493">
        <ele>970.09740880123</ele>
        <time>2024-07-26T09:50:30.321Z</time>
      </trkpt>
      <trkpt lat="44.4569" lon="6.28485">
        <ele>968.54954985529</ele>
        <time>2024-07-26T09:50:32.781Z</time>
      </trkpt>
      <trkpt lat="44.45689" lon="6.28474">
        <ele>967.42850611761</ele>
        <time>2024-07-26T09:50:35.816Z</time>
      </trkpt>
      <trkpt lat="44.45675" lon="6.28437">
        <ele>965.32426014425</ele>
        <time>2024-07-26T09:50:46.973Z</time>
      </trkpt>
      <trkpt lat="44.45675" lon="6.28417">
        <ele>963.49265565276</ele>
        <time>2024-07-26T09:50:52.467Z</time>
      </trkpt>
      <trkpt lat="44.45679" lon="6.28404">
        <ele>962.49607391486</ele>
        <time>2024-07-26T09:50:56.266Z</time>
      </trkpt>
      <trkpt lat="44.45682" lon="6.28392">
        <ele>961.29203403664</ele>
        <time>2024-07-26T09:50:59.740Z</time>
      </trkpt>
      <trkpt lat="44.45678" lon="6.28381">
        <ele>961.63658518335</ele>
        <time>2024-07-26T09:51:02.866Z</time>
      </trkpt>
      <trkpt lat="44.45667" lon="6.28341">
        <ele>963.08228989542</ele>
        <time>2024-07-26T09:51:14.546Z</time>
      </trkpt>
      <trkpt lat="44.45663" lon="6.28321">
        <ele>964.0660661914</ele>
        <time>2024-07-26T09:51:19.994Z</time>
      </trkpt>
      <trkpt lat="44.45662" lon="6.28311">
        <ele>964.06394853152</ele>
        <time>2024-07-26T09:51:22.783Z</time>
      </trkpt>
      <trkpt lat="44.45655" lon="6.28284">
        <ele>964.48367126898</ele>
        <time>2024-07-26T09:51:30.521Z</time>
      </trkpt>
      <trkpt lat="44.45655" lon="6.28275">
        <ele>963.92649839809</ele>
        <time>2024-07-26T09:51:33.016Z</time>
      </trkpt>
      <trkpt lat="44.45652" lon="6.28266">
        <ele>963.88453257594</ele>
        <time>2024-07-26T09:51:35.703Z</time>
      </trkpt>
      <trkpt lat="44.45648" lon="6.28257">
        <ele>963.79843159439</ele>
        <time>2024-07-26T09:51:38.401Z</time>
      </trkpt>
      <trkpt lat="44.45636" lon="6.28263">
        <ele>967.46517809345</ele>
        <time>2024-07-26T09:51:43.372Z</time>
      </trkpt>
      <trkpt lat="44.45641" lon="6.28258">
        <ele>960.17</ele>
        <time>2024-09-07T16:13:14.186Z</time>
      </trkpt>
      <trkpt lat="44.45638" lon="6.28261">
        <ele>960.17</ele>
        <time>2024-09-07T16:13:16.191Z</time>
      </trkpt>
      <trkpt lat="44.45634" lon="6.28263">
        <ele>960.36</ele>
        <time>2024-09-07T16:13:18.187Z</time>
      </trkpt>
      <trkpt lat="44.4563" lon="6.28266">
        <ele>960.52</ele>
        <time>2024-09-07T16:13:20.187Z</time>
      </trkpt>
      <trkpt lat="44.45626" lon="6.28266">
        <ele>960.61</ele>
        <time>2024-09-07T16:13:22.187Z</time>
      </trkpt>
      <trkpt lat="44.45622" lon="6.28266">
        <ele>960.56</ele>
        <time>2024-09-07T16:13:24.187Z</time>
      </trkpt>
      <trkpt lat="44.45618" lon="6.28263">
        <ele>960.54</ele>
        <time>2024-09-07T16:13:26.187Z</time>
      </trkpt>
      <trkpt lat="44.45615" lon="6.28261">
        <ele>960.51</ele>
        <time>2024-09-07T16:13:28.387Z</time>
      </trkpt>
      <trkpt lat="44.45612" lon="6.28259">
        <ele>960.49</ele>
        <time>2024-09-07T16:13:30.387Z</time>
      </trkpt>
      <trkpt lat="44.45609" lon="6.28255">
        <ele>960.48</ele>
        <time>2024-09-07T16:13:32.030Z</time>
      </trkpt>
      <trkpt lat="44.45606" lon="6.2825">
        <ele>960.52</ele>
        <time>2024-09-07T16:13:34.387Z</time>
      </trkpt>
      <trkpt lat="44.45603" lon="6.28245">
        <ele>960.4</ele>
        <time>2024-09-07T16:13:36.388Z</time>
      </trkpt>
      <trkpt lat="44.45611" lon="6.28233">
        <ele>960.18</ele>
        <time>2024-09-07T16:13:38.136Z</time>
      </trkpt>
      <trkpt lat="44.45609" lon="6.28225">
        <ele>960.39</ele>
        <time>2024-09-07T16:13:40.388Z</time>
      </trkpt>
      <trkpt lat="44.45606" lon="6.28219">
        <ele>960.44</ele>
        <time>2024-09-07T16:13:42.220Z</time>
      </trkpt>
      <trkpt lat="44.45601" lon="6.28216">
        <ele>960.25</ele>
        <time>2024-09-07T16:13:43.974Z</time>
      </trkpt>
      <trkpt lat="44.45596" lon="6.28214">
        <ele>960.24</ele>
        <time>2024-09-07T16:13:46.404Z</time>
      </trkpt>
      <trkpt lat="44.45591" lon="6.28213">
        <ele>960.35</ele>
        <time>2024-09-07T16:13:48.313Z</time>
      </trkpt>
      <trkpt lat="44.45586" lon="6.28213">
        <ele>960.32</ele>
        <time>2024-09-07T16:13:50.386Z</time>
      </trkpt>
      <trkpt lat="44.45582" lon="6.28213">
        <ele>960.45</ele>
        <time>2024-09-07T16:13:52.387Z</time>
      </trkpt>
      <trkpt lat="44.45578" lon="6.28212">
        <ele>960.43</ele>
        <time>2024-09-07T16:13:54.388Z</time>
      </trkpt>
      <trkpt lat="44.45576" lon="6.28208">
        <ele>960.62</ele>
        <time>2024-09-07T16:13:56.387Z</time>
      </trkpt>
      <trkpt lat="44.45573" lon="6.28204">
        <ele>960.58</ele>
        <time>2024-09-07T16:13:58.388Z</time>
      </trkpt>
      <trkpt lat="44.45568" lon="6.28202">
        <ele>960.78</ele>
        <time>2024-09-07T16:14:00.054Z</time>
      </trkpt>
      <trkpt lat="44.45564" lon="6.282">
        <ele>960.94</ele>
        <time>2024-09-07T16:14:02.045Z</time>
      </trkpt>
      <trkpt lat="44.45562" lon="6.28197">
        <ele>961.28</ele>
        <time>2024-09-07T16:14:03.984Z</time>
      </trkpt>
      <trkpt lat="44.45558" lon="6.28192">
        <ele>961.56</ele>
        <time>2024-09-07T16:14:06.387Z</time>
      </trkpt>
      <trkpt lat="44.45551" lon="6.28188">
        <ele>961.44</ele>
        <time>2024-09-07T16:14:08.387Z</time>
      </trkpt>
      <trkpt lat="44.45544" lon="6.28187">
        <ele>961.82</ele>
        <time>2024-09-07T16:14:10.388Z</time>
      </trkpt>
      <trkpt lat="44.45538" lon="6.28186">
        <ele>961.71</ele>
        <time>2024-09-07T16:14:12.388Z</time>
      </trkpt>
      <trkpt lat="44.45533" lon="6.28185">
        <ele>961.78</ele>
        <time>2024-09-07T16:14:14.387Z</time>
      </trkpt>
      <trkpt lat="44.45527" lon="6.28185">
        <ele>962.21</ele>
        <time>2024-09-07T16:14:16.387Z</time>
      </trkpt>
      <trkpt lat="44.45522" lon="6.28186">
        <ele>962.1</ele>
        <time>2024-09-07T16:14:18.387Z</time>
      </trkpt>
      <trkpt lat="44.45516" lon="6.28186">
        <ele>962.3</ele>
        <time>2024-09-07T16:14:20.387Z</time>
      </trkpt>
      <trkpt lat="44.45512" lon="6.2818">
        <ele>962.47</ele>
        <time>2024-09-07T16:14:22.387Z</time>
      </trkpt>
      <trkpt lat="44.45511" lon="6.28175">
        <ele>962.74</ele>
        <time>2024-09-07T16:14:24.387Z</time>
      </trkpt>
      <trkpt lat="44.4551" lon="6.28169">
        <ele>962.97</ele>
        <time>2024-09-07T16:14:26.189Z</time>
      </trkpt>
      <trkpt lat="44.45507" lon="6.28163">
        <ele>963.52</ele>
        <time>2024-09-07T16:14:28.386Z</time>
      </trkpt>
      <trkpt lat="44.45502" lon="6.28159">
        <ele>963.74</ele>
        <time>2024-09-07T16:14:30.387Z</time>
      </trkpt>
      <trkpt lat="44.45493" lon="6.28154">
        <ele>964.16</ele>
        <time>2024-09-07T16:14:32.388Z</time>
      </trkpt>
      <trkpt lat="44.45486" lon="6.28155">
        <ele>964.43</ele>
        <time>2024-09-07T16:14:34.387Z</time>
      </trkpt>
      <trkpt lat="44.4548" lon="6.28159">
        <ele>964.51</ele>
        <time>2024-09-07T16:14:36.386Z</time>
      </trkpt>
      <trkpt lat="44.45476" lon="6.28162">
        <ele>964.57</ele>
        <time>2024-09-07T16:14:38.387Z</time>
      </trkpt>
      <trkpt lat="44.45473" lon="6.2816">
        <ele>964.78</ele>
        <time>2024-09-07T16:14:40.387Z</time>
      </trkpt>
      <trkpt lat="44.45472" lon="6.28158">
        <ele>965.14</ele>
        <time>2024-09-07T16:14:46.002Z</time>
      </trkpt>
      <trkpt lat="44.45473" lon="6.28157">
        <ele>965.42</ele>
        <time>2024-09-07T16:14:53.790Z</time>
      </trkpt>
      <trkpt lat="44.45472" lon="6.28161">
        <ele>965.63</ele>
        <time>2024-09-07T16:14:55.791Z</time>
      </trkpt>
      <trkpt lat="44.45471" lon="6.28162">
        <ele>965.74</ele>
        <time>2024-09-07T16:15:01.858Z</time>
      </trkpt>
      <trkpt lat="44.45471" lon="6.28155">
        <ele>966.14</ele>
        <time>2024-09-07T16:15:03.870Z</time>
      </trkpt>
      <trkpt lat="44.45467" lon="6.28146">
        <ele>966.36</ele>
        <time>2024-09-07T16:15:05.870Z</time>
      </trkpt>
      <trkpt lat="44.45457" lon="6.28138">
        <ele>966.51</ele>
        <time>2024-09-07T16:15:08.770Z</time>
      </trkpt>
      <trkpt lat="44.45451" lon="6.28134">
        <ele>966.06</ele>
        <time>2024-09-07T16:15:10.828Z</time>
      </trkpt>
      <trkpt lat="44.45444" lon="6.2813">
        <ele>966.26</ele>
        <time>2024-09-07T16:15:11.865Z</time>
      </trkpt>
      <trkpt lat="44.45437" lon="6.28128">
        <ele>966.82</ele>
        <time>2024-09-07T16:15:14.772Z</time>
      </trkpt>
      <trkpt lat="44.4543" lon="6.28127">
        <ele>966.68</ele>
        <time>2024-09-07T16:15:15.867Z</time>
      </trkpt>
      <trkpt lat="44.45425" lon="6.28126">
        <ele>966.9</ele>
        <time>2024-09-07T16:15:18.770Z</time>
      </trkpt>
      <trkpt lat="44.45422" lon="6.28126">
        <ele>967.02</ele>
        <time>2024-09-07T16:15:20.771Z</time>
      </trkpt>
      <trkpt lat="44.45418" lon="6.28126">
        <ele>967.05</ele>
        <time>2024-09-07T16:15:22.771Z</time>
      </trkpt>
      <trkpt lat="44.45415" lon="6.28125">
        <ele>967.08</ele>
        <time>2024-09-07T16:15:24.854Z</time>
      </trkpt>
      <trkpt lat="44.45419" lon="6.2813">
        <ele>967.39</ele>
        <time>2024-09-07T16:15:32.708Z</time>
      </trkpt>
      <trkpt lat="44.45416" lon="6.28128">
        <ele>967.45</ele>
        <time>2024-09-07T16:15:37.720Z</time>
      </trkpt>
      <trkpt lat="44.45415" lon="6.28128">
        <ele>967.52</ele>
        <time>2024-09-07T16:15:44.280Z</time>
      </trkpt>
      <trkpt lat="44.45415" lon="6.28125">
        <ele>967.3</ele>
        <time>2024-09-07T16:15:47.792Z</time>
      </trkpt>
      <trkpt lat="44.45415" lon="6.28121">
        <ele>967.37</ele>
        <time>2024-09-07T16:16:32.292Z</time>
      </trkpt>
      <trkpt lat="44.45415" lon="6.28118">
        <ele>968.23</ele>
        <time>2024-09-07T16:16:36.389Z</time>
      </trkpt>
      <trkpt lat="44.4542" lon="6.28105">
        <ele>968.22</ele>
        <time>2024-09-07T16:16:39.293Z</time>
      </trkpt>
      <trkpt lat="44.45422" lon="6.28098">
        <ele>968.46</ele>
        <time>2024-09-07T16:16:44.604Z</time>
      </trkpt>
      <trkpt lat="44.4542" lon="6.28097">
        <ele>968.8</ele>
        <time>2024-09-07T16:16:52.686Z</time>
      </trkpt>
      <trkpt lat="44.45421" lon="6.28098">
        <ele>968.91</ele>
        <time>2024-09-07T16:16:56.694Z</time>
      </trkpt>
      <trkpt lat="44.45422" lon="6.28093">
        <ele>969</ele>
        <time>2024-09-07T16:16:58.651Z</time>
      </trkpt>
      <trkpt lat="44.45423" lon="6.28088">
        <ele>968.94</ele>
        <time>2024-09-07T16:17:00.700Z</time>
      </trkpt>
      <trkpt lat="44.45423" lon="6.28082">
        <ele>968.87</ele>
        <time>2024-09-07T16:17:02.655Z</time>
      </trkpt>
      <trkpt lat="44.45424" lon="6.28078">
        <ele>968.82</ele>
        <time>2024-09-07T16:17:04.649Z</time>
      </trkpt>
      <trkpt lat="44.45425" lon="6.28072">
        <ele>968.61</ele>
        <time>2024-09-07T16:17:07.636Z</time>
      </trkpt>
      <trkpt lat="44.45425" lon="6.28065">
        <ele>968.64</ele>
        <time>2024-09-07T16:17:08.651Z</time>
      </trkpt>
      <trkpt lat="44.45427" lon="6.2806">
        <ele>968.73</ele>
        <time>2024-09-07T16:17:11.620Z</time>
      </trkpt>
      <trkpt lat="44.45429" lon="6.28056">
        <ele>968.77</ele>
        <time>2024-09-07T16:17:12.657Z</time>
      </trkpt>
      <trkpt lat="44.45431" lon="6.28052">
        <ele>968.81</ele>
        <time>2024-09-07T16:17:15.621Z</time>
      </trkpt>
      <trkpt lat="44.45433" lon="6.2805">
        <ele>968.76</ele>
        <time>2024-09-07T16:17:17.628Z</time>
      </trkpt>
      <trkpt lat="44.45435" lon="6.28047">
        <ele>968.76</ele>
        <time>2024-09-07T16:17:19.620Z</time>
      </trkpt>
      <trkpt lat="44.45436" lon="6.28045">
        <ele>968.69</ele>
        <time>2024-09-07T16:18:14.171Z</time>
      </trkpt>
      <trkpt lat="44.45435" lon="6.2803">
        <ele>968.69</ele>
        <time>2024-09-07T16:18:17.038Z</time>
      </trkpt>
      <trkpt lat="44.45436" lon="6.28029">
        <ele>968.04</ele>
        <time>2024-09-07T16:18:19.036Z</time>
      </trkpt>
      <trkpt lat="44.45435" lon="6.28027">
        <ele>968.08</ele>
        <time>2024-09-07T16:18:20.775Z</time>
      </trkpt>
      <trkpt lat="44.45432" lon="6.28026">
        <ele>968.12</ele>
        <time>2024-09-07T16:18:22.038Z</time>
      </trkpt>
      <trkpt lat="44.45426" lon="6.28023">
        <ele>968.05</ele>
        <time>2024-09-07T16:18:24.036Z</time>
      </trkpt>
      <trkpt lat="44.45421" lon="6.28023">
        <ele>968.1</ele>
        <time>2024-09-07T16:18:26.040Z</time>
      </trkpt>
      <trkpt lat="44.45418" lon="6.28024">
        <ele>968.05</ele>
        <time>2024-09-07T16:18:28.137Z</time>
      </trkpt>
      <trkpt lat="44.45414" lon="6.28023">
        <ele>968.08</ele>
        <time>2024-09-07T16:18:30.137Z</time>
      </trkpt>
      <trkpt lat="44.4541" lon="6.28022">
        <ele>968.1</ele>
        <time>2024-09-07T16:18:32.009Z</time>
      </trkpt>
      <trkpt lat="44.45406" lon="6.28022">
        <ele>967.93</ele>
        <time>2024-09-07T16:18:34.139Z</time>
      </trkpt>
      <trkpt lat="44.45402" lon="6.28023">
        <ele>967.88</ele>
        <time>2024-09-07T16:18:35.158Z</time>
      </trkpt>
      <trkpt lat="44.45398" lon="6.28024">
        <ele>967.73</ele>
        <time>2024-09-07T16:18:38.136Z</time>
      </trkpt>
      <trkpt lat="44.45395" lon="6.28023">
        <ele>967.58</ele>
        <time>2024-09-07T16:18:40.136Z</time>
      </trkpt>
      <trkpt lat="44.45392" lon="6.2802">
        <ele>967.47</ele>
        <time>2024-09-07T16:18:42.137Z</time>
      </trkpt>
      <trkpt lat="44.45391" lon="6.28017">
        <ele>967.3</ele>
        <time>2024-09-07T16:18:44.137Z</time>
      </trkpt>
      <trkpt lat="44.45389" lon="6.28014">
        <ele>967.29</ele>
        <time>2024-09-07T16:18:46.137Z</time>
      </trkpt>
      <trkpt lat="44.45388" lon="6.28012">
        <ele>967.2</ele>
        <time>2024-09-07T16:18:53.785Z</time>
      </trkpt>
      <trkpt lat="44.45388" lon="6.28013">
        <ele>966.41</ele>
        <time>2024-09-07T16:18:56.987Z</time>
      </trkpt>
      <trkpt lat="44.45389" lon="6.28014">
        <ele>966.34</ele>
        <time>2024-09-07T16:19:00.102Z</time>
      </trkpt>
      <trkpt lat="44.45388" lon="6.28016">
        <ele>966.53</ele>
        <time>2024-09-07T16:19:02.099Z</time>
      </trkpt>
      <trkpt lat="44.45391" lon="6.28014">
        <ele>966.32</ele>
        <time>2024-09-07T16:19:08.098Z</time>
      </trkpt>
      <trkpt lat="44.45395" lon="6.2801">
        <ele>966.29</ele>
        <time>2024-09-07T16:19:10.098Z</time>
      </trkpt>
      <trkpt lat="44.45399" lon="6.27998">
        <ele>966.21</ele>
        <time>2024-09-07T16:19:12.103Z</time>
      </trkpt>
      <trkpt lat="44.45401" lon="6.27982">
        <ele>966.11</ele>
        <time>2024-09-07T16:19:14.116Z</time>
      </trkpt>
      <trkpt lat="44.45404" lon="6.27973">
        <ele>966.02</ele>
        <time>2024-09-07T16:19:16.109Z</time>
      </trkpt>
      <trkpt lat="44.45409" lon="6.27965">
        <ele>965.91</ele>
        <time>2024-09-07T16:19:18.098Z</time>
      </trkpt>
      <trkpt lat="44.45413" lon="6.27959">
        <ele>965.9</ele>
        <time>2024-09-07T16:19:20.100Z</time>
      </trkpt>
      <trkpt lat="44.45417" lon="6.2795">
        <ele>965.81</ele>
        <time>2024-09-07T16:19:22.051Z</time>
      </trkpt>
      <trkpt lat="44.45419" lon="6.2794">
        <ele>965.37</ele>
        <time>2024-09-07T16:19:24.051Z</time>
      </trkpt>
      <trkpt lat="44.45419" lon="6.27932">
        <ele>965.27</ele>
        <time>2024-09-07T16:19:26.050Z</time>
      </trkpt>
      <trkpt lat="44.45417" lon="6.27927">
        <ele>965.23</ele>
        <time>2024-09-07T16:19:27.945Z</time>
      </trkpt>
      <trkpt lat="44.45415" lon="6.27922">
        <ele>965</ele>
        <time>2024-09-07T16:19:29.133Z</time>
      </trkpt>
      <trkpt lat="44.45417" lon="6.27916">
        <ele>964.92</ele>
        <time>2024-09-07T16:19:32.051Z</time>
      </trkpt>
      <trkpt lat="44.4542" lon="6.27911">
        <ele>964.74</ele>
        <time>2024-09-07T16:19:34.050Z</time>
      </trkpt>
      <trkpt lat="44.45425" lon="6.27907">
        <ele>964.35</ele>
        <time>2024-09-07T16:19:36.052Z</time>
      </trkpt>
      <trkpt lat="44.4543" lon="6.27904">
        <ele>964.22</ele>
        <time>2024-09-07T16:19:38.051Z</time>
      </trkpt>
      <trkpt lat="44.45435" lon="6.279">
        <ele>963.9</ele>
        <time>2024-09-07T16:19:40.053Z</time>
      </trkpt>
      <trkpt lat="44.45441" lon="6.27896">
        <ele>963.72</ele>
        <time>2024-09-07T16:19:42.051Z</time>
      </trkpt>
      <trkpt lat="44.45448" lon="6.27886">
        <ele>963.68</ele>
        <time>2024-09-07T16:19:44.050Z</time>
      </trkpt>
      <trkpt lat="44.45454" lon="6.27868">
        <ele>963.58</ele>
        <time>2024-09-07T16:19:46.051Z</time>
      </trkpt>
      <trkpt lat="44.45457" lon="6.2785">
        <ele>963.4</ele>
        <time>2024-09-07T16:19:48.051Z</time>
      </trkpt>
      <trkpt lat="44.45457" lon="6.27835">
        <ele>963.17</ele>
        <time>2024-09-07T16:19:50.052Z</time>
      </trkpt>
      <trkpt lat="44.4545" lon="6.27825">
        <ele>963.01</ele>
        <time>2024-09-07T16:19:52.149Z</time>
      </trkpt>
      <trkpt lat="44.45441" lon="6.2782">
        <ele>962.78</ele>
        <time>2024-09-07T16:19:54.151Z</time>
      </trkpt>
      <trkpt lat="44.45432" lon="6.27818">
        <ele>962.44</ele>
        <time>2024-09-07T16:19:56.149Z</time>
      </trkpt>
      <trkpt lat="44.45423" lon="6.27818">
        <ele>962.35</ele>
        <time>2024-09-07T16:19:58.153Z</time>
      </trkpt>
      <trkpt lat="44.45415" lon="6.27818">
        <ele>962.23</ele>
        <time>2024-09-07T16:19:59.846Z</time>
      </trkpt>
      <trkpt lat="44.45409" lon="6.27817">
        <ele>961.99</ele>
        <time>2024-09-07T16:20:01.763Z</time>
      </trkpt>
      <trkpt lat="44.45402" lon="6.27816">
        <ele>961.85</ele>
        <time>2024-09-07T16:20:04.149Z</time>
      </trkpt>
      <trkpt lat="44.45393" lon="6.27816">
        <ele>961.72</ele>
        <time>2024-09-07T16:20:06.150Z</time>
      </trkpt>
      <trkpt lat="44.45387" lon="6.27815">
        <ele>961.58</ele>
        <time>2024-09-07T16:20:08.149Z</time>
      </trkpt>
      <trkpt lat="44.45383" lon="6.27812">
        <ele>961.37</ele>
        <time>2024-09-07T16:20:10.150Z</time>
      </trkpt>
      <trkpt lat="44.4538" lon="6.27811">
        <ele>961.1</ele>
        <time>2024-09-07T16:20:12.150Z</time>
      </trkpt>
      <trkpt lat="44.45376" lon="6.27812">
        <ele>960.95</ele>
        <time>2024-09-07T16:20:13.180Z</time>
      </trkpt>
      <trkpt lat="44.45374" lon="6.27814">
        <ele>960.82</ele>
        <time>2024-09-07T16:20:20.722Z</time>
      </trkpt>
      <trkpt lat="44.45373" lon="6.27815">
        <ele>959.64</ele>
        <time>2024-09-07T16:21:09.380Z</time>
      </trkpt>
      <trkpt lat="44.45375" lon="6.27813">
        <ele>959.58</ele>
        <time>2024-09-07T16:21:13.344Z</time>
      </trkpt>
      <trkpt lat="44.45375" lon="6.27812">
        <ele>959.53</ele>
        <time>2024-09-07T16:21:14.344Z</time>
      </trkpt>
      <trkpt lat="44.45386" lon="6.27805">
        <ele>959.52</ele>
        <time>2024-09-07T16:21:16.343Z</time>
      </trkpt>
      <trkpt lat="44.45392" lon="6.27801">
        <ele>959.3</ele>
        <time>2024-09-07T16:21:18.344Z</time>
      </trkpt>
      <trkpt lat="44.45396" lon="6.27794">
        <ele>958.94</ele>
        <time>2024-09-07T16:21:20.344Z</time>
      </trkpt>
      <trkpt lat="44.45399" lon="6.27785">
        <ele>958.29</ele>
        <time>2024-09-07T16:21:22.344Z</time>
      </trkpt>
      <trkpt lat="44.45399" lon="6.27776">
        <ele>958.3</ele>
        <time>2024-09-07T16:21:24.345Z</time>
      </trkpt>
      <trkpt lat="44.454" lon="6.27768">
        <ele>958.41</ele>
        <time>2024-09-07T16:21:26.345Z</time>
      </trkpt>
      <trkpt lat="44.45402" lon="6.27761">
        <ele>958.57</ele>
        <time>2024-09-07T16:21:28.345Z</time>
      </trkpt>
      <trkpt lat="44.45405" lon="6.27753">
        <ele>958.38</ele>
        <time>2024-09-07T16:21:30.344Z</time>
      </trkpt>
      <trkpt lat="44.45407" lon="6.27745">
        <ele>957.94</ele>
        <time>2024-09-07T16:21:32.277Z</time>
      </trkpt>
      <trkpt lat="44.45408" lon="6.27737">
        <ele>958.02</ele>
        <time>2024-09-07T16:21:34.344Z</time>
      </trkpt>
      <trkpt lat="44.45407" lon="6.2773">
        <ele>957.51</ele>
        <time>2024-09-07T16:21:36.345Z</time>
      </trkpt>
      <trkpt lat="44.45407" lon="6.27724">
        <ele>957.41</ele>
        <time>2024-09-07T16:21:38.345Z</time>
      </trkpt>
      <trkpt lat="44.45407" lon="6.27718">
        <ele>956.91</ele>
        <time>2024-09-07T16:21:40.292Z</time>
      </trkpt>
      <trkpt lat="44.45407" lon="6.27711">
        <ele>957.16</ele>
        <time>2024-09-07T16:21:42.343Z</time>
      </trkpt>
      <trkpt lat="44.45405" lon="6.27704">
        <ele>956.93</ele>
        <time>2024-09-07T16:21:44.346Z</time>
      </trkpt>
      <trkpt lat="44.45404" lon="6.27696">
        <ele>956.65</ele>
        <time>2024-09-07T16:21:45.934Z</time>
      </trkpt>
      <trkpt lat="44.45404" lon="6.27689">
        <ele>956.06</ele>
        <time>2024-09-07T16:21:48.345Z</time>
      </trkpt>
      <trkpt lat="44.45402" lon="6.2768">
        <ele>956.47</ele>
        <time>2024-09-07T16:21:50.344Z</time>
      </trkpt>
      <trkpt lat="44.45399" lon="6.27673">
        <ele>956.27</ele>
        <time>2024-09-07T16:21:52.343Z</time>
      </trkpt>
      <trkpt lat="44.45396" lon="6.27665">
        <ele>956.55</ele>
        <time>2024-09-07T16:21:54.343Z</time>
      </trkpt>
      <trkpt lat="44.45394" lon="6.27656">
        <ele>956.58</ele>
        <time>2024-09-07T16:21:56.346Z</time>
      </trkpt>
      <trkpt lat="44.45394" lon="6.2765">
        <ele>956.61</ele>
        <time>2024-09-07T16:21:58.444Z</time>
      </trkpt>
      <trkpt lat="44.45393" lon="6.27644">
        <ele>956.52</ele>
        <time>2024-09-07T16:22:00.443Z</time>
      </trkpt>
      <trkpt lat="44.45391" lon="6.27638">
        <ele>956.63</ele>
        <time>2024-09-07T16:22:02.443Z</time>
      </trkpt>
      <trkpt lat="44.45387" lon="6.27631">
        <ele>956.73</ele>
        <time>2024-09-07T16:22:04.443Z</time>
      </trkpt>
      <trkpt lat="44.45382" lon="6.27626">
        <ele>956.52</ele>
        <time>2024-09-07T16:22:06.444Z</time>
      </trkpt>
      <trkpt lat="44.45377" lon="6.27623">
        <ele>956.7</ele>
        <time>2024-09-07T16:22:08.153Z</time>
      </trkpt>
      <trkpt lat="44.45372" lon="6.27622">
        <ele>956.63</ele>
        <time>2024-09-07T16:22:10.443Z</time>
      </trkpt>
      <trkpt lat="44.45366" lon="6.27621">
        <ele>956.88</ele>
        <time>2024-09-07T16:22:12.445Z</time>
      </trkpt>
      <trkpt lat="44.45361" lon="6.2762">
        <ele>956.93</ele>
        <time>2024-09-07T16:22:14.443Z</time>
      </trkpt>
      <trkpt lat="44.45356" lon="6.27619">
        <ele>957.14</ele>
        <time>2024-09-07T16:22:16.443Z</time>
      </trkpt>
      <trkpt lat="44.45349" lon="6.27617">
        <ele>957.07</ele>
        <time>2024-09-07T16:22:18.444Z</time>
      </trkpt>
      <trkpt lat="44.45341" lon="6.27616">
        <ele>957.11</ele>
        <time>2024-09-07T16:22:20.448Z</time>
      </trkpt>
      <trkpt lat="44.45334" lon="6.27613">
        <ele>957.01</ele>
        <time>2024-09-07T16:22:22.444Z</time>
      </trkpt>
      <trkpt lat="44.45327" lon="6.27611">
        <ele>957.13</ele>
        <time>2024-09-07T16:22:23.962Z</time>
      </trkpt>
      <trkpt lat="44.45321" lon="6.2761">
        <ele>957.05</ele>
        <time>2024-09-07T16:22:26.444Z</time>
      </trkpt>
      <trkpt lat="44.45316" lon="6.27608">
        <ele>957.32</ele>
        <time>2024-09-07T16:22:28.370Z</time>
      </trkpt>
      <trkpt lat="44.45311" lon="6.27607">
        <ele>957.3</ele>
        <time>2024-09-07T16:22:30.443Z</time>
      </trkpt>
      <trkpt lat="44.45308" lon="6.27606">
        <ele>957.27</ele>
        <time>2024-09-07T16:22:32.444Z</time>
      </trkpt>
      <trkpt lat="44.45314" lon="6.27605">
        <ele>957.5</ele>
        <time>2024-09-07T16:22:41.864Z</time>
      </trkpt>
      <trkpt lat="44.45312" lon="6.27606">
        <ele>957.61</ele>
        <time>2024-09-07T16:22:43.392Z</time>
      </trkpt>
      <trkpt lat="44.45313" lon="6.27608">
        <ele>957.73</ele>
        <time>2024-09-07T16:22:45.868Z</time>
      </trkpt>
      <trkpt lat="44.45316" lon="6.27613">
        <ele>957.71</ele>
        <time>2024-09-07T16:22:47.399Z</time>
      </trkpt>
      <trkpt lat="44.45318" lon="6.27616">
        <ele>957.91</ele>
        <time>2024-09-07T16:22:49.542Z</time>
      </trkpt>
      <trkpt lat="44.45322" lon="6.27616">
        <ele>958.04</ele>
        <time>2024-09-07T16:22:51.405Z</time>
      </trkpt>
      <trkpt lat="44.45325" lon="6.27614">
        <ele>958.06</ele>
        <time>2024-09-07T16:22:53.672Z</time>
      </trkpt>
      <trkpt lat="44.45328" lon="6.27608">
        <ele>958.35</ele>
        <time>2024-09-07T16:22:55.407Z</time>
      </trkpt>
      <trkpt lat="44.45332" lon="6.276">
        <ele>958.39</ele>
        <time>2024-09-07T16:22:57.453Z</time>
      </trkpt>
      <trkpt lat="44.45335" lon="6.27589">
        <ele>958.52</ele>
        <time>2024-09-07T16:22:59.882Z</time>
      </trkpt>
      <trkpt lat="44.45336" lon="6.27578">
        <ele>958.62</ele>
        <time>2024-09-07T16:23:01.462Z</time>
      </trkpt>
      <trkpt lat="44.45334" lon="6.2757">
        <ele>958.64</ele>
        <time>2024-09-07T16:23:03.866Z</time>
      </trkpt>
      <trkpt lat="44.45329" lon="6.27567">
        <ele>958.99</ele>
        <time>2024-09-07T16:23:05.373Z</time>
      </trkpt>
      <trkpt lat="44.45327" lon="6.2756">
        <ele>959.1</ele>
        <time>2024-09-07T16:23:07.865Z</time>
      </trkpt>
      <trkpt lat="44.45326" lon="6.27554">
        <ele>959.4</ele>
        <time>2024-09-07T16:23:09.865Z</time>
      </trkpt>
      <trkpt lat="44.45329" lon="6.27552">
        <ele>959.86</ele>
        <time>2024-09-07T16:23:11.865Z</time>
      </trkpt>
      <trkpt lat="44.45332" lon="6.2755">
        <ele>959.96</ele>
        <time>2024-09-07T16:23:13.866Z</time>
      </trkpt>
      <trkpt lat="44.45336" lon="6.27547">
        <ele>960.37</ele>
        <time>2024-09-07T16:23:15.595Z</time>
      </trkpt>
      <trkpt lat="44.45337" lon="6.27543">
        <ele>960.66</ele>
        <time>2024-09-07T16:23:17.864Z</time>
      </trkpt>
      <trkpt lat="44.45339" lon="6.27539">
        <ele>960.92</ele>
        <time>2024-09-07T16:23:19.865Z</time>
      </trkpt>
      <trkpt lat="44.45342" lon="6.27535">
        <ele>961.16</ele>
        <time>2024-09-07T16:23:21.900Z</time>
      </trkpt>
      <trkpt lat="44.45345" lon="6.27531">
        <ele>961.68</ele>
        <time>2024-09-07T16:23:23.894Z</time>
      </trkpt>
      <trkpt lat="44.45348" lon="6.27529">
        <ele>961.64</ele>
        <time>2024-09-07T16:23:25.694Z</time>
      </trkpt>
      <trkpt lat="44.45353" lon="6.27525">
        <ele>962.41</ele>
        <time>2024-09-07T16:23:27.865Z</time>
      </trkpt>
      <trkpt lat="44.45356" lon="6.27521">
        <ele>962.36</ele>
        <time>2024-09-07T16:23:29.864Z</time>
      </trkpt>
      <trkpt lat="44.45358" lon="6.27516">
        <ele>962.71</ele>
        <time>2024-09-07T16:23:31.864Z</time>
      </trkpt>
      <trkpt lat="44.45361" lon="6.27513">
        <ele>962.86</ele>
        <time>2024-09-07T16:23:33.966Z</time>
      </trkpt>
      <trkpt lat="44.45364" lon="6.27509">
        <ele>963.22</ele>
        <time>2024-09-07T16:23:35.049Z</time>
      </trkpt>
      <trkpt lat="44.45366" lon="6.27506">
        <ele>963.44</ele>
        <time>2024-09-07T16:23:37.898Z</time>
      </trkpt>
      <trkpt lat="44.45369" lon="6.27504">
        <ele>963.52</ele>
        <time>2024-09-07T16:23:39.965Z</time>
      </trkpt>
      <trkpt lat="44.45372" lon="6.27502">
        <ele>963.8</ele>
        <time>2024-09-07T16:23:41.966Z</time>
      </trkpt>
      <trkpt lat="44.45375" lon="6.27501">
        <ele>964.07</ele>
        <time>2024-09-07T16:23:43.500Z</time>
      </trkpt>
      <trkpt lat="44.45378" lon="6.27499">
        <ele>964.25</ele>
        <time>2024-09-07T16:23:45.031Z</time>
      </trkpt>
      <trkpt lat="44.4538" lon="6.27497">
        <ele>964.47</ele>
        <time>2024-09-07T16:23:47.965Z</time>
      </trkpt>
      <trkpt lat="44.45383" lon="6.27493">
        <ele>964.6</ele>
        <time>2024-09-07T16:23:49.966Z</time>
      </trkpt>
      <trkpt lat="44.45386" lon="6.27487">
        <ele>964.56</ele>
        <time>2024-09-07T16:23:51.840Z</time>
      </trkpt>
      <trkpt lat="44.45388" lon="6.27482">
        <ele>964.86</ele>
        <time>2024-09-07T16:23:53.857Z</time>
      </trkpt>
      <trkpt lat="44.45391" lon="6.27475">
        <ele>965.37</ele>
        <time>2024-09-07T16:23:55.884Z</time>
      </trkpt>
      <trkpt lat="44.45392" lon="6.27468">
        <ele>965.47</ele>
        <time>2024-09-07T16:23:57.965Z</time>
      </trkpt>
      <trkpt lat="44.45393" lon="6.27461">
        <ele>965.74</ele>
        <time>2024-09-07T16:23:59.046Z</time>
      </trkpt>
      <trkpt lat="44.45392" lon="6.27453">
        <ele>965.81</ele>
        <time>2024-09-07T16:24:01.026Z</time>
      </trkpt>
      <trkpt lat="44.4539" lon="6.27448">
        <ele>965.68</ele>
        <time>2024-09-07T16:24:03.966Z</time>
      </trkpt>
      <trkpt lat="44.4539" lon="6.27443">
        <ele>966.22</ele>
        <time>2024-09-07T16:24:05.040Z</time>
      </trkpt>
      <trkpt lat="44.45391" lon="6.27442">
        <ele>979.26652219569</ele>
        <time>2024-09-07T16:24:05.602Z</time>
      </trkpt>
      <trkpt lat="44.45366" lon="6.27414">
        <ele>989.562803314</ele>
        <time>2024-09-07T16:24:20.347Z</time>
      </trkpt>
      <trkpt lat="44.45347" lon="6.27356">
        <ele>993.34727986863</ele>
        <time>2024-09-07T16:24:40.784Z</time>
      </trkpt>
      <trkpt lat="44.45343" lon="6.27343">
        <ele>993.04019447153</ele>
        <time>2024-09-07T16:24:45.567Z</time>
      </trkpt>
      <trkpt lat="44.4534" lon="6.27343">
        <ele>1033</ele>
        <time>2024-09-07T16:24:46.544Z</time>
      </trkpt>
      <trkpt lat="44.45328" lon="6.27326">
        <ele>1032</ele>
        <time>2024-09-07T16:24:52.544Z</time>
      </trkpt>
      <trkpt lat="44.45319" lon="6.27316">
        <ele>1036</ele>
        <time>2024-09-07T16:24:57.544Z</time>
      </trkpt>
      <trkpt lat="44.45312" lon="6.27305">
        <ele>1038</ele>
        <time>2024-09-07T16:25:03.544Z</time>
      </trkpt>
      <trkpt lat="44.45299" lon="6.27292">
        <ele>1038</ele>
        <time>2024-09-07T16:25:09.544Z</time>
      </trkpt>
      <trkpt lat="44.45287" lon="6.27268">
        <ele>1038</ele>
        <time>2024-09-07T16:25:15.544Z</time>
      </trkpt>
      <trkpt lat="44.45279" lon="6.27245">
        <ele>1044</ele>
        <time>2024-09-07T16:25:21.544Z</time>
      </trkpt>
      <trkpt lat="44.45251" lon="6.27215">
        <ele>1038</ele>
        <time>2024-09-07T16:25:26.544Z</time>
      </trkpt>
      <trkpt lat="44.45248" lon="6.27194">
        <ele>1047</ele>
        <time>2024-09-07T16:25:33.544Z</time>
      </trkpt>
      <trkpt lat="44.45245" lon="6.27175">
        <ele>1048</ele>
        <time>2024-09-07T16:25:39.544Z</time>
      </trkpt>
      <trkpt lat="44.45246" lon="6.27149">
        <ele>1046</ele>
        <time>2024-09-07T16:25:45.544Z</time>
      </trkpt>
      <trkpt lat="44.45178" lon="6.27124">
        <ele>1037</ele>
        <time>2024-09-07T16:25:52.544Z</time>
      </trkpt>
      <trkpt lat="44.45155" lon="6.27128">
        <ele>1034</ele>
        <time>2024-09-07T16:25:57.544Z</time>
      </trkpt>
      <trkpt lat="44.45137" lon="6.27146">
        <ele>1036</ele>
        <time>2024-09-07T16:26:03.544Z</time>
      </trkpt>
      <trkpt lat="44.45121" lon="6.27162">
        <ele>1041</ele>
        <time>2024-09-07T16:26:09.544Z</time>
      </trkpt>
      <trkpt lat="44.45096" lon="6.27157">
        <ele>1050</ele>
        <time>2024-09-07T16:26:15.544Z</time>
      </trkpt>
      <trkpt lat="44.45082" lon="6.2714">
        <ele>1052</ele>
        <time>2024-09-07T16:26:21.544Z</time>
      </trkpt>
      <trkpt lat="44.45084" lon="6.27106">
        <ele>1045</ele>
        <time>2024-09-07T16:26:27.544Z</time>
      </trkpt>
      <trkpt lat="44.45086" lon="6.27062">
        <ele>1021</ele>
        <time>2024-09-07T16:26:33.544Z</time>
      </trkpt>
      <trkpt lat="44.45092" lon="6.27033">
        <ele>1038</ele>
        <time>2024-09-07T16:26:40.544Z</time>
      </trkpt>
      <trkpt lat="44.4509" lon="6.27008">
        <ele>1043</ele>
        <time>2024-09-07T16:26:45.544Z</time>
      </trkpt>
      <trkpt lat="44.45086" lon="6.26979">
        <ele>1044</ele>
        <time>2024-09-07T16:26:51.544Z</time>
      </trkpt>
      <trkpt lat="44.45086" lon="6.26953">
        <ele>1046</ele>
        <time>2024-09-07T16:26:57.544Z</time>
      </trkpt>
      <trkpt lat="44.45081" lon="6.2692">
        <ele>1049</ele>
        <time>2024-09-07T16:27:04.544Z</time>
      </trkpt>
      <trkpt lat="44.45071" lon="6.26901">
        <ele>1053</ele>
        <time>2024-09-07T16:27:09.544Z</time>
      </trkpt>
      <trkpt lat="44.45053" lon="6.26874">
        <ele>1052</ele>
        <time>2024-09-07T16:27:15.544Z</time>
      </trkpt>
      <trkpt lat="44.45044" lon="6.26858">
        <ele>1049</ele>
        <time>2024-09-07T16:27:21.544Z</time>
      </trkpt>
      <trkpt lat="44.45031" lon="6.2685">
        <ele>1050</ele>
        <time>2024-09-07T16:27:27.544Z</time>
      </trkpt>
      <trkpt lat="44.45011" lon="6.26835">
        <ele>1053</ele>
        <time>2024-09-07T16:27:33.544Z</time>
      </trkpt>
      <trkpt lat="44.44997" lon="6.26818">
        <ele>1053</ele>
        <time>2024-09-07T16:27:39.544Z</time>
      </trkpt>
      <trkpt lat="44.45006" lon="6.26735">
        <ele>1060</ele>
        <time>2024-09-07T16:27:45.544Z</time>
      </trkpt>
      <trkpt lat="44.45024" lon="6.26672">
        <ele>1062</ele>
        <time>2024-09-07T16:27:51.544Z</time>
      </trkpt>
      <trkpt lat="44.45034" lon="6.26633">
        <ele>1065</ele>
        <time>2024-09-07T16:27:58.544Z</time>
      </trkpt>
      <trkpt lat="44.45046" lon="6.26634">
        <ele>1065</ele>
        <time>2024-09-07T16:28:03.544Z</time>
      </trkpt>
      <trkpt lat="44.45045" lon="6.26615">
        <ele>1050</ele>
        <time>2024-09-07T16:28:10.544Z</time>
      </trkpt>
      <trkpt lat="44.45052" lon="6.26597">
        <ele>1057</ele>
        <time>2024-09-07T16:28:15.544Z</time>
      </trkpt>
      <trkpt lat="44.45056" lon="6.26577">
        <ele>941</ele>
        <time>2024-09-07T16:28:21.544Z</time>
      </trkpt>
      <trkpt lat="44.45059" lon="6.26557">
        <ele>941</ele>
        <time>2024-09-07T16:28:27.544Z</time>
      </trkpt>
      <trkpt lat="44.45063" lon="6.26542">
        <ele>1063</ele>
        <time>2024-09-07T16:28:33.544Z</time>
      </trkpt>
      <trkpt lat="44.45061" lon="6.26513">
        <ele>941</ele>
        <time>2024-09-07T16:28:40.544Z</time>
      </trkpt>
      <trkpt lat="44.45054" lon="6.26489">
        <ele>941</ele>
        <time>2024-09-07T16:28:45.544Z</time>
      </trkpt>
      <trkpt lat="44.45024" lon="6.26456">
        <ele>941</ele>
        <time>2024-09-07T16:28:52.544Z</time>
      </trkpt>
      <trkpt lat="44.45015" lon="6.2644">
        <ele>1054</ele>
        <time>2024-09-07T16:28:57.544Z</time>
      </trkpt>
      <trkpt lat="44.45011" lon="6.26423">
        <ele>1059</ele>
        <time>2024-09-07T16:29:03.544Z</time>
      </trkpt>
      <trkpt lat="44.4501" lon="6.264">
        <ele>1065</ele>
        <time>2024-09-07T16:29:09.544Z</time>
      </trkpt>
      <trkpt lat="44.45016" lon="6.26377">
        <ele>1069</ele>
        <time>2024-09-07T16:29:15.544Z</time>
      </trkpt>
      <trkpt lat="44.45024" lon="6.26357">
        <ele>1073</ele>
        <time>2024-09-07T16:29:21.544Z</time>
      </trkpt>
      <trkpt lat="44.45029" lon="6.26336">
        <ele>941</ele>
        <time>2024-09-07T16:29:27.544Z</time>
      </trkpt>
      <trkpt lat="44.45031" lon="6.26312">
        <ele>1077</ele>
        <time>2024-09-07T16:29:33.544Z</time>
      </trkpt>
      <trkpt lat="44.45041" lon="6.26291">
        <ele>1076</ele>
        <time>2024-09-07T16:29:40.544Z</time>
      </trkpt>
      <trkpt lat="44.45047" lon="6.26278">
        <ele>941</ele>
        <time>2024-09-07T16:29:45.544Z</time>
      </trkpt>
      <trkpt lat="44.45053" lon="6.2626">
        <ele>941</ele>
        <time>2024-09-07T16:29:51.544Z</time>
      </trkpt>
      <trkpt lat="44.4506" lon="6.26233">
        <ele>1082</ele>
        <time>2024-09-07T16:29:58.544Z</time>
      </trkpt>
      <trkpt lat="44.45061" lon="6.26211">
        <ele>1095</ele>
        <time>2024-09-07T16:30:03.544Z</time>
      </trkpt>
      <trkpt lat="44.45063" lon="6.26186">
        <ele>1087</ele>
        <time>2024-09-07T16:30:10.544Z</time>
      </trkpt>
      <trkpt lat="44.45068" lon="6.26171">
        <ele>1097</ele>
        <time>2024-09-07T16:30:15.544Z</time>
      </trkpt>
      <trkpt lat="44.45079" lon="6.26157">
        <ele>1098</ele>
        <time>2024-09-07T16:30:21.544Z</time>
      </trkpt>
      <trkpt lat="44.4509" lon="6.26142">
        <ele>1105</ele>
        <time>2024-09-07T16:30:27.544Z</time>
      </trkpt>
      <trkpt lat="44.45096" lon="6.2613">
        <ele>1105</ele>
        <time>2024-09-07T16:30:33.544Z</time>
      </trkpt>
      <trkpt lat="44.45093" lon="6.2607">
        <ele>1086</ele>
        <time>2024-09-07T16:30:40.544Z</time>
      </trkpt>
      <trkpt lat="44.45092" lon="6.26029">
        <ele>1093</ele>
        <time>2024-09-07T16:30:45.544Z</time>
      </trkpt>
      <trkpt lat="44.45096" lon="6.25988">
        <ele>1094</ele>
        <time>2024-09-07T16:30:51.544Z</time>
      </trkpt>
      <trkpt lat="44.45092" lon="6.25943">
        <ele>1094</ele>
        <time>2024-09-07T16:30:57.544Z</time>
      </trkpt>
      <trkpt lat="44.45093" lon="6.25886">
        <ele>1095</ele>
        <time>2024-09-07T16:31:03.544Z</time>
      </trkpt>
      <trkpt lat="44.45112" lon="6.25803">
        <ele>1091</ele>
        <time>2024-09-07T16:31:09.544Z</time>
      </trkpt>
      <trkpt lat="44.45119" lon="6.25719">
        <ele>1097</ele>
        <time>2024-09-07T16:31:15.544Z</time>
      </trkpt>
      <trkpt lat="44.4513" lon="6.25651">
        <ele>1083</ele>
        <time>2024-09-07T16:31:21.544Z</time>
      </trkpt>
      <trkpt lat="44.45148" lon="6.25635">
        <ele>1076</ele>
        <time>2024-09-07T16:31:28.544Z</time>
      </trkpt>
      <trkpt lat="44.45157" lon="6.25631">
        <ele>1072</ele>
        <time>2024-09-07T16:31:33.544Z</time>
      </trkpt>
      <trkpt lat="44.45182" lon="6.25614">
        <ele>1071</ele>
        <time>2024-09-07T16:31:45.544Z</time>
      </trkpt>
      <trkpt lat="44.45196" lon="6.25597">
        <ele>1064</ele>
        <time>2024-09-07T16:31:51.544Z</time>
      </trkpt>
      <trkpt lat="44.45211" lon="6.2559">
        <ele>1063</ele>
        <time>2024-09-07T16:31:57.544Z</time>
      </trkpt>
      <trkpt lat="44.45227" lon="6.25579">
        <ele>1052</ele>
        <time>2024-09-07T16:32:03.544Z</time>
      </trkpt>
      <trkpt lat="44.45247" lon="6.25571">
        <ele>1062</ele>
        <time>2024-09-07T16:32:10.544Z</time>
      </trkpt>
      <trkpt lat="44.45258" lon="6.25566">
        <ele>1055</ele>
        <time>2024-09-07T16:32:15.544Z</time>
      </trkpt>
      <trkpt lat="44.4527" lon="6.25552">
        <ele>1063</ele>
        <time>2024-09-07T16:32:21.544Z</time>
      </trkpt>
      <trkpt lat="44.45326" lon="6.25542">
        <ele>1098</ele>
        <time>2024-09-07T16:32:27.544Z</time>
      </trkpt>
      <trkpt lat="44.45342" lon="6.25535">
        <ele>1102</ele>
        <time>2024-09-07T16:32:33.544Z</time>
      </trkpt>
      <trkpt lat="44.45353" lon="6.25531">
        <ele>1104</ele>
        <time>2024-09-07T16:32:39.544Z</time>
      </trkpt>
      <trkpt lat="44.45394" lon="6.25456">
        <ele>1074</ele>
        <time>2024-09-07T16:32:46.544Z</time>
      </trkpt>
      <trkpt lat="44.45406" lon="6.25445">
        <ele>1087</ele>
        <time>2024-09-07T16:32:51.544Z</time>
      </trkpt>
      <trkpt lat="44.45412" lon="6.25437">
        <ele>1078</ele>
        <time>2024-09-07T16:32:56.544Z</time>
      </trkpt>
      <trkpt lat="44.45418" lon="6.254">
        <ele>1080</ele>
        <time>2024-09-07T16:33:03.544Z</time>
      </trkpt>
      <trkpt lat="44.4542" lon="6.2538">
        <ele>1082</ele>
        <time>2024-09-07T16:33:09.544Z</time>
      </trkpt>
      <trkpt lat="44.45426" lon="6.25364">
        <ele>1084</ele>
        <time>2024-09-07T16:33:15.544Z</time>
      </trkpt>
      <trkpt lat="44.45436" lon="6.2535">
        <ele>1103</ele>
        <time>2024-09-07T16:33:21.544Z</time>
      </trkpt>
      <trkpt lat="44.45437" lon="6.25326">
        <ele>1110</ele>
        <time>2024-09-07T16:33:27.544Z</time>
      </trkpt>
      <trkpt lat="44.45433" lon="6.25285">
        <ele>1094</ele>
        <time>2024-09-07T16:33:32.544Z</time>
      </trkpt>
      <trkpt lat="44.45446" lon="6.25256">
        <ele>1098</ele>
        <time>2024-09-07T16:33:39.544Z</time>
      </trkpt>
      <trkpt lat="44.45449" lon="6.25224">
        <ele>1099</ele>
        <time>2024-09-07T16:33:45.544Z</time>
      </trkpt>
      <trkpt lat="44.45443" lon="6.25193">
        <ele>1102</ele>
        <time>2024-09-07T16:33:51.544Z</time>
      </trkpt>
      <trkpt lat="44.4544" lon="6.25162">
        <ele>1101</ele>
        <time>2024-09-07T16:33:57.544Z</time>
      </trkpt>
      <trkpt lat="44.45442" lon="6.25142">
        <ele>1106</ele>
        <time>2024-09-07T16:34:03.544Z</time>
      </trkpt>
      <trkpt lat="44.45418" lon="6.25127">
        <ele>1090</ele>
        <time>2024-09-07T16:34:09.544Z</time>
      </trkpt>
      <trkpt lat="44.45412" lon="6.25109">
        <ele>1093</ele>
        <time>2024-09-07T16:34:15.544Z</time>
      </trkpt>
      <trkpt lat="44.45379" lon="6.25067">
        <ele>1079</ele>
        <time>2024-09-07T16:34:21.544Z</time>
      </trkpt>
      <trkpt lat="44.45351" lon="6.24997">
        <ele>1090</ele>
        <time>2024-09-07T16:34:26.544Z</time>
      </trkpt>
      <trkpt lat="44.45329" lon="6.24956">
        <ele>1085</ele>
        <time>2024-09-07T16:34:33.544Z</time>
      </trkpt>
      <trkpt lat="44.4532" lon="6.24913">
        <ele>1084</ele>
        <time>2024-09-07T16:34:39.544Z</time>
      </trkpt>
      <trkpt lat="44.45325" lon="6.24858">
        <ele>1077</ele>
        <time>2024-09-07T16:34:45.544Z</time>
      </trkpt>
      <trkpt lat="44.45323" lon="6.2483">
        <ele>1076</ele>
        <time>2024-09-07T16:34:51.544Z</time>
      </trkpt>
      <trkpt lat="44.45304" lon="6.24803">
        <ele>1070</ele>
        <time>2024-09-07T16:34:57.544Z</time>
      </trkpt>
      <trkpt lat="44.45303" lon="6.24774">
        <ele>1070</ele>
        <time>2024-09-07T16:35:03.544Z</time>
      </trkpt>
      <trkpt lat="44.45315" lon="6.24748">
        <ele>1072</ele>
        <time>2024-09-07T16:35:09.544Z</time>
      </trkpt>
      <trkpt lat="44.45343" lon="6.24726">
        <ele>1071</ele>
        <time>2024-09-07T16:35:15.544Z</time>
      </trkpt>
      <trkpt lat="44.45363" lon="6.24715">
        <ele>1072</ele>
        <time>2024-09-07T16:35:21.544Z</time>
      </trkpt>
      <trkpt lat="44.45383" lon="6.24693">
        <ele>1076</ele>
        <time>2024-09-07T16:35:28.544Z</time>
      </trkpt>
      <trkpt lat="44.45399" lon="6.24673">
        <ele>1075</ele>
        <time>2024-09-07T16:35:33.544Z</time>
      </trkpt>
      <trkpt lat="44.45419" lon="6.24653">
        <ele>1069</ele>
        <time>2024-09-07T16:35:39.544Z</time>
      </trkpt>
      <trkpt lat="44.45434" lon="6.24631">
        <ele>1068</ele>
        <time>2024-09-07T16:35:45.544Z</time>
      </trkpt>
      <trkpt lat="44.4544" lon="6.24598">
        <ele>1069</ele>
        <time>2024-09-07T16:35:51.544Z</time>
      </trkpt>
      <trkpt lat="44.45461" lon="6.24524">
        <ele>1081</ele>
        <time>2024-09-07T16:36:03.544Z</time>
      </trkpt>
      <trkpt lat="44.45467" lon="6.245">
        <ele>1083</ele>
        <time>2024-09-07T16:36:09.544Z</time>
      </trkpt>
      <trkpt lat="44.45472" lon="6.24483">
        <ele>1070</ele>
        <time>2024-09-07T16:36:15.544Z</time>
      </trkpt>
      <trkpt lat="44.45475" lon="6.24472">
        <ele>1072</ele>
        <time>2024-09-07T16:36:21.544Z</time>
      </trkpt>
      <trkpt lat="44.45477" lon="6.24455">
        <ele>1078</ele>
        <time>2024-09-07T16:36:32.544Z</time>
      </trkpt>
      <trkpt lat="44.45484" lon="6.24448">
        <ele>1076</ele>
        <time>2024-09-07T16:36:39.544Z</time>
      </trkpt>
      <trkpt lat="44.45484" lon="6.24442">
        <ele>1071</ele>
        <time>2024-09-07T16:36:45.544Z</time>
      </trkpt>
      <trkpt lat="44.45477" lon="6.24443">
        <ele>1075</ele>
        <time>2024-09-07T16:36:50.544Z</time>
      </trkpt>
      <trkpt lat="44.45474" lon="6.24442">
        <ele>1072</ele>
        <time>2024-09-07T16:37:39.544Z</time>
      </trkpt>
      <trkpt lat="44.45476" lon="6.2444">
        <ele>1080</ele>
        <time>2024-09-07T16:37:44.544Z</time>
      </trkpt>
      <trkpt lat="44.45474" lon="6.24443">
        <ele>1073</ele>
        <time>2024-09-07T16:37:51.544Z</time>
      </trkpt>
      <trkpt lat="44.45471" lon="6.24451">
        <ele>1079</ele>
        <time>2024-09-07T16:37:56.544Z</time>
      </trkpt>
      <trkpt lat="44.45469" lon="6.24453">
        <ele>1072</ele>
        <time>2024-09-07T16:38:04.544Z</time>
      </trkpt>
      <trkpt lat="44.45471" lon="6.2445">
        <ele>1072</ele>
        <time>2024-09-07T16:38:10.544Z</time>
      </trkpt>
      <trkpt lat="44.45475" lon="6.24452">
        <ele>1075</ele>
        <time>2024-09-07T16:38:16.544Z</time>
      </trkpt>
      <trkpt lat="44.45472" lon="6.24449">
        <ele>1074</ele>
        <time>2024-09-07T16:38:20.544Z</time>
      </trkpt>
      <trkpt lat="44.4547" lon="6.24448">
        <ele>1073</ele>
        <time>2024-09-07T16:38:24.544Z</time>
      </trkpt>
      <trkpt lat="44.45467" lon="6.24448">
        <ele>1074</ele>
        <time>2024-09-07T16:38:36.544Z</time>
      </trkpt>
      <trkpt lat="44.45459" lon="6.2445">
        <ele>1076</ele>
        <time>2024-09-07T16:38:42.544Z</time>
      </trkpt>
      <trkpt lat="44.4545" lon="6.24464">
        <ele>1072</ele>
        <time>2024-09-07T16:38:48.544Z</time>
      </trkpt>
      <trkpt lat="44.45452" lon="6.24514">
        <ele>1071</ele>
        <time>2024-09-07T16:38:54.544Z</time>
      </trkpt>
      <trkpt lat="44.45451" lon="6.24539">
        <ele>736</ele>
        <time>2024-09-07T16:39:00.544Z</time>
      </trkpt>
      <trkpt lat="44.45447" lon="6.24556">
        <ele>1086</ele>
        <time>2024-09-07T16:39:06.544Z</time>
      </trkpt>
      <trkpt lat="44.45438" lon="6.24581">
        <ele>1085</ele>
        <time>2024-09-07T16:39:12.544Z</time>
      </trkpt>
      <trkpt lat="44.4544" lon="6.24609">
        <ele>1085</ele>
        <time>2024-09-07T16:39:18.544Z</time>
      </trkpt>
      <trkpt lat="44.45439" lon="6.24625">
        <ele>1070</ele>
        <time>2024-09-07T16:39:24.544Z</time>
      </trkpt>
      <trkpt lat="44.45426" lon="6.24635">
        <ele>1069</ele>
        <time>2024-09-07T16:39:30.544Z</time>
      </trkpt>
      <trkpt lat="44.45406" lon="6.24647">
        <ele>1074</ele>
        <time>2024-09-07T16:39:36.544Z</time>
      </trkpt>
      <trkpt lat="44.45387" lon="6.24683">
        <ele>1073</ele>
        <time>2024-09-07T16:39:42.544Z</time>
      </trkpt>
      <trkpt lat="44.45367" lon="6.24697">
        <ele>736</ele>
        <time>2024-09-07T16:39:48.544Z</time>
      </trkpt>
      <trkpt lat="44.45345" lon="6.24715">
        <ele>736</ele>
        <time>2024-09-07T16:39:54.544Z</time>
      </trkpt>
      <trkpt lat="44.45319" lon="6.24744">
        <ele>736</ele>
        <time>2024-09-07T16:40:00.544Z</time>
      </trkpt>
      <trkpt lat="44.45298" lon="6.24793">
        <ele>1075</ele>
        <time>2024-09-07T16:40:06.544Z</time>
      </trkpt>
      <trkpt lat="44.45295" lon="6.24837">
        <ele>1072</ele>
        <time>2024-09-07T16:40:12.544Z</time>
      </trkpt>
      <trkpt lat="44.45301" lon="6.24849">
        <ele>1068</ele>
        <time>2024-09-07T16:40:18.544Z</time>
      </trkpt>
      <trkpt lat="44.45296" lon="6.24839">
        <ele>1063</ele>
        <time>2024-09-07T16:40:24.544Z</time>
      </trkpt>
      <trkpt lat="44.45289" lon="6.24839">
        <ele>1067</ele>
        <time>2024-09-07T16:40:30.544Z</time>
      </trkpt>
      <trkpt lat="44.45285" lon="6.24856">
        <ele>1064</ele>
        <time>2024-09-07T16:40:36.544Z</time>
      </trkpt>
      <trkpt lat="44.45273" lon="6.24886">
        <ele>1060</ele>
        <time>2024-09-07T16:40:42.544Z</time>
      </trkpt>
      <trkpt lat="44.45262" lon="6.24912">
        <ele>1064</ele>
        <time>2024-09-07T16:40:48.544Z</time>
      </trkpt>
      <trkpt lat="44.45257" lon="6.24948">
        <ele>1060</ele>
        <time>2024-09-07T16:40:54.544Z</time>
      </trkpt>
      <trkpt lat="44.45263" lon="6.2498">
        <ele>1058</ele>
        <time>2024-09-07T16:41:00.544Z</time>
      </trkpt>
      <trkpt lat="44.45271" lon="6.25007">
        <ele>1050</ele>
        <time>2024-09-07T16:41:06.544Z</time>
      </trkpt>
      <trkpt lat="44.45277" lon="6.25026">
        <ele>1036</ele>
        <time>2024-09-07T16:41:12.544Z</time>
      </trkpt>
      <trkpt lat="44.45279" lon="6.25045">
        <ele>1035</ele>
        <time>2024-09-07T16:41:18.544Z</time>
      </trkpt>
      <trkpt lat="44.45277" lon="6.2507">
        <ele>1042</ele>
        <time>2024-09-07T16:41:24.544Z</time>
      </trkpt>
      <trkpt lat="44.45267" lon="6.25095">
        <ele>1044</ele>
        <time>2024-09-07T16:41:30.544Z</time>
      </trkpt>
      <trkpt lat="44.45263" lon="6.25104">
        <ele>1044</ele>
        <time>2024-09-07T16:41:33.544Z</time>
      </trkpt>
      <trkpt lat="44.45237" lon="6.25137">
        <ele>736</ele>
        <time>2024-09-07T16:41:42.544Z</time>
      </trkpt>
      <trkpt lat="44.45225" lon="6.25144">
        <ele>736</ele>
        <time>2024-09-07T16:41:48.544Z</time>
      </trkpt>
      <trkpt lat="44.45213" lon="6.25147">
        <ele>1042</ele>
        <time>2024-09-07T16:41:54.544Z</time>
      </trkpt>
      <trkpt lat="44.45207" lon="6.25143">
        <ele>1042</ele>
        <time>2024-09-07T16:42:00.544Z</time>
      </trkpt>
      <trkpt lat="44.45202" lon="6.25132">
        <ele>1040</ele>
        <time>2024-09-07T16:42:06.544Z</time>
      </trkpt>
      <trkpt lat="44.45177" lon="6.25114">
        <ele>1030</ele>
        <time>2024-09-07T16:42:12.544Z</time>
      </trkpt>
      <trkpt lat="44.45178" lon="6.25078">
        <ele>1040</ele>
        <time>2024-09-07T16:42:18.544Z</time>
      </trkpt>
      <trkpt lat="44.45184" lon="6.25052">
        <ele>736</ele>
        <time>2024-09-07T16:42:24.544Z</time>
      </trkpt>
      <trkpt lat="44.45193" lon="6.25032">
        <ele>736</ele>
        <time>2024-09-07T16:42:30.544Z</time>
      </trkpt>
      <trkpt lat="44.45191" lon="6.24994">
        <ele>736</ele>
        <time>2024-09-07T16:42:36.544Z</time>
      </trkpt>
      <trkpt lat="44.45186" lon="6.24955">
        <ele>736</ele>
        <time>2024-09-07T16:42:42.544Z</time>
      </trkpt>
      <trkpt lat="44.45188" lon="6.24923">
        <ele>736</ele>
        <time>2024-09-07T16:42:48.544Z</time>
      </trkpt>
      <trkpt lat="44.45184" lon="6.24895">
        <ele>736</ele>
        <time>2024-09-07T16:42:54.544Z</time>
      </trkpt>
      <trkpt lat="44.45158" lon="6.24884">
        <ele>1003</ele>
        <time>2024-09-07T16:43:00.544Z</time>
      </trkpt>
      <trkpt lat="44.45147" lon="6.24891">
        <ele>736</ele>
        <time>2024-09-07T16:43:06.544Z</time>
      </trkpt>
      <trkpt lat="44.45129" lon="6.2488">
        <ele>736</ele>
        <time>2024-09-07T16:43:12.544Z</time>
      </trkpt>
      <trkpt lat="44.4512" lon="6.24867">
        <ele>736</ele>
        <time>2024-09-07T16:43:18.544Z</time>
      </trkpt>
      <trkpt lat="44.45117" lon="6.24849">
        <ele>736</ele>
        <time>2024-09-07T16:43:24.544Z</time>
      </trkpt>
      <trkpt lat="44.45104" lon="6.24837">
        <ele>988</ele>
        <time>2024-09-07T16:43:28.544Z</time>
      </trkpt>
      <trkpt lat="44.45078" lon="6.24811">
        <ele>987</ele>
        <time>2024-09-07T16:43:35.544Z</time>
      </trkpt>
      <trkpt lat="44.45067" lon="6.248">
        <ele>995</ele>
        <time>2024-09-07T16:43:42.544Z</time>
      </trkpt>
      <trkpt lat="44.45056" lon="6.24796">
        <ele>993</ele>
        <time>2024-09-07T16:43:47.544Z</time>
      </trkpt>
      <trkpt lat="44.45047" lon="6.24793">
        <ele>993</ele>
        <time>2024-09-07T16:43:53.544Z</time>
      </trkpt>
      <trkpt lat="44.45031" lon="6.24793">
        <ele>993</ele>
        <time>2024-09-07T16:43:59.544Z</time>
      </trkpt>
      <trkpt lat="44.45012" lon="6.24793">
        <ele>993</ele>
        <time>2024-09-07T16:44:05.544Z</time>
      </trkpt>
      <trkpt lat="44.44983" lon="6.24796">
        <ele>996</ele>
        <time>2024-09-07T16:44:14.544Z</time>
      </trkpt>
      <trkpt lat="44.44977" lon="6.24798">
        <ele>998</ele>
        <time>2024-09-07T16:44:20.544Z</time>
      </trkpt>
      <trkpt lat="44.44967" lon="6.248">
        <ele>991</ele>
        <time>2024-09-07T16:44:26.544Z</time>
      </trkpt>
      <trkpt lat="44.44952" lon="6.24805">
        <ele>736</ele>
        <time>2024-09-07T16:44:32.544Z</time>
      </trkpt>
      <trkpt lat="44.44955" lon="6.24779">
        <ele>981</ele>
        <time>2024-09-07T16:44:38.544Z</time>
      </trkpt>
      <trkpt lat="44.44938" lon="6.24766">
        <ele>974</ele>
        <time>2024-09-07T16:44:44.544Z</time>
      </trkpt>
      <trkpt lat="44.44931" lon="6.24758">
        <ele>972</ele>
        <time>2024-09-07T16:44:50.544Z</time>
      </trkpt>
      <trkpt lat="44.4495" lon="6.2473">
        <ele>977</ele>
        <time>2024-09-07T16:44:56.544Z</time>
      </trkpt>
      <trkpt lat="44.44949" lon="6.24706">
        <ele>962</ele>
        <time>2024-09-07T16:45:02.544Z</time>
      </trkpt>
      <trkpt lat="44.44925" lon="6.24701">
        <ele>963</ele>
        <time>2024-09-07T16:45:08.544Z</time>
      </trkpt>
      <trkpt lat="44.44901" lon="6.24699">
        <ele>955</ele>
        <time>2024-09-07T16:45:14.544Z</time>
      </trkpt>
      <trkpt lat="44.44885" lon="6.24707">
        <ele>945</ele>
        <time>2024-09-07T16:45:20.544Z</time>
      </trkpt>
      <trkpt lat="44.44864" lon="6.24722">
        <ele>945</ele>
        <time>2024-09-07T16:45:26.544Z</time>
      </trkpt>
      <trkpt lat="44.44838" lon="6.2472">
        <ele>939</ele>
        <time>2024-09-07T16:45:32.544Z</time>
      </trkpt>
      <trkpt lat="44.44819" lon="6.24731">
        <ele>935</ele>
        <time>2024-09-07T16:45:38.544Z</time>
      </trkpt>
      <trkpt lat="44.44813" lon="6.24734">
        <ele>928</ele>
        <time>2024-09-07T16:45:44.544Z</time>
      </trkpt>
      <trkpt lat="44.44813" lon="6.24738">
        <ele>921</ele>
        <time>2024-09-07T16:45:50.544Z</time>
      </trkpt>
      <trkpt lat="44.44812" lon="6.2474">
        <ele>927</ele>
        <time>2024-09-07T16:45:56.544Z</time>
      </trkpt>
      <trkpt lat="44.44809" lon="6.24743">
        <ele>928</ele>
        <time>2024-09-07T16:46:02.544Z</time>
      </trkpt>
      <trkpt lat="44.44805" lon="6.24744">
        <ele>923</ele>
        <time>2024-09-07T16:46:14.544Z</time>
      </trkpt>
      <trkpt lat="44.44803" lon="6.24746">
        <ele>921</ele>
        <time>2024-09-07T16:46:26.544Z</time>
      </trkpt>
      <trkpt lat="44.44799" lon="6.2476">
        <ele>923</ele>
        <time>2024-09-07T16:46:31.544Z</time>
      </trkpt>
      <trkpt lat="44.44795" lon="6.24775">
        <ele>919</ele>
        <time>2024-09-07T16:46:37.544Z</time>
      </trkpt>
      <trkpt lat="44.4479" lon="6.2479">
        <ele>903</ele>
        <time>2024-09-07T16:46:43.544Z</time>
      </trkpt>
      <trkpt lat="44.44776" lon="6.24796">
        <ele>903</ele>
        <time>2024-09-07T16:46:50.544Z</time>
      </trkpt>
      <trkpt lat="44.44759" lon="6.24796">
        <ele>901</ele>
        <time>2024-09-07T16:46:56.544Z</time>
      </trkpt>
      <trkpt lat="44.44743" lon="6.24794">
        <ele>905</ele>
        <time>2024-09-07T16:47:02.544Z</time>
      </trkpt>
      <trkpt lat="44.4472" lon="6.24783">
        <ele>907</ele>
        <time>2024-09-07T16:47:08.544Z</time>
      </trkpt>
      <trkpt lat="44.44696" lon="6.24766">
        <ele>905</ele>
        <time>2024-09-07T16:47:14.544Z</time>
      </trkpt>
      <trkpt lat="44.44681" lon="6.24753">
        <ele>903</ele>
        <time>2024-09-07T16:47:20.544Z</time>
      </trkpt>
      <trkpt lat="44.4468" lon="6.24744">
        <ele>902</ele>
        <time>2024-09-07T16:47:26.544Z</time>
      </trkpt>
      <trkpt lat="44.44686" lon="6.24722">
        <ele>889</ele>
        <time>2024-09-07T16:47:32.544Z</time>
      </trkpt>
      <trkpt lat="44.44679" lon="6.24701">
        <ele>880</ele>
        <time>2024-09-07T16:47:38.544Z</time>
      </trkpt>
      <trkpt lat="44.44667" lon="6.24689">
        <ele>884</ele>
        <time>2024-09-07T16:47:44.544Z</time>
      </trkpt>
      <trkpt lat="44.4465" lon="6.24692">
        <ele>881</ele>
        <time>2024-09-07T16:47:50.544Z</time>
      </trkpt>
      <trkpt lat="44.44639" lon="6.24697">
        <ele>868</ele>
        <time>2024-09-07T16:47:56.544Z</time>
      </trkpt>
      <trkpt lat="44.44634" lon="6.24699">
        <ele>874</ele>
        <time>2024-09-07T16:48:02.544Z</time>
      </trkpt>
      <trkpt lat="44.44632" lon="6.24701">
        <ele>871</ele>
        <time>2024-09-07T16:48:14.544Z</time>
      </trkpt>
      <trkpt lat="44.44628" lon="6.24701">
        <ele>871</ele>
        <time>2024-09-07T16:49:08.544Z</time>
      </trkpt>
      <trkpt lat="44.44607" lon="6.24696">
        <ele>862</ele>
        <time>2024-09-07T16:49:14.544Z</time>
      </trkpt>
      <trkpt lat="44.44571" lon="6.24685">
        <ele>850</ele>
        <time>2024-09-07T16:49:20.544Z</time>
      </trkpt>
      <trkpt lat="44.44551" lon="6.24683">
        <ele>852</ele>
        <time>2024-09-07T16:49:26.544Z</time>
      </trkpt>
      <trkpt lat="44.44547" lon="6.24698">
        <ele>851</ele>
        <time>2024-09-07T16:49:32.544Z</time>
      </trkpt>
      <trkpt lat="44.44548" lon="6.24723">
        <ele>853</ele>
        <time>2024-09-07T16:49:38.544Z</time>
      </trkpt>
      <trkpt lat="44.44553" lon="6.24735">
        <ele>851</ele>
        <time>2024-09-07T16:49:44.544Z</time>
      </trkpt>
      <trkpt lat="44.44553" lon="6.24757">
        <ele>851</ele>
        <time>2024-09-07T16:49:50.544Z</time>
      </trkpt>
      <trkpt lat="44.44553" lon="6.2479">
        <ele>850</ele>
        <time>2024-09-07T16:49:56.544Z</time>
      </trkpt>
      <trkpt lat="44.44546" lon="6.24804">
        <ele>852</ele>
        <time>2024-09-07T16:50:02.544Z</time>
      </trkpt>
      <trkpt lat="44.44534" lon="6.24811">
        <ele>854</ele>
        <time>2024-09-07T16:50:08.544Z</time>
      </trkpt>
      <trkpt lat="44.44524" lon="6.24826">
        <ele>856</ele>
        <time>2024-09-07T16:50:14.544Z</time>
      </trkpt>
      <trkpt lat="44.44513" lon="6.24842">
        <ele>852</ele>
        <time>2024-09-07T16:50:20.544Z</time>
      </trkpt>
      <trkpt lat="44.44501" lon="6.24862">
        <ele>852</ele>
        <time>2024-09-07T16:50:26.544Z</time>
      </trkpt>
      <trkpt lat="44.44491" lon="6.2488">
        <ele>854</ele>
        <time>2024-09-07T16:50:32.544Z</time>
      </trkpt>
      <trkpt lat="44.44478" lon="6.24897">
        <ele>852</ele>
        <time>2024-09-07T16:50:38.544Z</time>
      </trkpt>
      <trkpt lat="44.44464" lon="6.24911">
        <ele>851</ele>
        <time>2024-09-07T16:50:44.544Z</time>
      </trkpt>
      <trkpt lat="44.4445" lon="6.24926">
        <ele>848</ele>
        <time>2024-09-07T16:50:50.544Z</time>
      </trkpt>
      <trkpt lat="44.44434" lon="6.24947">
        <ele>848</ele>
        <time>2024-09-07T16:50:56.544Z</time>
      </trkpt>
      <trkpt lat="44.44419" lon="6.24963">
        <ele>851</ele>
        <time>2024-09-07T16:51:02.544Z</time>
      </trkpt>
      <trkpt lat="44.44398" lon="6.24938">
        <ele>850</ele>
        <time>2024-09-07T16:51:08.544Z</time>
      </trkpt>
      <trkpt lat="44.44388" lon="6.24902">
        <ele>842</ele>
        <time>2024-09-07T16:51:14.544Z</time>
      </trkpt>
      <trkpt lat="44.4438" lon="6.24869">
        <ele>838</ele>
        <time>2024-09-07T16:51:20.544Z</time>
      </trkpt>
      <trkpt lat="44.44371" lon="6.24859">
        <ele>849</ele>
        <time>2024-09-07T16:51:26.544Z</time>
      </trkpt>
      <trkpt lat="44.44361" lon="6.24867">
        <ele>849</ele>
        <time>2024-09-07T16:51:31.544Z</time>
      </trkpt>
      <trkpt lat="44.44361" lon="6.24907">
        <ele>851</ele>
        <time>2024-09-07T16:51:38.544Z</time>
      </trkpt>
      <trkpt lat="44.44344" lon="6.2493">
        <ele>829</ele>
        <time>2024-09-07T16:51:44.544Z</time>
      </trkpt>
      <trkpt lat="44.44313" lon="6.24912">
        <ele>824</ele>
        <time>2024-09-07T16:51:50.544Z</time>
      </trkpt>
      <trkpt lat="44.44293" lon="6.24873">
        <ele>819</ele>
        <time>2024-09-07T16:51:56.544Z</time>
      </trkpt>
      <trkpt lat="44.44259" lon="6.24856">
        <ele>817</ele>
        <time>2024-09-07T16:52:02.544Z</time>
      </trkpt>
      <trkpt lat="44.44224" lon="6.24849">
        <ele>813</ele>
        <time>2024-09-07T16:52:08.544Z</time>
      </trkpt>
      <trkpt lat="44.44205" lon="6.24839">
        <ele>818</ele>
        <time>2024-09-07T16:52:14.544Z</time>
      </trkpt>
      <trkpt lat="44.44217" lon="6.24834">
        <ele>817</ele>
        <time>2024-09-07T16:52:20.544Z</time>
      </trkpt>
      <trkpt lat="44.44218" lon="6.24832">
        <ele>816</ele>
        <time>2024-09-07T16:52:26.544Z</time>
      </trkpt>
      <trkpt lat="44.44227" lon="6.24822">
        <ele>808</ele>
        <time>2024-09-07T16:52:32.544Z</time>
      </trkpt>
      <trkpt lat="44.44243" lon="6.24826">
        <ele>806</ele>
        <time>2024-09-07T16:52:38.544Z</time>
      </trkpt>
      <trkpt lat="44.44265" lon="6.24836">
        <ele>811</ele>
        <time>2024-09-07T16:52:44.544Z</time>
      </trkpt>
      <trkpt lat="44.44289" lon="6.24833">
        <ele>812</ele>
        <time>2024-09-07T16:52:50.544Z</time>
      </trkpt>
      <trkpt lat="44.44323" lon="6.2479">
        <ele>812</ele>
        <time>2024-09-07T16:52:56.544Z</time>
      </trkpt>
      <trkpt lat="44.44347" lon="6.24756">
        <ele>808</ele>
        <time>2024-09-07T16:53:02.544Z</time>
      </trkpt>
      <trkpt lat="44.44364" lon="6.24718">
        <ele>812</ele>
        <time>2024-09-07T16:53:08.544Z</time>
      </trkpt>
      <trkpt lat="44.44378" lon="6.247">
        <ele>816</ele>
        <time>2024-09-07T16:53:14.544Z</time>
      </trkpt>
      <trkpt lat="44.44396" lon="6.2469">
        <ele>818</ele>
        <time>2024-09-07T16:53:20.544Z</time>
      </trkpt>
      <trkpt lat="44.44404" lon="6.2469">
        <ele>815</ele>
        <time>2024-09-07T16:53:26.544Z</time>
      </trkpt>
      <trkpt lat="44.44423" lon="6.24683">
        <ele>808</ele>
        <time>2024-09-07T16:53:32.544Z</time>
      </trkpt>
      <trkpt lat="44.4443" lon="6.24682">
        <ele>819</ele>
        <time>2024-09-07T16:53:38.544Z</time>
      </trkpt>
      <trkpt lat="44.44438" lon="6.24684">
        <ele>812</ele>
        <time>2024-09-07T16:53:44.544Z</time>
      </trkpt>
      <trkpt lat="44.44448" lon="6.24678">
        <ele>812</ele>
        <time>2024-09-07T16:53:50.544Z</time>
      </trkpt>
      <trkpt lat="44.44455" lon="6.24645">
        <ele>814</ele>
        <time>2024-09-07T16:53:57.544Z</time>
      </trkpt>
      <trkpt lat="44.44458" lon="6.24626">
        <ele>804</ele>
        <time>2024-09-07T16:54:02.544Z</time>
      </trkpt>
      <trkpt lat="44.44471" lon="6.24582">
        <ele>807</ele>
        <time>2024-09-07T16:54:08.544Z</time>
      </trkpt>
      <trkpt lat="44.44488" lon="6.24563">
        <ele>804</ele>
        <time>2024-09-07T16:54:14.544Z</time>
      </trkpt>
      <trkpt lat="44.44513" lon="6.24518">
        <ele>804</ele>
        <time>2024-09-07T16:54:20.544Z</time>
      </trkpt>
      <trkpt lat="44.44534" lon="6.24501">
        <ele>799</ele>
        <time>2024-09-07T16:54:26.544Z</time>
      </trkpt>
      <trkpt lat="44.44589" lon="6.24485">
        <ele>810</ele>
        <time>2024-09-07T16:54:32.544Z</time>
      </trkpt>
      <trkpt lat="44.44623" lon="6.24475">
        <ele>805</ele>
        <time>2024-09-07T16:54:38.544Z</time>
      </trkpt>
      <trkpt lat="44.44663" lon="6.24455">
        <ele>809</ele>
        <time>2024-09-07T16:54:44.544Z</time>
      </trkpt>
      <trkpt lat="44.44702" lon="6.24433">
        <ele>795</ele>
        <time>2024-09-07T16:54:50.544Z</time>
      </trkpt>
      <trkpt lat="44.44741" lon="6.24406">
        <ele>800</ele>
        <time>2024-09-07T16:54:56.544Z</time>
      </trkpt>
      <trkpt lat="44.4478" lon="6.24341">
        <ele>799</ele>
        <time>2024-09-07T16:55:02.544Z</time>
      </trkpt>
      <trkpt lat="44.4481" lon="6.24275">
        <ele>798</ele>
        <time>2024-09-07T16:55:08.544Z</time>
      </trkpt>
      <trkpt lat="44.44822" lon="6.24192">
        <ele>791</ele>
        <time>2024-09-07T16:55:14.544Z</time>
      </trkpt>
      <trkpt lat="44.44815" lon="6.24115">
        <ele>794</ele>
        <time>2024-09-07T16:55:20.544Z</time>
      </trkpt>
      <trkpt lat="44.44838" lon="6.24057">
        <ele>798</ele>
        <time>2024-09-07T16:55:26.544Z</time>
      </trkpt>
      <trkpt lat="44.44884" lon="6.24041">
        <ele>789</ele>
        <time>2024-09-07T16:55:32.544Z</time>
      </trkpt>
      <trkpt lat="44.44929" lon="6.24052">
        <ele>792</ele>
        <time>2024-09-07T16:55:38.544Z</time>
      </trkpt>
      <trkpt lat="44.44968" lon="6.24019">
        <ele>780</ele>
        <time>2024-09-07T16:55:44.544Z</time>
      </trkpt>
      <trkpt lat="44.44996" lon="6.24017">
        <ele>776</ele>
        <time>2024-09-07T16:55:50.544Z</time>
      </trkpt>
      <trkpt lat="44.45034" lon="6.24026">
        <ele>759</ele>
        <time>2024-09-07T16:55:56.544Z</time>
      </trkpt>
      <trkpt lat="44.45099" lon="6.24047">
        <ele>752</ele>
        <time>2024-09-07T16:56:02.544Z</time>
      </trkpt>
      <trkpt lat="44.45169" lon="6.24037">
        <ele>753</ele>
        <time>2024-09-07T16:56:08.544Z</time>
      </trkpt>
      <trkpt lat="44.45198" lon="6.23978">
        <ele>753</ele>
        <time>2024-09-07T16:56:14.544Z</time>
      </trkpt>
      <trkpt lat="44.45224" lon="6.23914">
        <ele>751</ele>
        <time>2024-09-07T16:56:20.544Z</time>
      </trkpt>
      <trkpt lat="44.45254" lon="6.2386">
        <ele>732</ele>
        <time>2024-09-07T16:56:26.544Z</time>
      </trkpt>
      <trkpt lat="44.45296" lon="6.23841">
        <ele>743</ele>
        <time>2024-09-07T16:56:32.544Z</time>
      </trkpt>
      <trkpt lat="44.4534" lon="6.23838">
        <ele>743</ele>
        <time>2024-09-07T16:56:38.544Z</time>
      </trkpt>
      <trkpt lat="44.45385" lon="6.23836">
        <ele>745</ele>
        <time>2024-09-07T16:56:44.544Z</time>
      </trkpt>
      <trkpt lat="44.45434" lon="6.23838">
        <ele>752</ele>
        <time>2024-09-07T16:56:50.544Z</time>
      </trkpt>
      <trkpt lat="44.45483" lon="6.23847">
        <ele>740</ele>
        <time>2024-09-07T16:56:56.544Z</time>
      </trkpt>
      <trkpt lat="44.45531" lon="6.23851">
        <ele>735</ele>
        <time>2024-09-07T16:57:02.544Z</time>
      </trkpt>
      <trkpt lat="44.45583" lon="6.2385">
        <ele>732</ele>
        <time>2024-09-07T16:57:08.544Z</time>
      </trkpt>
      <trkpt lat="44.45635" lon="6.23866">
        <ele>734</ele>
        <time>2024-09-07T16:57:14.544Z</time>
      </trkpt>
      <trkpt lat="44.45687" lon="6.23891">
        <ele>737</ele>
        <time>2024-09-07T16:57:20.544Z</time>
      </trkpt>
      <trkpt lat="44.45734" lon="6.23932">
        <ele>727</ele>
        <time>2024-09-07T16:57:26.544Z</time>
      </trkpt>
      <trkpt lat="44.45788" lon="6.23956">
        <ele>727</ele>
        <time>2024-09-07T16:57:32.544Z</time>
      </trkpt>
      <trkpt lat="44.45829" lon="6.2391">
        <ele>721</ele>
        <time>2024-09-07T16:57:38.544Z</time>
      </trkpt>
      <trkpt lat="44.45862" lon="6.23875">
        <ele>717</ele>
        <time>2024-09-07T16:57:44.544Z</time>
      </trkpt>
      <trkpt lat="44.45892" lon="6.23848">
        <ele>720</ele>
        <time>2024-09-07T16:57:50.544Z</time>
      </trkpt>
      <trkpt lat="44.45906" lon="6.23837">
        <ele>720</ele>
        <time>2024-09-07T16:57:56.544Z</time>
      </trkpt>
      <trkpt lat="44.45911" lon="6.23831">
        <ele>735</ele>
        <time>2024-09-07T16:58:02.544Z</time>
      </trkpt>
      <trkpt lat="44.45919" lon="6.23832">
        <ele>729</ele>
        <time>2024-09-07T16:58:08.544Z</time>
      </trkpt>
      <trkpt lat="44.45955" lon="6.23826">
        <ele>723</ele>
        <time>2024-09-07T16:58:14.544Z</time>
      </trkpt>
      <trkpt lat="44.46031" lon="6.23797">
        <ele>713</ele>
        <time>2024-09-07T16:58:20.544Z</time>
      </trkpt>
      <trkpt lat="44.46104" lon="6.2377">
        <ele>713</ele>
        <time>2024-09-07T16:58:26.544Z</time>
      </trkpt>
      <trkpt lat="44.46157" lon="6.23746">
        <ele>713</ele>
        <time>2024-09-07T16:58:32.544Z</time>
      </trkpt>
      <trkpt lat="44.4622" lon="6.23674">
        <ele>713</ele>
        <time>2024-09-07T16:58:38.544Z</time>
      </trkpt>
      <trkpt lat="44.46252" lon="6.23659">
        <ele>713</ele>
        <time>2024-09-07T16:58:44.544Z</time>
      </trkpt>
      <trkpt lat="44.4628" lon="6.23643">
        <ele>710</ele>
        <time>2024-09-07T16:58:50.544Z</time>
      </trkpt>
      <trkpt lat="44.46329" lon="6.23607">
        <ele>715</ele>
        <time>2024-09-07T16:58:56.544Z</time>
      </trkpt>
      <trkpt lat="44.46363" lon="6.23591">
        <ele>711</ele>
        <time>2024-09-07T16:59:02.544Z</time>
      </trkpt>
      <trkpt lat="44.46396" lon="6.2357">
        <ele>710</ele>
        <time>2024-09-07T16:59:08.544Z</time>
      </trkpt>
      <trkpt lat="44.46428" lon="6.23549">
        <ele>707</ele>
        <time>2024-09-07T16:59:14.544Z</time>
      </trkpt>
      <trkpt lat="44.4646" lon="6.23532">
        <ele>706</ele>
        <time>2024-09-07T16:59:20.544Z</time>
      </trkpt>
      <trkpt lat="44.46495" lon="6.23513">
        <ele>713</ele>
        <time>2024-09-07T16:59:26.544Z</time>
      </trkpt>
      <trkpt lat="44.46525" lon="6.23495">
        <ele>713</ele>
        <time>2024-09-07T16:59:32.544Z</time>
      </trkpt>
      <trkpt lat="44.46539" lon="6.23455">
        <ele>713</ele>
        <time>2024-09-07T16:59:38.544Z</time>
      </trkpt>
      <trkpt lat="44.4654" lon="6.23403">
        <ele>713</ele>
        <time>2024-09-07T16:59:44.544Z</time>
      </trkpt>
      <trkpt lat="44.4654" lon="6.23362">
        <ele>713</ele>
        <time>2024-09-07T16:59:50.544Z</time>
      </trkpt>
      <trkpt lat="44.46556" lon="6.23359">
        <ele>725</ele>
        <time>2024-09-07T16:59:56.544Z</time>
      </trkpt>
      <trkpt lat="44.46573" lon="6.23368">
        <ele>722</ele>
        <time>2024-09-07T17:00:02.544Z</time>
      </trkpt>
      <trkpt lat="44.46601" lon="6.23368">
        <ele>720</ele>
        <time>2024-09-07T17:00:08.544Z</time>
      </trkpt>
      <trkpt lat="44.46624" lon="6.23363">
        <ele>720</ele>
        <time>2024-09-07T17:00:14.544Z</time>
      </trkpt>
      <trkpt lat="44.46649" lon="6.23365">
        <ele>726</ele>
        <time>2024-09-07T17:00:20.544Z</time>
      </trkpt>
      <trkpt lat="44.46674" lon="6.23369">
        <ele>726</ele>
        <time>2024-09-07T17:00:26.544Z</time>
      </trkpt>
      <trkpt lat="44.46695" lon="6.23372">
        <ele>732</ele>
        <time>2024-09-07T17:00:32.544Z</time>
      </trkpt>
      <trkpt lat="44.46715" lon="6.23379">
        <ele>732</ele>
        <time>2024-09-07T17:00:38.544Z</time>
      </trkpt>
      <trkpt lat="44.46734" lon="6.23369">
        <ele>735</ele>
        <time>2024-09-07T17:00:44.544Z</time>
      </trkpt>
      <trkpt lat="44.46751" lon="6.2335">
        <ele>746</ele>
        <time>2024-09-07T17:00:50.544Z</time>
      </trkpt>
      <trkpt lat="44.46767" lon="6.23333">
        <ele>728</ele>
        <time>2024-09-07T17:00:56.544Z</time>
      </trkpt>
      <trkpt lat="44.46772" lon="6.23329">
        <ele>746</ele>
        <time>2024-09-07T17:00:59.544Z</time>
      </trkpt>
      <trkpt lat="44.46781" lon="6.23319">
        <ele>743</ele>
        <time>2024-09-07T17:01:02.544Z</time>
      </trkpt>
      <trkpt lat="44.468" lon="6.23299">
        <ele>743</ele>
        <time>2024-09-07T17:01:08.544Z</time>
      </trkpt>
      <trkpt lat="44.46819" lon="6.23272">
        <ele>738</ele>
        <time>2024-09-07T17:01:14.544Z</time>
      </trkpt>
      <trkpt lat="44.46836" lon="6.23249">
        <ele>745</ele>
        <time>2024-09-07T17:01:20.544Z</time>
      </trkpt>
      <trkpt lat="44.46852" lon="6.23226">
        <ele>748</ele>
        <time>2024-09-07T17:01:26.544Z</time>
      </trkpt>
      <trkpt lat="44.46867" lon="6.23225">
        <ele>748</ele>
        <time>2024-09-07T17:01:32.544Z</time>
      </trkpt>
    </trkseg>
  </trk>
</gpx>